GFSGBSN_sfc_thetae_000.txt.gz
Theta_e
318 318 318 317 317 317 317 317 316 316 315 315 315 315 316 316 317 317 316 316 316 315 315 315 317 317 320 313 310 320 326 326 320 318 314 311 309 309 304 305 307 304 305 306 307 307 307
318 318 318 317 317 317 317 316 316 316 315 315 315 315 315 315 316 316 317 317 316 315 315 315 316 315 318 305 319 321 320 320 319 317 314 314 311 312 308 307 306 307 307 306 307 307 307
318 318 318 317 317 317 316 316 316 316 315 315 315 315 315 315 316 316 316 316 316 316 315 316 316 319 315 309 320 322 320 319 319 317 312 314 315 312 311 307 309 307 303 306 307 305 303
318 318 318 317 317 316 316 316 315 315 315 315 315 315 315 314 315 315 316 316 315 315 315 316 316 321 310 319 322 319 321 318 319 319 316 315 316 312 311 310 308 304 304 298 304 304 305
317 318 318 317 317 316 316 316 315 315 314 315 315 315 315 314 314 315 315 315 315 316 316 316 321 320 308 320 315 319 319 315 317 318 318 316 314 310 310 305 302 302 296 298 300 305 303
317 317 318 317 317 317 317 317 315 314 314 314 315 315 314 314 315 315 315 315 316 317 319 322 321 311 312 310 314 317 319 318 314 314 313 312 310 306 305 301 293 296 296 299 299 303 303
316 316 317 317 317 318 318 317 315 314 314 314 314 314 314 314 316 315 318 322 315 315 315 309 309 309 310 314 317 313 315 314 314 311 304 307 304 299 300 302 302 300 299 298 301 304 302
316 316 316 317 318 318 318 317 315 314 313 313 314 314 314 314 316 316 322 319 318 321 306 311 310 310 311 313 308 311 314 309 307 303 305 303 301 302 303 303 301 299 298 298 301 303 302
315 314 315 317 317 317 317 317 315 314 313 313 313 313 313 312 315 323 324 320 327 327 312 306 310 308 309 312 306 306 310 308 304 302 301 299 302 303 302 301 299 298 298 297 297 301 304
313 312 314 316 316 316 316 316 315 314 313 313 313 312 312 312 315 325 321 325 331 331 306 302 306 309 310 309 305 311 310 307 306 301 301 301 304 301 300 300 299 295 302 300 299 298 293
313 312 314 315 315 314 314 314 314 314 313 312 312 313 313 312 328 319 322 327 331 330 295 304 305 313 310 306 306 307 312 309 302 301 301 300 300 298 298 299 301 298 302 301 301 299 298
313 313 314 315 314 314 314 314 314 313 313 312 312 312 315 322 331 324 327 331 329 310 295 301 305 304 304 305 305 307 308 310 307 302 302 300 304 302 300 302 303 304 302 302 303 298 292
313 314 314 315 314 314 314 314 313 313 312 311 311 312 320 328 322 328 332 327 306 299 303 300 301 303 302 301 303 303 302 303 300 297 298 302 301 303 303 300 304 302 298 293 292 294 292
315 315 314 315 314 314 314 313 313 312 312 311 311 311 322 327 330 333 328 314 296 300 300 304 302 302 300 301 302 302 302 300 303 301 298 295 294 300 303 300 297 299 297 293 284 286 288
315 315 315 315 315 314 313 313 313 312 311 310 310 331 328 331 332 332 318 304 300 301 302 301 301 298 300 301 300 301 300 299 301 302 295 295 295 304 303 303 301 298 296 300 292 290 288
315 315 315 315 314 314 313 313 312 312 311 310 326 325 321 331 332 328 317 301 301 303 304 303 297 299 297 299 298 300 299 301 300 303 305 300 293 302 302 305 305 300 303 293 295 284 283
315 314 314 315 314 313 313 312 312 311 311 310 328 318 324 328 329 317 308 302 301 304 305 302 300 298 298 298 299 298 298 301 303 302 304 303 298 297 301 300 298 298 297 298 297 294 286
313 313 314 314 314 313 313 312 312 311 310 313 328 313 326 329 313 312 305 304 298 304 306 304 304 303 300 301 299 299 298 301 305 304 300 303 298 292 295 303 303 301 298 298 290 289 292
312 312 313 314 314 314 313 312 312 311 310 318 315 314 327 326 307 305 305 303 305 303 304 303 302 304 304 301 298 300 301 305 305 303 300 301 297 289 293 299 301 298 299 299 298 293 289
311 311 312 314 314 314 313 313 312 311 311 318 315 307 316 318 314 307 304 303 301 306 304 305 303 305 303 301 303 299 300 304 306 305 302 302 297 293 288 293 297 294 297 298 296 290 290
311 310 311 313 313 313 314 313 312 311 310 320 314 309 310 308 310 308 307 304 302 301 305 305 303 302 301 295 297 297 301 302 305 303 304 302 294 296 296 297 296 295 294 296 294 295 289
310 310 311 312 313 313 313 312 311 311 309 321 313 311 311 307 306 306 302 302 301 302 302 301 300 303 303 300 299 297 300 301 300 304 303 303 292 292 290 295 296 292 294 296 295 295 295
310 310 310 311 311 312 314 312 311 310 312 318 317 315 314 304 306 306 305 302 302 303 305 304 304 303 298 303 306 306 306 305 304 301 300 299 293 287 286 292 290 285 291 294 296 297 296
310 310 311 311 311 311 309 308 311 310 310 323 320 317 303 304 309 303 303 304 303 304 303 305 306 299 307 312 310 307 305 304 303 302 303 295 290 287 285 286 281 294 300 298 296 298 299
309 310 310 311 311 311 308 310 312 311 310 322 322 317 307 290 307 304 304 304 305 306 304 304 306 310 313 308 299 290 294 291 293 300 301 302 292 288 285 286 289 292 296 296 293 293 299
309 309 310 310 310 309 309 310 311 310 311 319 323 324 315 293 302 307 305 306 304 305 306 306 311 312 309 304 293 286 287 290 291 293 301 298 294 293 289 283 280 292 297 301 301 288 300
308 308 309 309 309 308 308 308 308 309 310 317 323 327 317 305 309 309 305 306 308 306 303 306 306 302 308 295 288 287 289 294 288 286 287 291 290 287 287 285 288 297 300 303 287 289 299
307 307 308 308 308 308 308 307 307 307 308 314 323 327 320 308 310 312 312 308 308 307 304 305 303 306 299 290 289 291 288 293 292 294 291 289 288 286 286 284 283 302 301 290 297 302 301
306 307 307 307 307 307 307 307 307 307 308 309 315 326 323 314 311 318 318 319 315 312 308 309 304 304 304 297 293 292 288 289 288 285 296 288 293 291 292 291 300 303 301 304 303 302 302

GFSGBSN_sfc_thetae_003.txt.gz
Theta_e
318 318 318 317 317 317 317 317 316 316 316 316 316 316 316 316 316 317 316 316 316 316 315 315 316 316 316 310 306 315 324 322 319 314 310 309 306 304 299 300 302 298 299 302 303 303 301
319 318 319 318 317 316 316 316 316 316 316 316 316 316 316 315 316 317 317 316 316 316 315 314 315 314 313 303 315 316 316 316 314 312 308 308 306 307 304 302 300 303 303 301 302 302 302
318 319 318 317 317 317 317 316 315 315 315 315 315 315 315 315 316 316 316 316 315 315 315 314 315 316 314 306 312 313 317 313 313 313 308 309 310 306 306 304 306 304 298 301 301 301 297
318 318 318 317 317 316 316 316 315 315 315 315 315 315 314 314 315 315 315 315 315 315 315 314 314 314 306 316 312 315 314 313 315 315 312 310 310 307 306 306 304 300 297 292 300 300 300
318 318 318 317 317 317 316 316 315 315 315 315 315 315 314 314 314 315 315 315 315 315 315 315 312 313 303 317 312 314 314 313 314 315 313 314 309 304 304 298 294 295 289 293 296 299 297
317 317 317 317 317 317 317 316 315 314 314 314 315 314 314 314 315 316 315 315 317 315 316 317 318 307 310 308 311 313 311 312 311 311 309 308 303 298 296 293 286 290 290 294 292 296 297
316 317 317 318 318 318 318 317 315 313 313 314 314 314 314 314 315 314 316 316 306 307 310 302 304 306 307 311 313 308 310 309 309 307 299 300 296 291 292 296 297 295 293 291 294 299 296
315 315 316 318 318 318 318 317 315 314 313 313 313 314 314 314 314 315 314 313 313 313 302 309 308 307 310 310 305 306 309 303 303 297 300 296 294 298 300 299 297 295 293 292 296 300 298
314 313 316 317 317 317 317 317 315 314 313 313 313 313 313 312 313 318 314 313 323 323 307 305 308 307 307 309 305 303 305 303 301 298 296 293 298 302 299 298 296 293 293 293 293 297 299
313 312 315 316 316 316 316 316 315 315 313 313 312 313 312 312 312 318 313 319 324 323 301 299 304 306 309 308 305 307 307 304 303 298 297 297 301 298 297 297 296 291 298 297 296 293 288
312 312 314 315 315 314 314 314 314 314 313 313 312 313 313 312 319 313 317 321 322 321 284 303 303 308 307 303 303 305 307 305 298 298 297 296 295 294 296 296 298 295 300 297 297 293 290
312 313 314 314 314 314 314 313 313 313 313 312 312 312 312 318 319 316 322 324 320 297 285 300 304 303 303 304 304 305 306 307 305 301 299 297 300 298 296 300 300 301 298 297 297 293 284
312 314 314 314 314 314 314 313 313 313 312 311 311 312 315 324 314 320 323 319 297 287 303 298 300 302 301 299 302 301 301 298 294 291 292 298 297 298 302 296 300 297 293 282 281 281 281
314 314 314 314 315 314 314 313 312 312 312 311 310 310 321 324 323 323 321 304 287 299 298 303 301 300 298 298 300 300 299 295 299 297 292 291 287 297 301 297 294 294 293 282 278 277 281
315 314 314 314 314 314 313 313 312 311 311 311 310 319 319 321 325 322 312 292 290 298 301 299 300 296 297 300 297 298 296 296 297 298 292 290 292 301 301 300 298 295 289 296 286 280 279
314 314 314 314 314 313 313 312 312 312 311 311 314 320 314 321 322 320 303 295 298 302 302 302 296 297 294 296 296 296 296 299 299 301 301 297 289 299 302 302 300 297 299 287 284 278 278
313 313 314 314 314 313 313 312 312 311 311 310 319 311 316 320 321 311 294 292 299 302 304 300 298 297 298 296 297 296 296 299 301 300 301 299 294 292 298 297 294 293 290 292 295 287 282
312 312 313 313 314 313 313 313 312 311 311 315 316 305 316 320 305 304 295 301 299 303 305 304 302 301 298 299 297 297 297 299 303 301 297 298 292 283 292 299 301 297 296 296 286 286 284
311 311 312 313 313 313 313 312 312 311 310 306 310 308 319 317 290 290 300 302 303 303 302 303 301 302 302 298 291 298 299 303 302 301 296 297 288 281 287 293 297 295 296 296 292 286 284
311 310 311 312 313 313 313 312 312 311 310 310 309 293 308 311 308 301 299 300 299 304 303 304 302 303 300 298 300 295 298 303 304 302 302 300 293 287 282 288 293 290 293 294 292 278 284
310 311 310 311 312 313 313 312 311 311 310 313 308 299 303 293 298 301 301 302 300 299 304 304 301 301 298 290 292 293 299 302 303 301 301 298 287 291 293 295 295 294 293 293 291 290 285
310 310 310 311 311 312 312 312 310 310 309 314 303 301 306 300 303 301 297 299 299 300 300 300 298 301 300 294 297 293 297 297 295 299 297 299 286 288 288 294 294 290 291 292 291 291 291
310 310 310 310 310 311 312 308 308 310 310 313 310 308 306 298 297 292 294 300 301 302 302 303 301 299 292 300 301 301 301 301 300 297 292 292 285 284 286 290 288 281 287 290 291 293 291
310 310 311 311 311 311 309 308 310 309 309 313 313 310 293 289 290 296 302 302 301 302 299 303 302 293 303 308 304 299 297 298 298 298 298 287 283 282 284 282 279 289 296 295 292 294 294
309 309 310 311 311 310 308 307 310 309 309 312 315 310 295 287 295 299 301 301 301 302 299 302 304 306 306 300 289 286 284 285 288 297 296 296 285 284 284 282 285 289 293 290 289 289 296
309 309 309 309 309 310 309 309 310 309 310 313 316 315 301 289 292 305 299 300 291 291 293 299 307 307 304 288 288 283 276 283 284 290 297 293 289 285 281 278 278 285 294 299 297 285 296
308 308 309 309 308 308 309 308 308 309 309 311 313 319 310 296 302 303 296 295 302 296 292 295 298 294 301 288 285 285 282 290 281 280 280 282 280 278 273 280 283 292 297 300 283 287 295
307 307 307 308 308 308 308 308 308 308 308 311 313 319 311 298 303 307 309 303 302 298 288 297 295 292 289 286 286 285 286 284 283 288 283 282 279 282 281 283 279 297 295 286 292 295 299
307 307 307 307 307 307 307 307 307 308 308 309 309 318 317 305 304 313 313 313 311 308 303 299 296 297 295 286 286 286 286 286 285 284 292 285 287 282 285 284 294 297 296 298 300 298 297

GFSGBSN_sfc_thetae_006.txt.gz
Theta_e
318 318 318 317 317 317 317 316 316 316 315 315 315 316 316 316 316 317 316 316 316 316 315 315 316 317 313 305 304 313 324 320 313 312 308 306 304 302 298 298 299 296 297 299 300 300 298
319 319 318 318 317 317 317 316 316 315 315 315 315 315 315 316 316 317 316 316 315 315 315 315 316 315 309 299 312 314 314 314 312 309 307 306 304 305 302 300 298 301 300 299 300 299 299
318 318 318 317 317 317 317 316 315 315 315 315 315 315 314 315 316 316 316 316 315 315 315 315 315 316 313 304 309 310 312 311 311 310 307 306 306 304 303 301 304 301 297 299 300 298 297
318 318 318 317 317 317 317 316 315 315 315 315 315 314 314 314 314 314 314 314 314 315 314 315 315 314 303 314 311 313 312 311 314 313 310 309 308 304 303 304 303 298 295 290 297 299 298
317 317 318 318 317 317 317 316 315 314 314 314 314 314 314 313 313 314 314 314 314 315 316 315 312 310 304 315 310 311 311 310 311 312 311 312 308 302 301 294 290 292 287 289 294 298 295
317 316 317 318 318 317 317 316 315 314 314 314 314 314 313 313 313 312 312 314 315 314 314 316 316 304 308 306 309 310 308 309 307 308 307 306 301 295 293 290 284 287 288 291 289 295 296
316 316 317 318 318 318 318 317 315 314 314 314 314 314 313 313 313 313 314 314 309 303 307 300 302 303 304 308 310 306 308 307 306 305 297 299 294 289 291 293 295 293 290 289 292 296 295
314 314 317 318 318 318 318 317 315 314 314 313 313 313 313 313 313 313 316 311 311 311 301 306 305 305 307 307 303 305 306 301 301 295 297 295 291 296 298 298 295 293 291 290 294 297 296
312 313 316 317 317 317 317 317 315 314 313 313 313 313 313 312 311 315 312 313 321 319 304 302 306 304 305 306 302 302 303 301 298 296 294 292 296 299 297 295 294 291 291 291 292 295 295
311 312 315 316 316 316 316 315 315 314 313 313 312 312 312 312 310 314 311 316 319 318 294 298 302 304 306 305 302 306 305 302 299 295 295 295 298 296 296 294 294 289 295 295 294 291 286
311 312 314 314 315 314 314 314 314 314 313 312 312 312 312 314 315 311 315 318 320 314 281 301 301 306 305 301 301 303 305 303 296 296 295 293 293 293 293 293 296 293 297 296 295 290 288
311 313 314 314 314 314 313 313 313 313 312 312 311 312 312 317 313 313 318 320 316 294 284 298 302 301 301 302 301 303 304 306 304 300 298 295 297 296 295 298 298 299 296 295 294 290 282
311 313 313 314 314 313 313 313 312 312 312 311 310 311 316 321 311 317 319 312 295 285 302 296 298 300 299 297 299 300 298 296 293 289 289 296 295 297 300 295 298 295 290 281 280 279 280
313 313 313 313 314 313 313 313 312 312 311 311 310 310 318 321 319 319 313 300 287 296 296 300 299 298 296 297 297 298 296 293 297 295 291 290 286 296 299 295 292 293 291 281 277 276 280
313 313 313 313 313 313 312 312 312 311 311 310 311 317 314 316 320 320 306 288 287 295 299 297 299 294 295 298 295 297 294 294 296 296 290 288 290 299 299 299 297 294 288 293 284 277 278
313 313 313 312 312 312 312 312 312 311 311 310 312 314 309 317 318 313 296 291 295 300 300 301 294 296 292 294 294 295 294 298 297 299 298 295 288 297 299 300 299 295 296 286 284 275 278
312 312 312 312 312 311 312 312 311 311 311 310 317 305 309 317 316 304 289 289 297 300 302 299 297 296 296 294 296 294 294 298 299 298 300 296 292 291 295 295 292 291 289 291 292 285 279
311 311 311 311 312 312 312 311 311 310 310 310 311 296 308 314 300 297 292 298 299 300 303 302 301 299 296 296 295 295 295 297 300 300 295 297 289 283 290 296 298 295 293 292 281 284 282
310 310 311 312 311 311 311 311 311 310 309 307 304 304 313 312 288 287 298 300 301 301 300 301 299 300 300 296 290 296 297 301 300 299 295 295 286 280 285 290 295 293 294 293 290 283 282
310 310 311 311 311 311 311 311 311 310 310 309 302 293 301 304 302 297 296 297 297 302 301 302 300 301 298 296 297 293 296 301 301 300 301 298 291 285 281 285 291 289 292 293 289 277 284
310 310 310 310 311 311 311 310 309 309 309 311 303 296 300 290 295 297 299 300 298 297 302 301 299 299 296 289 291 292 297 298 300 300 298 295 286 289 291 292 293 293 292 292 290 289 282
309 309 309 310 310 310 310 306 307 309 310 306 300 300 301 298 301 297 294 296 297 298 299 298 297 299 298 293 294 290 295 294 294 297 294 296 285 286 288 292 292 289 292 291 290 290 289
309 309 309 310 310 310 307 306 309 309 311 307 307 305 301 294 293 289 291 297 298 300 300 301 299 296 290 298 300 300 300 299 298 295 290 290 284 280 283 287 286 284 287 288 289 291 289
309 309 310 310 310 310 306 306 308 308 309 310 308 303 292 287 286 292 300 300 299 299 297 301 299 293 301 304 301 298 294 294 295 295 297 285 282 281 279 283 278 289 293 293 290 291 292
308 309 309 310 310 310 305 307 308 308 309 310 310 305 293 286 291 295 298 298 298 298 297 299 302 303 303 296 286 282 282 283 285 295 294 294 286 283 280 281 285 289 291 288 286 288 294
308 308 309 309 309 309 309 309 309 308 309 311 312 308 298 289 290 302 297 298 290 288 291 297 304 304 299 287 282 275 275 281 284 288 295 291 285 280 282 279 278 284 291 296 295 283 295
307 308 308 308 308 308 308 308 309 308 309 310 310 314 305 292 300 302 295 294 299 292 290 291 297 292 296 287 281 281 279 287 281 277 278 280 283 277 273 278 280 289 294 296 279 283 292
307 307 307 307 307 307 308 308 308 308 308 310 311 315 308 296 301 306 307 301 300 295 288 294 294 290 288 286 284 281 284 283 282 286 283 282 278 281 280 279 279 294 295 287 290 292 296
306 307 306 306 306 306 307 307 307 308 308 309 306 314 313 303 301 309 310 311 309 305 300 296 295 293 291 286 286 281 285 285 280 283 290 285 286 282 283 283 291 294 296 296 298 296 295

GFSGBSN_sfc_thetae_009.txt.gz
Theta_e
318 318 318 317 317 317 317 317 316 315 315 315 315 315 316 316 316 316 316 315 315 316 316 316 316 318 310 302 303 312 324 318 310 309 305 304 302 300 297 297 297 295 295 297 298 298 296
318 318 318 317 317 318 317 316 315 315 315 314 314 315 315 316 316 316 316 315 315 315 315 315 316 317 307 297 310 311 311 312 310 308 306 305 302 303 300 299 296 299 298 298 298 297 297
317 318 318 317 318 317 317 316 315 315 314 314 314 314 314 315 315 315 315 315 315 315 315 315 317 315 308 302 308 309 311 309 308 309 306 305 305 303 301 299 302 300 296 297 297 297 296
317 317 318 318 317 317 317 316 315 315 315 315 315 314 314 314 314 314 314 314 314 315 315 315 316 314 301 312 309 310 310 310 311 310 309 308 307 303 301 301 299 295 292 289 295 296 296
317 316 318 318 317 317 317 316 314 314 314 314 314 314 313 313 313 313 313 313 314 315 315 315 312 307 302 315 308 309 307 306 307 309 309 311 306 299 299 291 289 290 285 287 292 296 296
316 316 317 318 318 317 317 316 314 314 314 314 314 314 313 313 313 312 312 313 315 314 314 314 314 301 306 303 307 307 306 307 304 306 305 303 298 293 291 290 283 286 286 289 288 294 295
315 315 318 318 318 318 318 317 315 313 314 314 314 314 313 313 313 312 311 310 307 302 307 299 299 301 302 307 308 305 305 305 304 301 295 297 292 288 289 291 293 291 289 287 290 294 294
313 315 317 318 318 318 318 317 315 314 313 313 313 313 313 313 312 313 314 310 309 308 297 305 303 303 305 305 301 304 305 300 300 293 295 294 290 294 296 295 293 292 289 288 292 295 294
312 314 316 317 317 317 317 316 315 314 313 313 313 313 313 312 312 313 312 312 320 315 298 301 303 302 303 304 300 300 302 300 297 294 293 291 294 297 295 293 292 290 289 289 290 293 293
311 313 314 316 316 316 315 315 315 314 313 312 312 312 311 313 314 312 310 314 317 312 291 296 300 303 304 303 300 303 303 301 298 293 293 293 295 294 293 292 292 288 293 292 292 289 285
310 312 313 315 315 314 313 313 314 313 313 312 311 312 311 316 312 309 314 317 318 310 279 298 299 305 302 299 299 302 305 301 295 296 294 292 291 292 292 293 294 292 296 293 293 289 287
310 312 313 314 314 313 313 313 312 313 312 312 311 311 312 317 310 310 316 315 313 292 282 295 299 298 299 300 300 303 302 304 302 298 297 295 296 295 294 296 297 298 294 292 291 288 282
311 312 313 314 313 313 313 313 312 312 312 311 310 311 316 319 307 315 316 309 293 283 299 294 295 297 297 295 297 298 297 295 292 287 288 295 295 297 298 294 296 294 289 280 279 278 279
312 312 312 313 313 313 313 312 312 311 311 311 310 313 317 319 317 316 309 298 285 294 294 298 297 297 294 295 296 297 294 292 295 293 289 288 285 295 299 294 291 291 289 280 276 275 279
313 313 312 313 313 312 312 312 312 311 310 310 312 316 310 313 317 316 302 286 286 292 296 295 296 293 293 296 295 294 293 292 294 295 289 287 289 297 298 298 295 292 287 291 282 276 277
313 313 312 312 311 311 311 311 311 311 310 310 313 308 306 315 316 306 294 290 293 298 298 299 291 294 290 293 293 293 292 296 295 298 296 293 287 295 297 298 297 294 295 285 283 274 277
312 312 312 311 311 311 311 311 311 311 310 310 315 299 306 315 312 300 287 287 295 299 300 297 295 294 294 293 293 292 293 296 297 297 298 293 290 289 293 292 290 290 288 289 289 284 280
310 311 311 311 311 311 311 311 310 310 309 313 305 295 307 310 300 293 291 296 298 300 302 300 299 297 295 295 293 293 293 296 299 298 293 294 288 282 288 294 296 294 291 290 283 282 281
310 310 310 311 311 310 310 310 310 309 309 308 303 301 309 306 289 285 296 298 300 299 299 298 297 298 299 294 289 294 295 299 299 297 293 294 285 280 284 288 292 290 291 291 287 282 282
309 309 310 310 311 311 310 309 308 309 309 309 300 292 300 301 298 295 294 295 296 300 299 300 298 299 296 294 295 291 295 299 300 299 300 297 289 284 280 284 288 288 290 291 288 280 282
309 309 309 309 310 310 309 306 308 309 309 309 299 293 299 289 293 296 297 298 295 295 299 300 297 297 294 288 289 290 295 296 298 299 297 293 286 287 288 290 290 291 290 291 289 288 284
309 308 308 309 310 309 305 306 309 309 309 304 300 298 298 297 299 295 292 294 296 297 297 296 295 297 296 292 292 289 294 292 293 295 293 294 283 285 285 290 290 288 290 290 290 290 288
309 308 307 309 310 307 305 305 308 308 310 305 303 302 299 291 290 289 289 295 297 298 298 299 298 294 288 296 299 298 299 298 296 293 289 289 283 281 278 286 284 280 285 287 288 289 288
309 309 309 309 310 306 304 305 307 308 309 308 305 299 292 286 284 290 297 298 297 297 296 298 298 292 297 302 298 295 292 291 291 292 295 284 282 280 276 284 275 287 291 292 289 290 290
308 309 309 310 310 307 304 306 307 307 309 310 307 301 293 285 289 293 297 297 296 297 295 297 300 300 300 294 286 282 282 282 283 294 291 290 285 281 280 280 282 288 290 287 285 286 292
308 308 309 309 309 309 308 308 308 308 308 311 308 302 297 289 290 299 296 296 288 287 289 295 302 301 296 284 281 275 275 280 283 286 292 288 282 280 281 279 277 284 289 293 293 283 293
307 308 308 308 308 308 308 309 308 308 308 310 309 308 302 290 297 300 293 292 296 290 289 289 294 291 294 286 281 276 278 285 280 277 278 279 283 279 278 278 280 288 291 293 281 284 291
307 307 307 307 307 307 308 308 308 308 308 310 308 311 305 294 299 304 304 299 298 294 288 294 292 289 288 285 279 280 274 281 281 285 282 281 279 277 279 279 276 292 293 286 291 291 294
306 307 306 306 306 306 307 307 308 308 308 309 306 311 310 302 301 307 309 308 305 303 298 294 294 292 290 287 285 279 282 283 283 283 288 284 286 282 283 283 290 292 294 295 296 293 292

GFSGBSN_sfc_thetae_012.txt.gz
Theta_e
318 317 317 317 317 318 318 318 316 315 315 315 315 315 316 315 314 315 315 315 316 316 316 316 317 317 309 300 301 309 322 318 310 309 304 303 301 299 296 296 296 294 294 296 296 297 294
317 317 317 318 318 318 318 317 315 315 315 314 314 315 315 315 316 316 316 315 315 315 316 316 317 317 304 297 308 309 309 310 307 307 304 303 301 301 299 297 296 297 296 296 296 295 296
317 317 317 318 318 317 317 316 315 315 314 314 314 314 314 315 315 315 315 315 315 315 315 316 316 314 303 301 307 308 310 307 306 307 305 303 303 301 299 297 300 298 294 294 296 295 294
316 317 317 318 317 317 317 316 314 314 314 314 314 314 313 314 314 314 314 314 314 315 315 316 316 311 300 310 309 308 307 305 307 308 307 306 305 302 299 299 296 292 290 287 294 295 293
316 316 318 318 317 317 317 316 314 314 314 314 314 314 313 313 313 313 313 313 314 315 315 315 310 306 299 313 307 307 305 303 305 307 308 309 304 297 296 290 288 289 284 286 290 295 295
316 316 318 318 317 317 317 316 315 314 314 314 314 314 313 313 313 312 312 313 314 313 313 312 310 299 304 301 304 306 304 305 303 304 303 301 296 292 291 289 282 284 284 288 286 293 294
314 315 318 318 318 318 318 317 315 314 313 314 314 314 313 313 312 312 310 308 303 301 304 297 298 299 300 305 305 304 303 303 302 299 293 296 292 287 288 289 290 289 287 286 288 292 293
313 315 317 317 318 317 317 316 315 314 314 313 313 313 313 313 312 312 310 309 306 306 295 302 301 301 303 303 300 303 304 299 298 292 293 293 288 292 294 293 291 290 287 286 291 293 292
311 313 315 317 317 317 316 316 314 314 313 313 313 313 313 312 312 312 311 311 319 312 295 299 301 301 301 303 298 300 301 299 295 292 292 290 291 296 294 292 292 289 287 287 289 291 291
310 312 314 316 316 316 315 314 314 314 313 312 312 312 312 312 312 310 308 313 316 307 290 294 299 301 302 301 297 302 303 299 297 291 292 292 294 293 293 291 291 287 291 291 290 288 284
310 312 313 314 315 314 313 313 313 313 313 312 311 312 313 314 312 309 312 316 316 306 277 296 298 303 302 298 297 302 304 300 294 294 293 289 290 292 292 291 293 291 294 291 291 287 286
310 312 313 314 314 313 313 313 312 312 312 312 311 312 312 314 309 308 315 311 310 289 280 293 298 297 297 298 299 301 301 302 300 296 296 293 295 294 293 294 294 296 292 290 289 287 281
310 312 313 313 313 313 313 312 312 311 311 311 311 314 316 316 305 313 313 307 291 282 297 292 293 296 295 294 297 297 295 293 291 286 287 293 293 297 296 293 295 294 287 279 278 278 278
312 312 312 313 313 313 312 312 311 311 311 311 311 314 315 316 314 313 307 297 284 292 292 296 295 295 292 293 294 295 293 290 294 292 287 287 283 293 298 292 289 290 288 279 275 274 278
313 312 312 312 312 312 312 312 311 311 310 310 313 311 308 312 315 310 301 285 285 291 294 294 295 291 291 295 294 293 291 291 293 294 288 286 287 296 296 296 294 290 286 290 282 275 276
312 312 312 311 311 311 311 311 311 311 310 311 313 303 306 313 313 304 293 289 291 296 296 296 290 292 288 292 291 291 290 294 293 296 295 291 286 292 295 296 296 293 294 284 282 273 275
311 312 312 311 311 310 311 311 310 310 310 311 310 298 306 313 308 298 287 286 293 298 299 296 293 292 292 291 292 290 291 294 295 295 296 291 288 287 291 290 288 290 287 288 287 283 275
310 310 310 310 311 311 310 311 310 310 309 311 301 293 307 309 297 291 289 294 297 298 301 298 297 295 293 293 292 291 291 294 297 296 292 292 287 281 286 291 294 291 289 288 279 279 280
309 310 310 309 310 310 310 308 306 308 309 307 301 300 307 306 288 284 294 297 298 297 297 296 295 297 297 292 288 292 294 298 298 296 292 292 285 279 282 287 290 289 290 289 285 283 283
309 309 309 309 310 310 308 306 307 309 309 305 299 293 299 300 296 294 293 293 294 299 297 298 297 298 295 292 294 291 293 297 299 297 299 296 287 283 279 283 286 285 288 289 287 283 283
309 309 309 308 309 309 305 306 309 309 309 306 298 294 297 289 292 295 295 295 294 293 297 298 296 295 293 287 289 289 293 295 296 298 295 293 286 286 287 289 288 289 288 289 286 286 284
308 309 308 308 307 307 305 305 306 308 309 303 299 297 297 294 297 293 291 292 295 295 295 294 294 295 295 290 291 289 293 291 291 294 291 292 283 284 283 286 287 284 288 289 288 288 288
308 308 307 307 308 306 305 305 306 308 309 304 301 300 299 290 288 288 288 294 295 297 297 297 297 293 288 295 297 297 297 296 294 291 289 288 282 281 277 283 283 277 283 286 287 289 287
308 309 307 308 310 305 305 306 307 308 309 306 303 298 291 286 283 290 295 296 295 295 294 296 296 290 296 300 297 294 291 289 290 290 293 284 280 280 276 283 272 286 290 291 288 289 290
308 308 309 309 310 306 305 306 307 308 309 308 304 300 292 285 288 291 295 295 295 296 294 296 299 298 298 293 286 282 282 281 282 290 289 289 284 282 281 281 281 288 288 286 284 285 290
307 308 308 309 309 308 309 308 307 308 309 310 306 300 296 289 289 297 295 294 287 286 288 293 299 299 295 283 281 275 275 280 282 284 289 287 282 279 281 278 275 284 288 290 292 282 291
307 307 308 308 308 308 308 309 308 308 308 310 307 305 300 289 295 298 291 292 294 289 288 287 293 290 293 283 278 275 278 284 279 276 275 279 282 278 279 279 282 288 290 292 281 284 290
307 307 307 307 307 307 307 309 308 308 308 310 307 308 304 292 296 301 301 297 296 292 287 292 291 288 288 285 280 281 273 281 281 284 281 281 277 275 278 279 276 290 290 286 291 291 293
306 306 306 306 306 306 307 307 308 308 308 308 306 308 307 300 298 303 305 304 302 300 297 291 293 291 289 286 284 279 278 281 282 280 286 281 285 284 286 282 289 293 294 294 294 292 292

GFSGBSN_sfc_thetae_018.txt.gz
Theta_e
317 318 318 317 318 319 319 319 318 317 316 315 315 316 316 316 315 316 316 315 315 316 317 317 318 318 319 312 310 318 323 322 319 318 315 313 310 308 303 306 307 305 305 306 306 305 305
317 318 318 318 318 318 318 317 317 316 315 315 315 315 315 316 316 315 315 316 315 316 316 317 318 317 317 305 317 319 316 317 318 318 315 315 312 312 308 307 306 307 307 306 306 306 306
317 318 317 318 318 318 317 317 316 315 315 315 315 314 315 315 316 316 316 316 315 315 316 317 317 320 313 309 319 319 316 316 316 317 314 315 314 312 312 308 309 307 304 306 305 306 305
317 317 317 318 317 317 317 317 315 315 315 315 315 314 314 314 315 315 315 314 314 315 316 316 316 321 309 317 320 316 316 315 317 318 317 316 316 312 310 309 306 303 304 300 304 306 306
317 316 318 318 317 317 317 316 315 314 314 314 314 314 314 313 313 313 313 313 314 315 316 316 320 316 306 318 312 315 315 312 314 316 316 313 313 309 307 305 301 301 297 297 300 305 305
316 316 318 318 318 317 317 316 315 314 314 314 314 314 314 313 313 313 312 314 315 316 317 318 314 310 310 307 312 312 314 314 312 313 312 311 311 306 306 303 295 296 296 297 297 302 303
314 315 317 318 318 318 317 316 315 314 314 314 315 314 313 313 313 312 315 322 313 311 313 307 307 306 308 312 314 312 312 312 312 310 305 307 305 300 301 302 301 299 298 297 299 302 302
312 314 316 317 318 317 317 316 315 314 314 314 314 315 314 313 313 313 322 316 314 316 305 309 308 308 310 311 308 312 316 308 307 302 305 303 299 301 303 302 300 299 297 297 300 301 302
311 313 315 317 317 316 316 315 315 314 314 313 313 314 314 313 312 320 324 321 327 322 306 306 308 308 308 312 307 308 311 308 305 302 302 300 300 301 301 301 300 300 297 297 297 301 302
311 313 314 316 316 315 315 314 314 314 313 313 313 313 313 312 316 322 319 323 329 320 301 300 304 307 309 309 305 312 312 307 304 301 302 300 302 301 301 299 301 296 300 300 299 298 296
311 312 313 314 314 313 313 313 313 313 313 313 312 314 312 313 324 318 321 328 330 321 290 301 304 312 311 306 306 308 312 310 302 301 302 297 300 300 299 299 302 299 302 300 299 299 298
311 313 313 314 313 313 313 313 312 312 312 312 313 314 313 320 328 323 328 326 325 303 288 298 304 303 304 306 305 308 308 311 307 304 304 301 305 304 302 302 302 303 300 300 301 300 293
311 312 313 313 313 313 313 312 312 311 311 312 313 314 321 324 319 328 329 322 301 294 301 297 299 303 303 301 303 304 303 302 300 296 297 300 301 304 305 301 304 303 299 294 292 292 291
312 312 312 313 313 312 312 312 311 311 311 313 312 315 317 324 329 328 324 312 293 297 297 301 301 302 299 301 301 302 300 299 303 301 298 295 293 301 304 301 299 299 299 293 284 288 291
312 312 312 312 312 312 312 311 311 311 310 311 313 324 325 326 328 326 316 303 297 299 301 300 301 298 298 300 301 301 300 299 301 303 297 295 294 302 302 303 302 299 296 299 292 287 290
312 312 311 311 311 311 311 310 308 308 310 311 320 321 321 325 325 322 312 296 299 302 303 302 297 299 296 298 298 299 298 300 299 303 304 299 293 299 301 303 304 301 301 295 297 286 282
311 311 311 309 309 310 310 307 308 308 310 311 320 312 320 325 322 315 304 300 301 304 305 302 300 299 299 298 299 298 297 300 302 302 304 300 297 295 299 298 297 299 298 296 296 294 287
310 310 310 307 308 310 307 308 308 309 310 316 318 308 321 324 309 307 303 302 300 304 306 305 305 303 301 300 299 298 298 300 303 304 299 301 298 292 293 299 302 300 297 295 291 285 291
309 310 309 308 308 308 307 307 308 308 310 321 315 314 320 320 305 304 303 302 304 303 303 303 302 304 304 300 297 300 300 303 304 303 301 302 296 289 290 296 299 297 298 297 295 293 289
309 309 309 308 309 307 307 307 308 308 310 320 315 309 313 313 309 305 303 301 301 305 303 305 303 305 303 300 302 299 300 303 304 304 299 302 297 292 287 290 294 292 294 295 294 289 290
309 309 309 307 308 307 307 307 307 308 309 319 314 309 308 306 305 306 305 303 301 300 304 305 302 302 301 298 298 298 301 301 302 300 303 303 293 295 295 295 295 294 293 294 292 294 289
309 309 307 307 307 306 306 306 307 308 309 316 312 309 309 305 305 305 300 303 301 301 302 301 301 302 302 298 298 297 299 299 298 302 301 301 294 293 290 294 294 292 294 294 294 295 295
309 309 307 307 307 306 307 306 308 308 311 318 313 311 314 298 302 305 303 303 302 305 303 305 305 303 300 302 305 306 306 305 303 300 298 298 296 291 288 291 291 288 292 293 295 296 295
308 307 306 306 306 305 306 307 307 308 312 320 315 313 312 302 304 303 303 304 303 303 303 304 305 303 304 308 307 305 302 301 301 300 302 293 293 290 288 288 284 292 298 297 295 296 297
308 307 307 308 307 306 307 307 307 307 309 318 314 313 308 290 304 302 304 303 304 305 303 304 304 305 309 306 301 294 293 291 292 297 297 299 295 288 285 286 290 293 294 294 293 293 299
307 308 308 309 309 309 308 307 307 307 310 318 315 312 312 295 303 304 304 305 303 303 303 303 305 307 307 303 297 288 290 289 290 291 296 295 295 294 287 283 282 292 296 298 298 289 299
307 307 308 308 309 309 308 308 307 308 309 320 317 316 314 309 306 306 305 305 306 305 304 304 304 302 306 298 290 292 292 292 289 288 287 287 288 287 287 285 289 297 297 299 287 291 299
306 306 307 307 308 308 308 308 307 307 307 319 317 317 316 306 307 309 307 306 305 307 304 304 304 302 299 291 289 292 289 294 291 292 290 290 289 286 286 282 282 298 297 291 298 301 301
305 306 306 306 307 307 308 308 307 306 307 313 317 317 316 314 309 313 314 313 312 310 308 306 304 303 306 298 293 292 287 287 292 290 296 290 295 293 292 293 301 302 301 303 304 301 298

GFSGBSN_sfc_thetae_021.txt.gz
Theta_e
316 317 318 318 318 319 319 319 318 317 318 317 317 316 317 317 316 316 316 316 316 316 317 317 318 319 322 315 311 320 324 326 322 320 316 313 310 309 304 306 306 304 305 306 306 306 306
317 318 318 318 318 319 319 319 318 317 317 316 316 316 316 317 317 316 316 316 316 316 317 317 318 317 320 308 319 321 319 319 320 318 314 314 312 312 307 307 307 308 308 308 308 307 307
317 317 318 317 319 319 318 318 317 316 316 316 316 316 316 316 317 317 317 316 316 316 317 317 318 321 318 311 320 320 318 318 319 319 314 316 316 312 312 308 311 309 305 307 308 309 307
317 317 317 318 318 318 318 318 317 316 316 316 316 315 315 315 316 316 316 315 315 316 317 317 317 323 311 319 322 317 318 317 320 321 319 319 318 315 312 313 308 305 306 302 306 308 308
317 317 316 318 318 317 317 317 316 315 315 315 315 315 315 314 314 314 315 314 315 316 317 318 322 323 308 316 314 316 317 314 317 319 318 316 317 312 311 306 303 304 299 299 302 307 306
316 316 317 319 318 318 318 317 315 314 314 314 314 315 315 314 314 314 314 314 315 316 318 321 320 312 311 308 313 315 318 317 315 316 314 313 312 308 307 304 297 298 298 299 299 304 304
316 314 316 318 318 318 318 317 315 314 314 314 314 315 315 315 315 314 315 321 315 315 315 310 309 308 309 313 317 314 316 315 315 313 307 309 306 303 303 304 303 301 300 299 302 304 303
315 313 315 317 318 317 317 316 315 314 314 314 315 315 314 314 314 314 323 319 318 318 306 311 311 312 313 315 308 312 318 311 310 305 307 304 302 304 305 304 302 302 300 300 302 304 303
314 312 315 317 317 317 316 316 315 314 314 314 314 315 315 314 313 320 326 323 329 325 307 307 310 310 310 313 308 309 314 310 306 303 303 303 303 304 304 303 302 302 300 300 299 303 305
313 312 314 316 316 316 315 315 314 314 314 314 314 315 313 312 316 328 322 327 332 328 303 301 305 308 311 312 306 314 314 310 306 302 304 303 305 303 303 301 303 299 303 302 301 300 297
312 312 314 315 315 314 313 314 313 313 314 314 314 316 312 313 325 319 324 332 335 328 292 303 305 315 311 308 308 309 315 311 304 303 305 301 302 302 301 301 304 301 305 302 302 301 300
312 312 314 314 314 313 313 313 312 313 313 313 314 315 313 321 332 326 331 333 331 306 290 300 306 306 306 308 307 310 310 313 311 305 306 304 307 306 304 305 304 306 304 303 303 302 294
311 312 313 314 314 313 313 312 312 312 313 314 314 315 316 328 321 332 335 326 301 296 303 299 302 305 305 304 304 306 305 305 303 299 299 302 303 306 307 303 306 305 302 295 293 294 293
312 313 313 314 313 313 313 312 311 311 313 314 314 316 322 330 334 333 327 310 296 299 300 304 304 304 301 304 303 304 303 302 305 304 302 298 295 303 306 303 300 301 301 295 286 290 293
313 313 313 313 313 312 311 309 309 311 312 313 313 331 329 332 335 332 315 303 300 301 303 302 303 300 300 302 303 303 303 301 303 305 300 298 297 304 305 306 305 301 298 301 295 293 292
313 313 312 310 310 311 309 308 309 309 311 313 322 321 322 332 335 327 312 300 302 305 305 305 299 302 298 300 301 302 301 303 302 305 307 301 296 301 303 305 306 303 304 297 298 287 284
312 312 311 308 308 310 308 308 308 310 311 313 322 312 326 334 329 314 305 303 303 307 307 304 301 300 302 300 302 300 300 302 304 304 306 302 299 298 300 300 298 301 300 298 297 295 288
310 311 310 308 309 308 308 308 308 309 310 313 320 309 327 330 309 312 306 305 303 306 309 307 307 304 303 303 301 301 300 303 306 306 301 303 300 294 295 301 304 302 299 298 292 288 293
310 310 310 308 309 308 308 308 308 309 310 326 314 315 327 326 307 309 307 305 307 306 306 306 304 306 307 303 299 302 303 306 306 306 303 304 299 292 294 298 302 298 300 298 296 295 289
309 310 309 308 309 308 308 308 308 309 311 323 316 310 314 317 315 308 305 304 303 308 306 307 306 308 306 303 305 302 302 305 307 307 300 304 299 294 290 293 297 294 296 297 296 291 291
309 310 309 308 308 307 308 308 308 309 310 322 318 312 313 307 309 309 309 306 303 301 307 308 305 305 304 300 302 301 304 304 305 300 304 304 295 297 297 297 296 295 295 296 294 295 291
309 309 308 308 308 307 307 307 308 309 309 323 313 312 315 313 311 309 303 305 303 303 305 303 304 305 305 301 300 299 301 301 300 304 303 303 296 296 293 296 296 293 295 296 296 296 296
309 308 307 307 308 307 307 308 308 308 311 322 321 321 317 303 309 307 306 306 305 307 306 307 307 305 303 304 308 309 308 306 305 302 300 300 298 293 289 295 293 289 294 295 296 297 296
309 308 307 308 307 307 307 308 307 308 311 325 322 320 315 306 309 307 306 307 306 306 305 308 308 306 308 312 311 309 307 304 305 304 305 299 296 293 289 289 284 296 300 299 297 297 299
307 307 307 310 306 307 308 308 307 308 310 323 321 319 313 295 309 306 307 307 308 309 307 307 308 311 314 309 303 296 294 291 295 300 300 302 298 290 287 288 292 295 296 296 294 294 300
307 306 307 310 310 309 309 308 307 308 310 323 321 322 318 300 307 309 308 309 307 307 306 306 310 313 312 308 299 289 291 292 292 294 299 298 300 296 289 285 283 294 299 300 300 290 302
307 308 309 310 310 309 309 308 308 307 309 324 322 324 318 314 311 311 309 308 311 309 307 308 307 306 311 301 292 293 293 296 291 289 287 289 290 289 288 286 291 298 300 302 289 292 302
306 307 308 308 309 309 309 308 306 306 308 320 322 323 320 312 311 313 312 310 310 310 306 309 306 307 306 293 293 296 292 297 294 296 293 290 289 287 289 285 283 301 299 293 300 303 301
306 306 307 307 308 308 309 309 307 307 308 311 320 323 323 318 314 319 317 317 316 314 312 311 307 307 308 303 298 297 289 291 294 291 299 292 296 294 294 294 303 303 301 305 304 303 301

GFSGBSN_sfc_thetae_024.txt.gz
Theta_e
316 316 318 318 318 318 319 320 319 317 316 317 318 317 317 317 318 317 316 316 316 317 317 317 318 319 320 315 311 319 325 328 321 321 317 314 311 309 304 305 306 303 303 304 305 305 306
317 317 318 318 318 318 320 320 319 318 317 317 317 316 316 317 318 317 315 316 316 316 317 317 318 318 319 308 319 320 319 319 319 317 314 314 311 311 306 305 305 306 305 305 306 306 306
317 318 318 318 318 319 319 318 318 318 317 317 317 316 316 316 317 317 317 316 316 317 317 318 318 320 318 312 319 320 319 317 319 318 315 316 315 310 310 307 310 308 304 306 306 307 305
317 317 317 317 318 318 318 318 318 318 317 317 317 316 315 316 316 316 316 316 316 316 317 318 318 321 313 319 320 317 318 316 318 319 318 317 317 314 312 312 307 304 305 300 305 307 308
317 317 317 317 318 318 318 318 318 317 316 316 317 316 315 315 315 315 315 315 315 316 317 318 319 320 311 318 313 316 317 314 316 318 318 317 316 310 309 304 301 303 297 300 302 307 307
317 317 316 317 319 318 318 318 317 316 315 315 316 316 315 315 315 314 314 314 316 316 318 322 322 314 312 309 313 314 317 317 314 315 313 312 311 306 306 303 295 297 298 299 299 304 303
316 316 314 317 318 319 318 318 317 316 315 315 316 316 316 315 315 314 313 318 314 313 317 310 309 309 309 312 314 313 316 315 315 312 306 309 304 301 302 303 302 301 299 298 302 305 302
315 315 314 316 318 318 317 317 316 315 315 315 315 316 315 315 315 315 319 318 319 319 307 312 311 311 313 315 308 311 317 310 308 304 307 303 300 304 305 304 302 301 300 299 303 304 302
315 313 313 316 317 317 317 316 315 315 315 315 315 316 316 314 314 317 322 323 328 327 307 307 311 309 310 314 308 308 313 311 306 304 303 301 303 305 303 302 301 302 299 300 299 302 304
315 313 313 315 316 316 315 315 314 315 315 315 315 316 315 313 315 326 322 326 330 330 301 300 305 308 311 312 306 313 314 310 305 302 303 303 305 303 302 301 302 298 304 302 300 299 294
315 312 313 315 315 314 314 314 314 314 314 315 315 317 312 312 325 319 325 330 332 328 292 303 305 315 311 308 308 308 314 310 304 303 304 301 302 302 301 302 303 300 304 302 301 299 299
314 312 313 314 314 314 314 313 313 313 314 315 316 316 313 318 331 327 331 333 330 305 292 300 306 306 305 307 307 310 309 313 312 304 306 304 307 306 304 305 304 305 304 303 302 300 294
313 313 314 314 314 314 313 312 312 313 315 315 315 314 316 330 323 333 336 325 300 296 303 299 301 305 304 303 305 306 305 304 303 298 299 302 303 306 306 303 306 305 300 295 293 293 292
312 313 314 314 314 313 312 309 309 312 314 316 316 315 323 331 332 336 328 310 296 300 299 304 304 304 301 304 303 304 303 301 305 304 300 297 295 302 306 303 300 301 299 296 286 288 291
312 313 313 313 313 312 310 309 309 311 313 316 314 333 331 335 337 335 316 302 300 300 304 302 303 300 300 303 303 303 303 301 302 305 299 297 297 304 305 305 304 300 298 301 295 293 291
313 313 313 311 308 311 308 308 309 310 312 315 322 322 323 334 337 327 312 302 304 306 305 304 298 302 298 300 300 302 301 303 302 305 306 300 296 301 302 304 306 301 302 295 299 287 284
313 313 312 308 308 308 308 308 308 310 311 314 327 312 327 335 332 314 305 306 304 307 308 303 302 300 302 300 302 301 301 303 305 304 306 302 299 298 301 300 297 299 298 298 297 295 287
311 311 310 308 308 308 308 308 308 309 311 316 327 306 330 334 307 309 306 306 303 306 309 307 307 304 303 303 301 301 300 304 306 306 300 301 299 296 295 301 303 301 298 298 294 289 294
310 310 310 309 308 307 308 308 308 309 310 325 313 316 328 328 305 311 308 306 307 305 306 306 305 306 307 304 299 303 303 306 307 306 303 303 300 293 293 298 302 297 299 298 297 295 289
309 310 310 309 308 307 307 308 308 309 311 320 318 309 312 315 316 308 306 304 304 309 307 308 306 308 305 303 305 302 302 305 308 305 302 304 299 295 291 293 296 293 295 297 296 291 291
309 310 309 308 308 307 307 308 309 309 311 320 319 311 311 305 308 309 308 306 303 302 308 308 305 305 304 300 302 301 304 304 305 301 304 304 296 297 297 296 296 295 294 295 293 294 289
309 309 308 308 307 308 307 308 309 309 309 320 314 312 314 311 311 308 304 305 304 304 305 303 303 305 306 303 302 300 303 302 301 304 303 304 297 297 293 296 295 292 294 295 295 295 295
309 308 308 308 307 307 307 308 308 309 311 323 321 322 316 306 309 309 307 306 305 307 307 308 307 306 303 306 308 308 308 307 305 303 301 301 299 294 289 293 292 290 295 295 296 297 296
309 308 307 309 307 307 308 308 308 308 310 327 324 321 316 307 309 306 307 308 306 307 305 308 309 306 309 311 310 308 306 305 304 304 305 299 296 293 288 289 283 295 299 299 296 297 298
308 306 307 310 306 309 309 308 308 308 310 326 323 322 314 294 310 307 307 307 309 309 307 308 309 311 313 309 304 295 295 292 295 301 301 303 298 290 288 288 291 294 297 296 294 293 300
306 306 307 309 310 310 309 308 307 308 310 325 323 327 321 302 309 310 307 309 307 307 306 306 311 315 312 309 299 291 292 294 292 294 300 300 302 295 289 283 282 295 299 302 300 289 301
307 306 309 310 310 309 309 308 306 307 309 323 322 328 322 315 313 314 310 309 311 310 307 307 307 307 312 300 290 295 294 296 291 289 288 289 291 289 288 285 290 298 301 302 288 291 301
307 308 309 309 310 310 309 308 306 308 309 319 322 327 323 314 313 315 314 312 311 312 307 309 306 308 308 291 293 297 291 297 296 296 291 289 288 286 288 286 283 301 300 292 299 303 301
306 307 308 308 309 310 310 309 308 308 309 311 320 325 328 319 315 321 318 318 316 316 313 313 307 308 308 301 299 300 289 290 293 292 299 293 297 295 293 293 302 303 302 304 304 300 299

GFSGBSN_sfc_thetae_027.txt.gz
Theta_e
317 317 317 318 319 319 319 320 320 318 318 317 316 317 318 318 318 318 317 315 316 317 317 317 318 319 316 313 310 315 329 327 322 316 314 313 308 303 299 299 300 297 298 300 300 301 300
317 318 318 319 319 318 319 320 319 318 317 317 317 317 317 316 317 317 316 315 316 316 316 317 318 318 314 305 317 315 314 315 316 315 314 312 307 306 303 301 299 300 299 299 298 299 301
317 318 318 318 318 318 319 318 318 318 318 317 317 316 316 316 316 316 317 316 316 315 317 318 318 317 315 314 313 312 314 312 313 313 311 311 310 306 305 302 305 302 298 299 299 300 299
317 317 318 318 317 317 318 317 318 318 317 317 317 316 315 315 315 315 315 315 315 316 316 317 318 315 311 319 311 314 312 311 314 315 314 313 313 309 306 304 302 298 297 292 299 301 301
318 317 317 318 317 318 317 318 318 318 317 316 316 316 315 314 314 314 314 314 315 316 317 317 314 315 308 316 310 312 310 311 313 314 314 314 309 305 303 297 293 294 290 294 296 302 301
317 317 317 316 317 318 318 318 317 317 316 316 316 315 315 314 314 313 313 314 315 315 316 317 318 309 314 308 310 310 310 314 311 312 310 307 304 299 297 294 289 291 293 296 294 296 296
317 317 317 316 317 318 318 318 317 316 315 316 315 315 315 314 314 313 310 310 308 308 313 307 307 310 307 309 310 308 311 311 310 308 300 304 297 293 294 297 298 297 295 293 295 299 295
317 316 315 315 317 318 318 318 316 315 315 316 316 315 315 315 314 314 310 314 314 312 303 313 310 309 311 311 305 308 312 306 305 300 303 298 294 299 301 300 299 298 296 295 296 300 297
316 315 314 315 316 317 317 316 315 315 315 315 315 315 314 314 313 311 313 317 322 321 301 306 310 307 310 311 306 304 309 307 303 300 300 296 298 304 302 300 298 298 296 295 295 298 297
315 315 313 315 316 316 315 315 315 315 315 315 315 314 314 312 311 318 313 321 324 323 294 300 304 306 309 309 304 309 309 307 303 299 300 298 302 302 300 299 299 295 301 300 298 294 288
315 314 312 314 315 314 314 314 314 314 315 316 315 315 312 314 313 317 319 324 323 318 282 301 304 309 307 306 305 305 307 307 301 300 301 297 299 300 299 299 301 298 302 299 298 293 291
314 313 313 314 314 314 313 313 313 313 314 315 315 315 312 313 313 323 327 327 318 297 283 300 304 303 301 305 306 305 306 308 307 301 301 299 304 301 300 303 302 302 300 299 298 294 284
313 311 313 314 313 313 313 310 310 312 313 314 314 313 314 322 318 325 326 317 292 287 302 296 299 303 302 301 302 303 301 299 297 293 293 298 300 302 304 299 302 300 294 285 284 283 283
312 311 313 314 313 313 311 309 308 311 313 315 314 313 320 328 329 328 321 303 288 299 297 302 301 302 299 301 301 302 300 296 300 301 296 293 290 298 303 299 296 297 295 284 281 280 284
312 311 312 313 310 310 308 309 308 310 312 314 315 321 323 326 329 324 310 293 295 299 302 300 301 297 297 302 301 300 298 297 298 300 295 294 293 301 302 302 300 296 291 296 289 285 281
312 312 312 311 308 309 307 308 308 310 311 314 316 317 318 326 327 319 304 297 301 304 304 302 296 299 294 297 298 298 298 301 300 302 302 297 291 299 301 301 303 298 299 288 288 280 280
312 312 312 309 308 308 307 308 308 309 311 313 317 305 319 328 322 307 295 301 304 306 307 303 300 298 300 297 298 298 298 301 303 302 300 298 295 293 297 295 293 295 293 294 293 287 280
311 311 310 309 308 308 307 308 308 308 311 314 314 299 322 325 299 301 298 305 301 304 308 306 305 302 301 300 299 298 298 301 304 303 297 298 294 284 292 298 300 296 295 295 282 284 283
310 310 310 309 308 307 307 307 308 309 310 317 307 309 321 321 292 293 304 305 305 303 303 304 303 305 304 301 295 301 300 305 305 302 298 299 292 283 288 294 298 294 296 297 294 286 283
309 309 310 309 308 307 307 307 308 309 311 314 311 298 307 310 308 303 302 301 302 307 306 306 304 305 302 300 302 299 299 305 305 302 301 301 296 289 283 288 292 289 292 293 292 281 283
309 309 309 307 307 307 307 307 309 309 310 314 313 304 304 294 298 302 304 303 301 301 306 306 302 303 301 293 298 298 301 302 304 301 302 299 290 293 294 293 293 292 291 291 290 290 283
309 309 308 307 306 307 307 308 308 309 309 313 310 308 305 301 302 302 300 301 302 303 303 301 300 303 302 298 299 297 300 299 298 300 299 300 287 287 286 293 292 289 291 292 292 292 291
309 308 307 307 306 307 308 308 308 308 311 313 314 315 310 302 298 298 299 303 304 304 305 307 304 301 296 301 302 302 302 301 301 298 296 295 287 283 281 289 287 281 289 293 293 294 292
309 308 307 308 306 308 309 308 308 308 311 320 317 315 302 293 301 302 305 305 304 304 301 306 306 300 304 306 302 300 298 298 301 299 303 290 287 283 277 280 272 292 296 296 294 294 295
308 307 307 308 306 310 308 308 308 308 309 318 317 316 302 289 303 304 303 304 305 305 303 304 306 307 307 304 292 286 286 284 290 298 297 299 286 279 280 279 285 291 295 293 289 290 297
306 306 307 307 309 309 308 306 306 308 309 318 316 318 310 295 297 309 303 304 299 298 300 302 308 309 308 291 284 280 280 286 286 292 296 297 290 283 277 276 272 287 296 299 297 282 297
305 306 309 310 309 309 308 305 306 308 309 318 315 318 316 301 307 308 302 301 306 302 297 301 301 299 305 286 285 283 283 292 285 284 281 281 285 281 276 275 282 294 298 299 282 284 297
305 307 308 309 309 309 308 307 308 308 309 316 314 319 315 303 306 312 312 306 306 304 294 301 296 296 290 289 285 284 283 285 286 291 286 282 280 280 283 281 276 298 297 287 292 297 296
307 307 308 308 309 310 308 308 308 308 309 311 312 319 320 311 308 313 312 314 312 312 306 303 299 302 299 291 287 288 285 288 285 281 294 285 288 284 286 284 294 298 297 299 299 296 295

GFSGBSN_sfc_thetae_030.txt.gz
Theta_e
319 319 318 317 318 319 319 319 319 319 318 317 317 317 317 318 318 318 317 316 315 316 316 317 317 318 314 310 307 315 328 328 322 315 311 310 308 303 298 298 296 295 296 298 299 300 297
318 318 317 318 318 318 318 319 319 318 317 317 317 317 316 317 317 317 316 316 314 315 316 316 318 317 311 303 316 313 315 319 314 312 311 311 308 306 301 299 297 298 297 297 297 297 299
318 318 318 318 318 318 318 318 318 317 317 317 317 316 316 316 316 316 316 316 315 315 315 317 318 316 313 310 316 315 311 310 310 312 309 309 308 305 304 300 300 298 294 296 295 297 295
318 318 317 318 317 316 316 317 317 318 318 317 317 316 315 315 314 314 314 314 314 315 316 317 317 314 306 318 312 311 309 309 312 312 312 310 309 306 303 302 300 297 295 291 296 298 299
317 318 317 318 317 316 316 317 317 317 317 316 315 315 314 314 313 313 313 313 314 315 316 316 312 311 302 319 308 310 309 309 311 311 311 311 308 303 301 294 291 293 288 291 294 299 297
318 318 318 317 316 316 317 317 317 316 316 315 315 315 314 314 313 312 312 313 315 314 314 316 316 306 312 309 308 308 308 311 309 308 307 305 301 297 295 293 287 290 289 293 292 295 295
318 318 318 317 316 317 318 318 317 315 315 315 315 315 314 313 313 313 309 307 305 306 310 302 305 308 308 309 308 305 308 308 307 305 298 302 296 291 293 294 296 295 292 292 292 296 294
317 317 317 316 315 317 318 318 316 314 314 315 314 314 314 314 313 313 308 310 310 311 300 309 311 310 312 307 303 305 309 303 303 298 301 296 292 297 299 300 298 297 294 292 295 299 295
316 316 316 315 315 317 317 316 315 314 314 314 314 314 313 313 313 310 308 313 319 318 304 303 308 306 307 309 304 302 307 305 301 298 297 294 296 301 301 298 297 296 294 293 293 295 295
315 315 314 313 315 316 315 315 314 314 314 314 313 313 312 312 308 311 307 314 318 315 291 298 302 304 307 307 302 306 307 304 302 297 298 296 300 300 299 297 296 293 299 297 295 291 286
314 314 313 312 314 314 313 313 313 314 314 314 313 313 311 312 309 314 318 324 322 312 279 298 302 307 304 304 303 303 305 305 299 298 298 295 297 298 297 297 298 296 299 297 296 291 289
314 313 312 312 313 313 313 312 311 312 312 313 313 313 311 310 309 318 323 323 310 294 281 297 302 301 299 303 302 303 303 306 305 300 298 297 301 299 298 300 300 300 298 297 295 292 283
313 312 311 312 312 313 312 309 309 309 312 313 312 313 311 319 316 322 321 306 290 285 299 295 296 299 299 298 300 300 299 298 295 291 291 297 298 300 301 297 300 297 293 283 283 281 282
312 311 311 312 312 312 309 308 308 307 311 312 311 311 313 323 325 321 313 298 287 297 296 299 300 300 296 299 299 300 297 294 298 299 293 291 288 296 301 297 294 294 293 282 280 279 282
312 310 311 312 309 309 307 308 308 309 311 312 312 314 319 321 324 318 304 290 292 297 299 298 299 295 295 299 298 298 295 295 296 297 293 291 291 298 299 299 298 294 289 294 287 283 280
312 310 311 310 307 308 307 308 308 309 311 312 313 313 312 322 321 310 301 294 299 302 302 300 294 297 292 295 295 296 295 299 297 299 300 296 289 297 299 300 300 295 297 288 285 279 279
311 311 311 308 307 307 307 307 308 308 310 311 313 301 310 323 312 302 293 297 303 304 305 300 298 296 296 295 296 296 296 299 301 300 298 296 293 291 297 293 291 292 291 291 290 284 279
310 310 310 308 308 307 306 307 307 308 310 311 308 296 315 312 294 296 295 302 302 302 305 303 303 301 297 297 297 297 296 298 303 302 294 296 291 283 290 296 297 294 293 292 282 283 281
309 310 309 308 308 306 306 307 307 308 310 310 303 306 318 308 287 288 299 303 303 301 301 301 301 303 302 298 295 298 298 303 302 300 296 296 289 282 287 292 296 291 294 295 290 284 282
309 309 308 308 307 306 306 307 307 308 310 312 305 296 303 307 301 297 299 299 300 304 303 303 302 303 300 298 300 297 298 302 302 299 300 300 293 287 282 287 289 286 290 292 289 280 282
308 308 308 307 306 306 306 306 309 309 310 310 308 299 300 292 295 301 301 300 299 298 303 303 300 300 298 292 296 295 299 299 301 300 299 297 288 291 291 291 290 289 288 289 288 288 283
308 308 307 306 306 306 306 308 308 309 309 309 307 305 302 296 298 299 298 299 300 301 301 299 298 301 300 295 297 295 298 296 295 297 296 297 286 286 285 291 290 286 289 290 290 290 289
308 308 306 306 306 306 308 308 307 308 309 310 312 311 304 298 294 295 297 299 301 302 303 304 302 297 294 298 299 299 299 300 300 296 295 292 285 282 279 286 285 280 288 290 290 291 290
308 307 306 306 307 308 308 307 307 308 310 318 314 310 300 291 296 296 303 303 301 302 300 303 303 297 302 304 299 296 295 297 298 298 299 288 285 280 276 277 270 287 294 294 292 293 294
307 306 307 307 306 309 307 304 305 306 309 314 315 310 299 287 299 301 302 302 302 302 301 302 304 303 304 300 287 285 284 285 289 296 296 294 283 279 274 277 282 288 293 291 289 290 295
306 306 308 306 308 309 305 305 307 307 309 313 312 314 303 294 295 306 301 302 296 295 296 300 306 307 301 287 282 280 280 282 285 290 294 293 286 280 278 272 270 284 293 297 294 283 296
305 306 308 308 308 307 305 307 307 308 310 313 312 315 309 298 303 305 299 300 302 298 294 298 299 298 298 282 284 278 282 290 283 282 280 280 278 279 271 270 280 289 296 297 282 284 295
305 307 308 308 308 307 307 307 307 308 308 311 311 314 310 299 305 309 309 304 303 299 292 298 294 293 290 283 280 285 277 284 284 288 285 282 280 277 277 271 275 294 295 287 290 294 295
305 307 307 308 308 306 303 304 306 307 308 312 308 316 315 307 306 310 310 310 310 308 303 299 295 297 295 288 287 289 279 285 282 281 292 284 286 283 285 284 291 296 295 296 298 294 294

GFSGBSN_sfc_thetae_033.txt.gz
Theta_e
322 321 320 319 318 318 319 319 319 318 318 317 317 317 318 318 318 318 317 316 316 315 316 316 317 318 312 307 306 312 328 329 318 312 307 307 305 303 298 297 296 294 295 297 297 298 295
321 320 318 318 318 317 318 318 318 317 317 317 317 317 317 317 317 317 316 315 315 314 315 316 316 317 308 298 311 312 315 316 313 311 309 309 306 306 300 297 295 297 295 295 296 297 297
321 319 318 317 317 318 318 317 317 317 317 317 317 316 316 316 316 316 315 315 315 314 315 316 317 314 310 305 312 313 311 312 312 311 308 309 309 303 301 297 298 296 293 294 294 295 294
320 319 318 317 317 317 316 316 317 317 317 317 317 316 315 315 315 315 314 314 314 315 315 316 317 312 304 314 314 314 309 307 310 312 310 309 308 304 300 299 298 295 293 289 294 296 296
319 318 318 317 317 316 316 315 316 317 317 317 316 315 314 314 313 313 313 313 313 315 315 315 310 310 301 315 309 308 307 306 309 310 309 310 306 300 299 293 290 291 287 289 293 296 294
319 318 317 317 317 316 316 316 316 316 316 315 315 315 314 313 313 312 312 313 314 313 313 315 314 303 307 304 308 306 306 309 307 307 305 303 299 294 293 290 285 287 289 290 290 293 294
319 318 318 317 317 317 316 317 316 315 315 315 315 315 314 313 313 312 309 306 303 303 308 300 301 305 308 308 307 303 306 307 306 303 296 300 294 290 290 292 294 293 290 289 290 294 293
318 317 318 318 317 316 317 318 316 315 314 315 314 314 314 313 313 312 307 306 306 309 299 308 309 309 310 310 302 303 308 301 301 295 299 295 291 295 298 299 296 295 291 290 293 296 294
316 316 317 317 317 315 317 317 315 314 314 314 313 314 313 313 312 309 307 310 316 313 302 304 305 304 305 307 301 300 305 302 298 296 295 292 295 300 298 296 296 295 292 291 291 293 294
315 315 316 316 316 315 316 316 315 314 314 313 313 313 312 311 307 308 304 311 317 311 291 295 300 303 305 305 300 304 304 302 300 295 295 295 300 298 297 295 295 292 297 295 293 289 285
315 314 314 314 313 313 313 313 313 313 313 313 313 312 311 311 308 312 315 323 318 309 279 296 300 305 302 302 300 300 303 303 296 296 296 293 296 296 295 295 296 294 297 294 294 289 287
314 314 313 313 312 312 313 312 312 310 312 312 312 312 311 309 307 313 321 316 309 292 280 294 300 298 298 300 300 300 302 305 302 298 297 296 299 297 296 298 298 298 296 295 293 290 282
313 313 313 312 311 312 312 312 308 308 310 312 312 312 310 316 315 321 318 303 289 284 297 293 295 297 297 296 297 297 298 296 294 290 290 295 295 297 299 295 297 296 291 282 282 281 281
313 312 312 311 312 312 311 309 308 307 309 312 311 310 310 313 323 318 307 295 286 295 293 297 297 296 294 297 297 297 295 293 296 295 291 289 287 294 298 295 292 293 291 282 281 279 281
312 312 311 311 312 311 309 308 307 306 310 311 310 309 316 319 321 313 300 286 290 295 297 296 297 293 293 297 297 296 293 293 294 295 291 289 289 297 297 297 296 293 287 292 285 282 279
312 311 310 311 309 308 308 307 307 307 311 311 312 312 311 319 317 309 297 292 298 301 300 298 292 295 291 293 294 294 293 297 295 297 298 295 288 295 296 297 297 293 295 287 284 278 279
311 310 311 309 307 307 307 307 307 307 311 311 309 300 307 320 306 299 290 295 302 302 303 297 295 294 294 293 294 293 294 297 298 298 297 295 290 289 295 291 289 291 289 289 288 283 278
310 309 310 308 307 307 307 307 307 308 310 311 304 294 313 306 293 293 294 301 301 300 303 302 301 299 295 295 295 294 294 296 301 300 292 294 289 283 288 294 295 292 291 289 280 282 280
309 309 309 308 307 306 306 307 307 308 310 309 302 306 316 302 286 287 296 301 301 299 299 299 298 300 300 297 293 296 296 301 299 298 294 294 288 281 286 291 293 290 292 291 287 283 281
309 309 308 308 307 306 306 307 307 307 310 310 303 295 302 304 296 294 295 297 297 302 301 301 300 301 298 296 298 294 296 300 299 297 299 298 291 285 282 285 288 285 288 290 288 280 281
308 308 307 307 306 306 306 306 306 307 309 310 304 297 299 292 296 299 298 298 297 296 301 301 298 298 297 292 294 294 297 297 298 299 297 294 287 289 288 289 288 287 287 288 287 286 282
308 307 306 306 306 306 306 307 308 309 309 308 304 300 299 294 297 298 296 298 298 298 298 297 296 299 297 294 295 294 296 294 292 295 294 295 285 286 284 289 288 285 287 287 287 287 288
308 307 305 306 306 306 307 308 308 308 310 306 307 308 301 294 293 293 294 298 299 301 301 302 300 296 292 296 298 297 298 298 298 295 293 290 284 281 277 284 282 278 284 289 289 290 289
307 305 306 306 307 307 307 307 307 308 309 314 311 306 298 290 291 294 300 300 300 300 299 301 300 296 299 300 296 295 294 296 297 296 296 287 283 278 275 277 271 285 291 292 290 291 291
306 306 307 307 307 307 303 304 304 307 309 317 312 306 297 286 296 298 300 300 300 300 299 300 302 301 302 295 286 285 283 285 288 294 293 292 283 278 274 276 280 286 290 290 288 287 293
305 307 307 307 309 303 303 305 307 308 309 315 312 308 301 295 296 303 300 300 295 294 295 298 304 304 297 284 282 279 278 282 284 288 293 290 284 280 277 270 270 283 291 294 293 283 294
305 307 307 308 308 304 305 306 307 308 311 312 311 311 305 297 302 303 298 298 299 296 293 296 297 296 295 280 277 278 281 287 282 281 279 280 277 276 270 271 279 287 294 295 283 282 294
306 306 307 307 308 305 304 305 306 308 311 312 310 312 307 299 303 306 307 302 300 297 292 296 294 292 286 282 279 280 276 283 283 286 284 282 279 278 275 272 276 292 292 287 290 292 295
306 306 306 306 302 304 304 305 306 307 310 310 309 313 311 306 304 308 308 308 307 303 300 296 296 294 293 285 282 285 278 285 281 279 289 282 285 283 285 284 291 292 292 294 295 294 293

GFSGBSN_sfc_thetae_036.txt.gz
Theta_e
322 322 321 320 320 319 318 318 318 318 317 317 317 317 317 317 317 318 317 316 316 316 315 316 317 317 310 305 304 315 328 327 312 309 305 305 303 301 297 296 295 293 295 296 296 296 298
322 321 321 320 319 318 317 318 318 317 317 317 317 317 317 317 317 317 316 315 315 315 314 315 316 317 306 297 308 316 318 313 311 308 306 305 305 305 299 296 295 296 295 294 294 295 295
322 321 320 319 318 317 317 317 317 317 316 317 317 316 316 316 316 316 316 315 314 314 315 316 316 314 308 305 310 311 311 312 311 310 306 307 307 302 300 297 297 295 292 295 295 294 294
321 321 320 318 317 316 316 316 316 316 317 317 317 316 315 315 315 315 314 314 314 314 315 316 316 310 303 312 312 313 309 306 310 310 308 308 309 304 299 299 297 293 292 288 292 294 294
320 320 320 318 317 316 316 316 316 316 317 317 316 315 314 314 313 313 313 313 313 314 315 315 307 307 301 313 308 309 307 306 307 307 307 309 305 299 297 292 290 290 287 287 291 294 293
321 320 319 318 317 316 316 316 315 315 316 316 315 315 314 313 313 312 311 313 314 313 312 314 313 302 304 302 308 306 305 307 305 306 303 303 298 294 292 290 285 287 287 289 288 291 293
321 320 319 318 317 317 317 316 315 315 315 315 315 315 314 313 313 312 309 305 302 301 306 300 300 301 305 309 306 302 304 305 304 302 296 298 293 289 292 291 292 291 288 287 288 292 292
319 319 318 318 317 317 317 317 315 315 315 314 314 314 314 313 313 312 305 302 303 305 300 306 306 307 309 308 301 302 306 300 299 294 297 295 290 293 297 296 294 292 289 288 291 294 294
318 318 317 317 317 317 317 316 316 315 314 313 313 313 313 312 312 308 303 307 315 311 301 303 306 303 302 307 300 299 304 301 297 294 293 291 293 298 297 295 295 293 290 289 290 292 293
317 316 316 317 317 317 316 315 316 315 313 313 313 312 311 311 306 305 303 309 317 309 290 294 299 302 303 304 299 303 303 301 298 293 294 294 298 296 295 294 294 290 295 293 291 288 285
317 315 315 315 316 315 313 314 314 314 313 313 313 312 311 311 305 309 310 321 318 305 279 295 298 303 301 299 299 299 303 302 295 295 294 292 294 294 294 293 294 292 296 294 292 288 286
316 315 314 314 314 313 312 312 313 312 310 312 312 312 311 308 305 312 318 311 305 291 281 293 298 296 297 298 298 298 302 304 300 297 296 294 297 296 294 296 296 296 295 293 291 288 282
315 314 314 313 313 312 312 312 312 309 308 311 311 311 310 311 311 318 313 301 289 283 295 291 293 296 296 294 296 297 296 295 292 289 289 294 294 296 297 294 295 295 290 282 281 280 281
314 314 313 313 312 311 311 312 310 307 307 310 310 310 309 311 316 316 304 294 283 292 292 295 294 294 293 295 295 296 294 292 295 293 289 288 286 293 297 293 291 291 290 283 281 278 281
309 313 312 312 311 311 311 311 308 307 306 310 310 306 310 317 313 309 298 285 287 292 295 294 295 291 291 295 295 294 291 291 293 293 290 288 288 295 295 296 295 291 286 290 284 282 278
309 313 312 311 310 310 311 309 307 307 309 310 309 308 310 317 314 306 293 289 295 301 298 296 290 293 289 292 292 292 291 295 293 295 296 293 287 293 294 296 295 291 294 286 283 277 278
311 312 311 310 310 309 308 307 307 306 310 310 305 302 307 315 305 297 287 291 300 304 301 296 293 292 292 291 293 291 292 295 296 296 296 293 289 288 293 289 289 290 288 287 287 282 278
311 311 310 310 309 308 307 307 307 307 310 309 300 294 312 304 294 292 292 298 301 298 301 300 299 295 293 294 293 292 293 295 299 298 291 293 288 283 287 292 294 291 289 287 279 280 279
310 309 309 308 307 307 306 307 307 307 310 307 302 305 313 301 287 287 294 298 300 297 298 298 297 298 298 295 291 294 295 299 297 296 293 293 287 281 285 288 291 288 290 289 285 283 281
309 309 309 308 306 306 306 307 307 307 310 307 303 296 301 301 295 293 293 295 296 300 299 299 298 299 297 294 296 293 294 298 297 296 299 296 289 285 282 283 287 284 288 288 287 279 281
308 308 308 307 306 306 306 307 307 307 309 308 301 296 300 293 295 292 295 296 296 294 299 299 297 297 295 291 292 292 295 295 296 298 296 292 286 287 286 287 287 285 285 288 286 285 282
308 308 307 306 306 306 306 306 306 307 309 306 303 297 295 293 299 296 294 296 296 297 297 295 295 296 296 293 294 292 295 292 290 294 292 293 284 285 284 286 286 284 286 286 286 285 286
308 307 306 305 305 306 306 306 307 307 309 305 305 305 299 292 293 293 293 297 298 300 299 299 298 295 292 295 297 296 296 296 295 293 291 288 284 281 279 282 281 277 284 285 286 288 287
307 305 305 305 305 305 307 307 307 308 309 309 308 304 297 287 289 295 298 298 298 298 297 299 298 294 296 298 296 295 293 295 296 294 293 285 282 277 274 276 270 283 289 289 288 289 289
304 305 305 306 307 306 306 306 307 308 308 312 309 304 296 285 291 294 298 298 298 298 297 298 300 299 299 292 287 286 283 285 287 291 289 289 282 276 274 275 280 284 288 289 287 287 292
304 305 306 306 303 303 304 305 305 307 308 312 310 306 301 293 293 300 298 297 293 292 294 296 302 300 295 283 282 279 279 283 283 287 291 288 283 280 274 271 269 282 289 293 291 282 291
305 306 306 304 303 304 306 306 307 308 310 313 312 308 304 297 300 300 297 297 297 294 292 295 297 294 293 280 276 277 279 284 281 280 279 282 279 275 269 270 278 286 291 293 282 283 292
305 307 307 304 303 304 305 306 307 308 310 314 311 310 305 298 301 304 305 299 298 296 291 296 293 292 285 282 279 279 276 282 283 285 284 283 281 281 275 270 276 290 292 286 290 289 293
306 306 304 304 304 304 305 305 307 309 309 314 311 312 309 304 303 306 306 306 304 301 298 295 296 293 292 284 279 280 279 284 280 279 287 282 284 281 283 283 289 290 291 293 293 292 293

GFSGBSN_sfc_thetae_039.txt.gz
Theta_e
323 323 322 322 321 320 320 319 318 317 317 317 317 317 318 318 317 316 317 316 316 316 316 315 316 317 313 307 306 318 328 327 317 310 309 306 304 304 302 301 300 298 298 298 299 300 305
323 322 321 321 321 320 320 319 318 317 317 317 316 316 317 317 317 317 316 316 315 315 315 314 316 317 309 299 311 321 317 312 312 310 308 308 306 307 304 301 299 299 298 297 297 299 300
323 322 321 320 320 320 319 317 317 317 317 316 316 316 316 317 316 316 316 315 314 314 315 315 316 314 309 306 313 316 314 313 313 311 308 309 310 307 305 299 300 299 297 299 299 300 299
323 322 321 319 319 318 317 316 316 316 316 316 317 316 315 315 315 315 314 314 313 314 315 315 316 313 305 313 315 312 312 310 313 312 310 311 312 308 303 303 300 297 297 294 298 299 299
322 322 321 320 318 317 316 316 316 316 316 316 316 316 315 314 313 313 313 313 313 314 315 315 311 310 304 314 310 312 312 309 309 311 311 309 311 304 301 297 296 296 291 293 295 299 299
322 321 321 320 318 317 316 316 315 315 315 315 316 315 315 314 313 312 311 312 313 314 313 314 313 305 306 305 310 308 311 311 310 308 307 306 302 299 297 296 290 292 292 293 294 297 299
319 322 321 320 318 318 317 317 315 315 314 315 316 315 314 314 313 312 310 307 304 303 308 302 302 303 305 310 310 306 309 311 309 307 301 302 299 295 296 297 295 295 294 293 295 296 298
313 321 320 320 318 318 318 317 316 314 314 315 315 314 314 313 313 312 308 303 305 310 304 307 307 307 309 310 304 305 311 306 305 300 301 299 295 298 300 298 297 295 294 294 295 297 299
313 315 320 319 319 318 318 317 316 314 314 314 313 313 313 312 312 309 306 308 315 317 306 304 307 305 304 308 304 303 308 306 302 299 297 297 298 300 300 298 298 296 295 294 294 297 297
312 312 313 318 318 317 317 316 316 314 314 314 313 313 312 311 307 307 305 312 313 315 294 296 301 303 305 306 303 306 307 306 301 297 297 299 300 298 297 297 298 295 298 296 294 294 292
311 311 311 316 316 315 315 315 315 314 314 313 312 312 311 311 307 306 311 322 317 309 283 298 300 306 304 302 302 303 307 305 299 298 299 297 298 297 297 297 298 296 299 297 295 294 293
311 310 310 312 315 314 314 313 313 313 313 312 312 312 311 310 307 311 318 315 309 294 284 295 300 298 300 301 301 303 305 306 303 300 300 298 302 300 299 299 299 300 299 297 296 294 289
309 309 309 310 314 314 313 313 311 312 311 309 310 311 311 311 308 321 316 306 292 287 297 293 295 298 298 298 299 300 299 298 296 294 294 297 297 300 301 298 300 299 296 289 288 288 287
309 309 309 311 314 313 312 312 311 311 310 307 309 310 310 311 315 316 307 297 287 292 293 297 296 297 295 298 298 298 297 296 298 296 293 292 289 297 300 298 297 296 296 291 283 285 288
308 309 309 312 314 313 312 311 311 310 308 307 310 308 308 313 313 311 300 288 289 292 298 295 296 294 295 298 297 297 295 295 296 298 294 292 291 299 299 300 299 295 292 295 288 285 285
308 309 309 307 312 312 311 310 311 309 307 308 307 306 308 319 316 306 296 290 293 300 299 297 292 295 292 295 295 295 295 298 297 298 301 296 291 296 297 300 299 297 297 291 290 282 281
307 308 308 308 311 311 310 310 309 308 306 310 308 304 310 318 308 299 290 291 299 305 302 297 295 294 295 294 295 294 295 298 300 299 300 297 295 293 296 294 294 295 293 291 291 288 283
306 307 307 307 310 310 310 309 308 307 307 308 302 296 314 307 296 294 293 296 302 301 302 302 300 298 296 296 296 295 295 298 301 302 297 296 293 289 292 296 298 296 294 293 287 284 285
306 307 307 306 310 309 309 308 307 307 310 307 299 305 314 304 290 290 296 299 301 299 300 300 300 301 301 297 294 296 297 301 300 299 297 297 292 287 289 293 295 294 294 291 289 288 285
306 307 307 308 310 308 308 307 306 307 310 310 305 298 304 300 297 295 295 296 298 302 302 301 300 301 299 297 298 295 297 300 301 299 299 299 291 290 288 289 292 289 292 291 292 287 286
306 306 307 309 308 307 307 307 306 306 310 309 302 299 302 294 295 295 297 298 297 297 302 301 299 299 298 294 295 295 298 298 298 299 298 297 291 291 289 290 290 289 289 291 290 290 288
306 306 308 307 307 307 306 306 306 307 309 308 300 298 296 296 298 296 296 297 297 299 300 299 298 299 300 296 297 295 297 296 294 298 296 295 290 290 288 289 288 288 289 289 290 290 290
307 308 307 307 306 306 306 306 306 307 309 306 307 304 300 292 295 293 294 297 298 301 301 301 300 298 296 299 300 299 299 298 297 297 293 292 289 287 284 284 284 283 288 290 289 291 292
308 307 307 306 306 306 305 305 305 308 308 310 309 304 296 288 293 293 297 300 299 300 299 300 300 298 299 302 299 299 297 297 297 294 295 288 286 282 282 280 279 289 292 292 290 291 292
306 306 306 306 306 305 305 305 305 307 308 313 310 305 296 286 292 295 298 299 299 300 299 300 301 300 301 296 292 290 288 290 290 292 290 291 286 281 283 281 284 287 288 291 290 291 294
305 305 305 305 305 304 305 306 306 308 308 313 311 307 301 292 292 299 299 299 296 295 297 299 302 301 297 289 288 285 285 288 287 290 293 289 288 288 281 281 279 287 291 296 295 288 295
304 305 305 305 304 304 305 305 306 308 308 314 311 309 307 298 302 302 298 298 299 297 294 297 298 298 297 287 286 286 286 287 285 283 283 285 284 285 276 283 284 289 292 296 286 289 294
304 304 304 304 303 303 304 305 306 308 308 313 310 312 308 300 303 307 306 299 299 299 295 298 297 296 290 288 288 286 286 287 287 288 287 287 284 283 279 280 281 292 295 291 296 295 296
305 303 303 303 304 304 305 306 307 308 309 312 309 313 310 305 304 308 307 308 308 305 300 297 299 296 296 290 286 285 285 286 285 286 290 286 290 288 287 289 294 294 296 298 297 296 297

GFSGBSN_sfc_thetae_042.txt.gz
Theta_e
325 324 324 323 322 321 322 321 319 318 318 317 317 317 317 318 318 317 316 316 317 317 316 316 316 317 317 311 309 322 328 326 319 315 312 312 308 306 303 305 305 303 303 304 311 311 310
324 323 323 322 322 321 322 321 319 318 317 317 317 316 317 317 318 317 317 316 316 316 316 315 316 316 315 303 315 323 323 319 317 314 313 313 309 310 308 306 304 305 301 302 305 309 308
321 323 322 321 321 321 321 319 319 318 317 317 316 316 316 317 317 317 316 316 315 315 315 316 316 317 311 309 317 323 319 316 318 316 313 315 314 310 310 304 303 302 298 300 302 305 305
319 322 323 321 320 319 318 318 318 317 317 316 316 316 316 316 315 315 315 314 314 314 315 315 316 317 307 317 320 317 318 317 318 318 316 315 316 311 308 306 303 300 301 297 301 306 303
318 319 323 321 320 318 318 317 317 317 317 316 316 315 315 314 314 313 314 313 313 314 315 316 316 314 306 318 313 317 318 312 315 315 315 314 314 309 306 300 298 300 295 297 298 303 304
317 318 320 322 320 319 318 317 316 316 316 315 315 315 315 314 314 313 312 313 314 314 315 317 316 311 313 308 313 315 315 313 313 312 309 309 309 303 302 300 293 296 295 297 297 301 303
317 316 318 321 320 320 319 318 316 315 315 315 315 316 315 314 314 313 313 316 311 310 312 308 306 308 308 313 315 311 312 313 313 310 304 308 303 299 301 302 301 301 299 297 300 302 302
315 315 315 320 321 320 320 318 316 315 315 315 315 315 314 314 314 312 315 309 311 316 307 311 310 309 311 313 307 309 313 307 306 301 306 304 300 303 304 303 301 300 299 299 300 301 303
313 315 314 317 321 320 319 318 316 315 314 314 314 314 314 313 312 313 313 311 321 320 311 307 310 308 308 311 306 307 311 309 304 301 303 301 302 304 304 302 301 300 299 299 299 301 304
312 313 313 312 316 319 318 318 316 315 314 313 314 313 312 311 309 315 310 315 317 318 302 299 303 307 308 311 305 310 312 308 306 302 303 303 304 302 303 301 302 298 302 301 300 299 296
311 312 312 311 311 316 316 316 316 315 314 314 313 313 311 311 315 310 316 320 324 319 287 301 304 312 310 306 306 306 313 309 302 302 302 300 302 302 300 300 302 300 303 302 300 300 299
310 311 312 311 311 310 315 314 314 314 313 313 312 312 311 312 315 319 325 328 322 301 287 298 304 303 303 305 304 307 308 310 309 304 305 303 306 305 303 304 304 305 303 303 302 301 293
309 310 311 310 310 310 313 314 313 313 312 312 309 311 313 317 311 328 326 319 299 292 300 296 299 302 301 301 302 304 303 303 300 297 298 301 301 305 306 303 305 304 300 293 291 291 290
308 309 310 310 310 309 313 314 312 312 311 310 308 310 313 317 321 324 321 307 291 295 297 301 300 301 298 301 301 302 302 300 303 302 300 296 294 300 304 303 300 300 299 293 283 287 292
307 308 308 309 309 309 312 313 312 311 310 308 309 313 314 318 320 320 311 297 295 298 301 299 300 297 298 301 300 301 301 301 302 304 297 296 295 302 302 305 304 300 297 301 294 291 291
306 307 308 308 309 308 311 312 311 310 309 308 314 312 312 321 324 314 306 297 300 304 303 301 295 299 296 299 298 299 300 302 301 303 306 301 295 300 301 304 304 303 303 295 297 285 283
306 306 307 308 308 308 311 312 310 310 308 309 313 306 319 327 323 309 300 300 301 308 306 301 298 298 299 299 299 298 299 302 303 303 306 304 300 298 300 299 298 299 298 297 297 295 287
305 305 306 307 308 308 311 311 310 309 307 308 312 301 323 322 306 309 301 302 303 305 308 304 304 302 300 301 300 299 299 301 305 305 302 302 302 296 297 301 302 301 299 299 292 289 293
304 305 306 307 308 308 309 310 309 308 308 312 307 310 317 316 301 302 303 302 306 303 305 305 303 304 305 302 298 301 302 304 304 304 303 303 299 293 294 298 300 298 300 299 296 296 291
304 305 305 306 307 307 308 309 308 307 309 315 309 304 311 310 309 304 301 300 301 306 305 306 305 306 305 302 304 301 302 302 303 304 299 302 300 297 293 295 299 295 297 298 297 292 291
303 304 305 306 306 306 307 309 308 307 309 313 311 305 309 302 304 303 304 302 300 301 306 307 304 305 304 300 301 301 303 301 303 300 304 304 297 297 295 295 295 296 296 297 295 296 292
303 304 305 305 306 306 307 308 307 307 308 309 308 306 308 308 306 302 300 301 300 303 304 303 304 305 306 303 303 301 303 302 302 303 303 301 297 296 293 294 294 293 296 296 297 297 297
304 305 305 306 307 306 307 307 306 307 309 312 317 312 311 299 303 301 300 302 302 307 305 305 308 306 304 304 307 309 307 306 305 304 302 300 298 294 290 291 291 289 294 296 296 298 298
304 304 305 306 307 308 307 306 306 306 310 319 320 313 308 298 301 299 301 304 304 306 305 305 307 306 305 309 309 308 306 304 303 300 302 297 296 293 291 287 285 293 297 296 297 299 300
304 305 306 307 307 307 306 306 306 306 308 316 322 314 307 295 302 301 303 305 306 307 306 306 305 306 310 306 303 298 298 298 298 298 298 299 296 289 290 287 290 293 293 292 293 294 299
305 306 307 306 306 305 305 305 305 306 308 311 321 317 314 303 300 304 304 307 305 305 305 302 305 307 304 303 301 295 293 296 293 295 298 296 297 296 288 289 286 293 296 300 299 291 300
305 306 306 305 305 305 305 305 305 305 308 314 321 318 317 309 306 309 304 305 309 307 305 302 302 302 304 301 298 297 295 294 292 290 289 293 293 291 290 290 292 296 296 300 289 292 300
305 305 305 305 304 304 304 305 305 305 308 313 318 319 319 310 310 311 310 307 307 310 305 304 304 303 303 300 300 297 296 295 294 294 293 293 292 290 289 288 286 298 299 294 300 303 301
304 304 304 304 304 304 305 305 305 307 308 311 316 319 320 314 310 314 313 314 312 311 310 307 308 306 307 303 300 297 292 290 295 293 296 292 297 296 295 296 299 301 303 304 304 303 304

GFSGBSN_sfc_thetae_045.txt.gz
Theta_e
321 323 325 324 324 323 323 322 321 319 319 318 318 318 318 317 318 318 318 317 317 317 317 317 317 317 318 312 310 324 330 329 321 316 314 312 309 307 303 305 307 305 307 307 312 312 311
320 320 323 324 323 323 323 322 321 319 318 318 317 317 317 317 318 318 317 317 317 316 316 316 316 316 318 305 317 320 322 321 318 315 314 314 310 311 308 307 305 307 308 308 311 310 311
319 319 320 322 322 322 322 321 320 319 319 318 317 316 316 317 317 317 317 316 316 315 315 316 317 318 313 309 319 323 322 318 320 318 314 316 315 311 311 307 308 307 305 305 307 310 309
317 319 319 320 321 320 320 319 319 319 318 317 317 316 316 316 316 315 315 315 315 315 315 316 316 319 309 318 321 319 321 319 320 320 318 318 318 313 311 308 304 302 301 298 305 309 310
317 318 319 319 320 320 319 318 318 319 318 317 317 316 315 315 315 314 314 315 314 315 315 316 317 316 308 318 314 318 320 315 316 318 318 316 315 310 309 302 299 301 294 298 300 308 307
316 317 318 318 319 320 319 318 318 317 317 317 316 316 315 315 314 314 313 313 315 314 315 319 317 312 315 310 314 317 318 316 314 315 312 312 310 307 305 300 293 296 297 299 299 304 305
314 316 317 316 317 320 320 319 318 316 316 316 316 315 316 315 315 314 313 317 313 313 315 309 309 308 310 316 318 314 315 314 315 312 304 309 303 298 301 303 302 301 299 298 301 303 302
313 315 316 316 316 319 321 320 317 316 316 316 315 315 315 315 315 314 316 312 314 319 310 312 310 310 313 314 308 312 315 308 309 302 305 305 300 305 305 304 302 301 299 298 302 303 303
311 313 314 316 315 317 321 320 317 316 315 315 315 315 315 314 313 314 315 314 324 322 313 309 311 309 311 312 308 309 312 310 306 303 304 300 303 306 304 302 301 300 299 299 300 302 303
311 312 313 314 315 314 319 320 318 316 315 314 314 314 314 312 310 317 314 319 321 322 305 302 305 308 310 312 306 313 314 310 306 301 303 303 307 304 302 301 302 298 304 302 301 300 295
311 311 312 313 313 313 312 318 317 316 315 314 313 314 312 311 318 313 320 322 324 324 291 303 305 315 312 307 307 308 314 310 303 303 304 302 303 302 301 302 304 301 305 303 302 300 299
310 310 311 312 312 311 311 315 316 315 314 314 313 313 312 314 316 320 325 331 324 303 290 299 306 304 305 307 306 308 308 311 311 304 306 302 309 307 306 305 305 307 304 303 303 301 294
308 309 311 311 312 311 310 313 314 314 314 313 312 312 313 319 314 325 326 323 302 294 302 298 300 304 303 302 303 304 303 302 300 296 298 303 303 307 308 303 306 305 301 294 292 292 291
308 309 309 310 311 310 310 311 313 313 312 312 310 311 313 319 322 328 324 311 294 298 299 303 302 303 300 302 302 302 302 299 303 303 298 296 295 303 307 305 302 302 301 294 285 288 292
307 308 309 309 310 310 310 310 313 312 311 310 309 315 317 320 323 325 314 300 299 300 302 300 301 298 299 301 301 301 301 300 303 304 296 297 296 305 305 306 305 302 297 303 296 297 292
306 307 307 308 309 309 309 309 312 312 310 308 312 314 314 324 324 320 308 299 303 305 304 303 297 300 296 299 298 299 300 304 303 306 309 302 296 302 304 307 306 304 306 296 297 287 285
303 306 307 307 308 308 309 309 311 311 309 308 312 308 318 325 322 311 301 303 305 307 308 302 300 299 299 299 300 299 299 304 306 306 309 305 301 300 302 300 299 301 299 299 299 297 289
299 305 305 306 307 308 308 308 310 310 309 308 311 302 321 326 302 306 303 306 304 305 311 306 305 303 301 302 300 300 299 303 309 308 303 306 302 297 299 304 305 304 301 301 294 292 294
298 305 305 306 307 307 308 308 310 309 309 310 306 309 322 321 298 304 307 306 307 304 306 306 303 304 305 303 299 302 302 308 308 308 304 306 299 294 296 300 303 300 302 301 301 298 293
298 304 305 305 306 307 308 308 309 309 309 314 309 303 309 314 308 307 304 304 302 308 307 308 305 306 304 302 304 302 302 306 308 308 301 305 301 297 293 296 301 299 300 301 300 294 293
298 303 304 305 306 307 307 308 309 308 309 312 309 305 309 302 305 307 307 305 301 301 308 309 305 305 304 300 301 302 305 305 306 301 305 306 299 300 300 300 300 299 299 299 298 298 295
300 302 304 304 305 306 307 307 308 308 309 307 308 306 309 306 306 307 304 304 301 303 305 304 303 305 306 303 304 302 306 305 304 307 306 306 299 300 296 299 299 297 299 299 299 299 298
302 303 304 304 305 306 306 306 307 307 309 305 314 317 311 305 307 305 305 304 303 306 309 310 307 305 306 307 312 313 311 310 309 307 305 304 301 297 292 295 295 291 296 298 299 300 300
302 303 304 304 305 305 305 305 306 307 308 313 316 316 308 304 307 305 305 306 304 305 306 308 311 308 310 315 314 312 310 308 307 306 309 303 301 298 293 289 285 296 299 299 298 300 301
302 303 304 304 305 305 305 305 305 307 308 315 326 319 310 301 307 304 305 305 306 309 309 309 309 313 315 312 305 300 301 300 300 302 301 304 300 293 291 290 293 295 297 296 295 295 301
302 303 304 304 304 305 305 305 306 306 307 313 319 324 315 309 306 306 304 306 305 307 308 306 312 313 311 310 305 296 293 297 296 299 301 299 301 298 291 289 285 295 299 302 301 292 301
302 303 304 304 304 305 305 306 306 306 307 313 318 325 318 309 309 309 305 306 309 309 307 306 307 306 310 307 299 299 297 300 295 294 291 295 296 293 293 292 295 300 300 302 291 294 302
303 303 303 302 304 305 305 305 306 306 307 312 316 326 320 313 312 314 312 309 311 310 307 309 307 307 307 302 304 302 299 300 298 299 296 295 295 291 295 288 287 301 301 295 303 304 304
303 302 304 305 305 305 305 305 305 306 306 311 312 325 325 318 312 319 318 318 316 317 313 311 309 309 310 306 306 307 296 295 300 294 301 295 300 299 298 298 303 303 302 305 306 304 305

GFSGBSN_sfc_thetae_048.txt.gz
Theta_e
320 321 320 322 325 324 324 323 322 320 320 319 318 318 318 318 318 318 318 317 317 317 317 317 317 317 316 312 311 322 332 327 320 314 313 311 308 306 302 304 306 304 306 308 309 314 312
318 319 320 320 323 324 324 323 321 320 319 319 318 317 317 317 318 318 318 317 317 317 317 317 317 317 314 305 318 321 322 323 318 312 313 312 310 310 306 306 304 307 307 308 310 310 310
316 318 319 319 319 323 323 322 321 320 320 319 318 317 317 317 317 317 317 316 316 316 316 317 317 316 311 308 319 321 322 319 319 317 312 315 314 310 310 306 309 308 303 306 307 309 308
315 317 318 318 318 319 321 320 320 320 320 319 318 317 316 315 315 315 315 315 315 316 316 317 316 316 308 319 320 317 319 319 321 319 318 318 318 312 310 311 305 303 303 297 304 307 309
314 315 317 318 318 318 319 320 320 320 320 319 318 317 315 315 315 315 315 315 315 316 316 317 316 315 308 320 313 317 318 315 316 317 318 317 314 310 309 303 299 300 293 296 300 306 306
313 314 316 317 318 317 319 319 319 319 318 318 317 316 315 315 315 314 314 314 316 315 316 317 316 309 314 309 314 315 319 316 314 315 312 311 309 305 305 299 291 295 295 298 298 303 305
314 313 315 317 317 317 318 320 319 318 317 317 317 316 316 315 315 315 314 316 312 311 312 308 309 308 310 315 318 314 317 313 313 312 305 308 302 298 301 302 301 300 298 297 301 304 302
312 312 314 315 316 317 317 319 319 317 317 317 316 316 316 316 315 315 314 312 314 318 309 316 310 311 313 315 308 311 316 308 308 303 305 303 299 304 305 304 301 300 299 298 301 302 301
311 312 312 313 315 316 316 317 318 317 316 316 316 316 316 315 314 313 313 312 319 320 309 312 314 307 309 312 308 308 312 309 305 302 302 299 301 306 305 303 300 300 298 299 299 301 302
311 311 311 312 314 315 315 315 318 318 316 315 315 315 315 313 308 316 313 319 319 323 302 304 306 307 311 311 306 313 313 309 305 301 304 301 305 304 303 300 302 297 304 302 300 297 292
310 310 310 311 313 313 313 313 313 318 316 315 314 314 313 311 316 315 320 323 324 321 291 305 305 314 311 306 307 308 313 309 303 302 304 300 302 302 301 301 304 299 304 302 301 298 297
308 310 310 311 311 312 312 312 311 315 315 314 313 313 313 313 315 318 323 327 320 302 289 299 304 303 304 305 306 308 307 311 309 304 305 302 308 306 304 305 305 306 303 302 302 299 291
307 308 310 310 310 311 312 311 311 314 314 314 312 313 312 318 313 323 324 320 300 292 303 299 299 303 302 302 303 303 302 301 299 296 297 301 301 306 307 302 305 303 299 292 288 289 290
306 307 308 309 310 311 311 311 310 313 313 313 311 311 312 316 322 326 323 308 292 298 300 303 302 302 299 302 301 302 300 298 302 301 297 295 293 302 306 302 299 300 299 291 285 288 292
305 306 306 308 309 310 311 310 310 312 312 311 310 312 313 318 321 325 313 297 296 301 303 302 301 298 298 301 301 301 299 299 301 302 296 295 295 304 306 305 305 300 297 303 295 298 294
303 304 304 307 308 309 310 310 310 311 311 309 310 309 309 321 324 317 306 298 301 306 306 304 296 299 296 298 298 299 298 302 301 304 307 301 293 301 305 306 305 302 304 296 297 287 285
303 303 305 304 307 308 309 309 309 311 310 310 309 303 315 325 321 308 298 301 304 309 308 303 299 298 299 298 299 298 298 302 304 305 307 302 297 299 303 300 297 300 298 298 297 297 290
302 302 303 302 306 307 308 309 309 310 309 308 306 297 319 323 303 301 299 303 304 307 309 306 305 302 300 300 299 298 298 302 308 307 302 305 301 297 298 304 305 303 300 300 296 292 296
301 301 301 301 306 306 307 308 308 310 309 308 301 306 321 318 296 297 302 304 305 305 306 305 304 304 305 301 298 301 302 309 308 306 303 306 300 293 294 300 304 300 300 300 300 300 294
300 300 300 300 302 306 307 308 308 309 309 310 302 299 307 312 308 300 299 301 302 308 306 306 305 305 303 301 304 301 301 307 309 308 303 308 301 296 292 295 300 298 299 300 299 295 294
300 300 300 298 299 305 306 307 308 308 309 308 305 302 307 298 302 302 305 303 300 301 307 307 304 304 302 299 300 300 303 305 307 302 305 306 296 297 298 299 300 299 299 299 297 298 294
299 300 299 299 299 304 306 307 307 308 309 306 302 304 309 305 305 303 301 303 301 303 303 303 303 304 304 301 301 300 303 305 303 306 305 306 298 300 297 300 299 296 298 298 298 298 297
299 300 300 299 303 304 305 306 306 307 308 304 309 312 308 303 304 301 301 304 304 306 306 306 307 305 304 306 310 312 312 311 308 306 304 304 302 298 293 296 294 289 296 297 298 300 299
298 299 299 302 302 305 306 306 306 307 308 310 311 313 307 301 302 301 303 306 306 306 305 308 310 307 311 316 315 312 310 309 309 308 309 304 303 300 294 289 284 296 300 299 297 298 299
300 299 300 302 304 305 305 305 306 306 308 308 313 312 309 299 304 303 305 306 308 308 307 307 311 315 317 314 306 300 300 298 301 304 304 307 302 295 290 290 293 295 297 296 295 295 300
300 300 301 302 303 304 304 305 305 306 307 307 310 312 313 308 304 306 306 308 304 306 307 307 314 319 317 312 306 296 294 297 296 297 301 301 305 298 293 289 284 297 299 302 300 292 300
301 301 302 303 303 304 304 305 305 305 305 305 306 311 310 305 309 309 306 305 310 310 305 307 307 308 312 307 295 301 298 300 295 294 290 295 296 291 292 291 295 301 301 302 291 295 303
301 302 302 303 303 304 304 304 304 304 304 305 303 309 307 312 313 315 313 309 310 312 300 307 307 308 310 302 303 304 299 302 299 300 296 294 294 290 296 288 286 302 300 295 302 305 304
301 302 302 303 303 304 304 304 304 305 306 306 302 312 315 309 315 319 318 319 316 318 313 312 311 309 311 307 307 309 294 294 301 295 302 296 301 299 298 297 305 304 303 306 306 304 305

GFSGBSN_sfc_thetae_051.txt.gz
Theta_e
318 319 320 320 320 323 325 324 322 321 320 319 319 318 318 318 318 317 317 316 317 317 317 317 318 318 312 307 309 318 329 327 318 312 308 307 305 302 297 298 299 298 301 304 312 311 310
316 317 318 319 320 320 324 324 322 320 320 319 318 318 317 317 317 317 317 316 316 316 316 317 317 317 310 301 316 321 324 318 314 309 308 308 306 306 302 301 301 304 304 304 307 308 308
315 315 316 317 319 319 320 322 322 321 320 319 318 317 317 316 316 316 316 316 315 315 316 317 317 314 308 304 313 312 314 317 315 310 307 309 310 305 304 303 306 303 299 302 304 306 305
315 315 316 316 317 317 317 319 321 321 320 319 319 318 316 315 315 314 315 314 314 315 316 316 317 311 304 318 314 314 314 312 317 315 313 314 313 308 305 306 304 299 299 294 302 307 308
314 314 315 315 317 317 316 317 320 321 320 319 319 317 316 314 314 314 314 314 314 315 316 316 310 308 306 320 314 315 312 311 314 314 314 316 310 305 304 298 296 296 291 293 297 307 306
314 314 314 314 315 317 317 317 318 319 319 319 318 317 316 315 314 313 313 313 314 313 314 314 313 303 310 308 312 313 313 314 310 311 310 308 303 299 300 295 288 292 292 294 293 300 304
314 313 314 314 315 317 317 316 317 318 318 319 318 317 316 314 314 314 311 310 307 306 307 305 306 305 307 312 315 310 312 310 308 307 300 304 298 294 296 300 299 297 296 293 296 300 299
313 313 313 313 314 316 317 317 316 317 317 318 317 316 316 315 314 314 308 305 309 310 304 312 310 311 311 311 306 309 312 304 303 299 302 299 296 302 304 303 300 298 296 296 299 300 297
311 312 313 313 313 314 316 316 315 316 317 317 316 316 315 314 314 308 307 308 313 312 303 308 312 311 309 308 305 305 308 304 300 299 299 296 300 305 303 301 300 299 297 296 296 299 297
309 311 312 312 312 313 314 315 315 314 316 316 315 315 314 312 307 310 308 315 314 311 296 301 306 310 309 306 304 310 310 305 302 298 301 299 304 302 300 299 301 295 302 301 298 295 288
308 309 310 311 311 311 311 313 314 314 316 316 315 314 313 312 307 308 316 318 315 312 283 305 305 310 306 304 305 305 310 305 299 300 301 298 300 301 299 300 303 298 302 300 300 296 293
308 308 309 310 310 310 311 312 313 312 312 315 314 313 312 310 309 311 314 315 315 298 285 300 304 301 301 303 304 305 304 306 305 301 301 300 304 303 302 305 303 303 300 300 298 296 286
305 307 308 309 309 310 310 312 312 311 311 314 313 313 311 313 307 317 313 311 295 289 301 298 297 300 300 299 300 301 299 296 294 291 292 298 300 303 305 299 302 300 295 286 284 284 284
304 305 306 307 309 309 310 310 311 310 310 313 312 311 311 312 313 314 314 305 290 296 297 303 300 300 296 299 299 299 296 293 297 296 293 291 290 299 304 300 298 298 296 287 282 283 285
303 304 305 306 307 309 309 309 310 310 310 312 311 310 308 310 312 312 309 294 291 298 300 301 299 295 295 298 300 297 295 294 296 297 290 293 293 304 305 305 302 298 293 300 291 289 282
303 303 303 304 306 307 308 309 310 309 310 311 309 307 306 312 315 310 303 294 298 304 304 303 295 296 292 295 296 295 295 298 298 300 301 299 292 300 303 305 303 299 301 290 290 281 279
302 301 302 302 304 306 307 309 310 309 311 311 308 302 308 314 314 306 293 296 300 306 306 303 299 296 296 295 296 294 296 299 301 303 304 300 294 295 301 298 296 296 294 294 293 290 282
300 301 301 301 302 305 306 308 309 309 310 309 306 296 311 317 298 297 294 298 301 304 306 305 303 302 299 297 297 295 296 298 303 305 299 301 295 290 295 301 303 299 296 296 284 286 287
299 300 300 300 302 303 304 307 308 309 309 308 301 302 313 312 289 292 297 298 301 302 302 303 302 303 303 298 296 297 298 306 304 302 299 302 294 285 290 295 299 296 297 296 296 292 287
299 299 300 300 302 303 302 307 308 308 309 309 302 295 304 306 299 295 295 295 296 304 303 305 304 304 301 297 300 299 300 306 306 304 301 303 297 292 285 290 295 293 296 297 294 284 286
299 299 300 300 302 303 302 306 307 308 308 308 302 298 304 296 298 297 297 297 296 298 305 305 303 302 300 294 296 298 301 303 305 302 302 300 292 294 294 296 297 296 295 295 294 293 287
299 299 299 301 301 301 302 305 306 307 308 304 298 298 304 301 302 299 297 295 297 299 302 300 300 302 301 296 297 296 301 301 299 301 299 301 292 293 291 297 295 292 294 295 294 294 293
299 300 300 300 301 299 299 300 306 307 307 299 304 305 304 299 299 297 296 297 298 302 304 305 303 301 299 300 304 303 306 305 304 300 297 298 294 288 285 290 290 283 291 293 294 295 293
299 300 300 300 300 298 299 300 305 306 306 304 305 305 302 293 299 298 299 300 300 301 301 305 304 301 306 310 308 306 304 304 306 303 304 297 295 288 283 283 276 291 297 295 293 294 294
299 300 300 300 300 299 299 301 304 305 307 302 306 307 301 289 300 300 299 300 301 303 303 304 307 310 310 307 298 294 291 291 297 302 300 302 293 286 281 281 288 292 294 294 291 290 295
299 299 299 300 300 300 301 303 304 305 307 305 303 309 306 300 298 304 300 301 298 300 301 304 310 312 310 303 292 287 285 291 291 294 300 299 297 286 283 279 275 290 295 299 296 284 297
299 299 298 299 301 302 303 303 304 305 306 305 303 308 304 300 305 305 299 298 304 304 302 302 303 305 309 289 289 285 286 297 287 287 285 284 284 281 278 278 285 298 298 299 283 286 298
299 299 298 299 301 302 303 304 305 305 306 306 303 305 303 301 304 310 306 303 304 304 296 302 300 302 300 291 292 286 285 290 290 296 290 287 285 280 284 284 281 299 297 290 295 298 299
299 300 300 301 302 303 303 304 305 305 305 305 298 306 308 301 303 309 313 312 311 310 304 302 301 303 303 297 294 291 290 287 289 284 298 288 294 288 290 288 298 300 299 301 301 299 299

GFSGBSN_sfc_thetae_054.txt.gz
Theta_e
316 317 318 319 320 320 321 324 323 321 320 319 318 318 318 319 318 317 316 315 316 317 317 317 317 318 310 304 306 316 327 327 315 310 306 304 303 301 296 296 298 295 297 306 309 309 308
315 315 316 317 318 319 320 321 323 321 319 319 318 318 317 317 317 317 316 315 315 315 316 316 317 317 309 299 313 322 318 316 311 307 305 306 304 304 300 299 297 301 307 307 307 307 309
315 315 315 315 317 318 319 318 320 321 320 319 318 317 317 317 316 316 315 315 315 315 315 316 316 314 307 300 309 308 310 313 312 307 305 306 307 304 302 301 304 301 297 302 302 302 303
315 315 315 315 315 317 317 317 317 320 321 320 319 317 316 316 315 314 314 313 314 314 315 316 316 309 301 315 313 313 311 311 313 310 308 310 310 307 303 304 302 296 295 291 302 305 306
314 315 315 314 314 315 316 316 316 318 321 320 319 318 316 315 314 313 313 313 313 315 316 315 308 306 303 318 312 316 313 309 311 311 311 313 308 303 303 296 294 296 290 292 298 306 304
313 314 314 314 314 314 315 316 316 317 318 319 319 318 316 315 313 312 312 313 314 313 313 314 312 299 306 305 311 312 311 311 308 310 308 305 301 297 297 294 288 292 292 294 293 301 302
311 312 314 314 314 314 315 316 316 315 317 318 319 318 316 315 314 313 309 308 305 305 306 303 301 302 304 310 312 308 310 308 306 305 299 302 297 293 296 299 300 298 295 292 295 299 299
311 312 313 314 313 314 314 316 315 314 316 317 318 317 316 315 313 313 307 302 306 305 299 308 309 308 310 311 304 306 310 302 301 297 301 297 295 301 302 303 300 298 295 293 297 298 300
310 309 311 312 314 313 314 315 315 314 314 315 316 317 316 314 312 308 305 306 310 310 299 306 310 309 310 312 304 303 307 303 298 298 298 293 298 304 302 300 298 297 294 294 294 296 295
309 310 309 311 313 313 313 313 314 314 313 315 315 316 314 312 305 306 306 314 314 309 294 299 305 308 311 307 299 307 308 304 300 297 298 297 301 300 298 298 299 293 300 299 296 291 286
308 308 309 309 311 312 311 312 313 314 313 313 314 315 312 311 306 305 313 311 311 309 277 300 304 313 308 300 303 303 307 303 296 299 298 294 298 298 296 298 301 296 300 299 298 293 290
307 307 308 308 308 309 310 310 311 313 313 313 314 314 312 310 307 308 312 310 312 296 282 300 304 300 298 299 301 303 303 304 303 300 299 296 302 301 299 303 302 301 298 298 296 293 285
305 307 307 307 307 307 309 310 310 312 312 311 313 313 311 313 303 312 313 310 293 288 300 297 296 298 298 297 298 299 297 295 292 290 290 296 297 301 303 298 300 298 292 283 282 282 282
304 305 306 306 307 307 308 309 309 310 311 310 311 312 312 311 309 311 311 301 287 293 296 303 297 297 294 297 297 297 295 292 295 294 291 289 288 298 302 298 295 297 293 284 280 280 283
303 305 305 305 306 307 308 308 309 309 310 309 311 311 310 310 310 310 305 292 288 295 299 297 296 293 293 296 297 296 293 292 295 295 290 290 291 301 303 303 300 296 291 296 289 286 281
303 304 305 304 304 305 306 307 308 309 309 309 306 308 308 312 312 308 301 291 296 302 303 302 293 295 290 293 293 293 293 296 295 298 297 296 290 298 301 302 301 297 299 290 288 280 279
302 304 303 303 303 304 304 306 308 309 309 310 306 302 310 314 311 302 292 293 297 303 304 301 298 295 294 293 294 292 294 297 298 298 299 298 293 293 299 296 294 294 292 293 292 287 281
301 303 303 303 303 303 304 305 307 308 308 307 304 295 309 313 296 295 293 297 299 300 304 303 303 300 296 295 294 293 293 296 301 302 297 299 294 288 293 299 302 297 294 294 283 284 285
301 302 302 302 302 302 303 304 306 308 308 302 299 300 308 308 288 289 295 297 299 298 300 301 301 302 301 296 292 295 296 303 302 302 298 299 292 285 289 294 298 295 295 295 294 288 285
301 301 301 302 301 301 302 301 305 307 308 304 301 293 301 303 299 292 292 294 294 300 299 301 301 303 299 297 298 295 298 303 304 303 302 301 295 289 285 289 292 291 294 294 291 282 285
300 301 301 301 301 301 302 301 303 306 307 304 301 294 298 292 294 294 294 294 293 293 299 303 300 300 298 294 294 295 300 300 303 301 301 298 291 292 293 294 295 293 293 293 291 291 286
300 300 300 300 300 300 301 301 301 305 307 300 297 295 300 297 298 295 292 292 293 295 297 295 297 301 301 296 296 294 299 298 297 299 297 298 290 290 289 293 292 290 292 292 292 292 292
300 300 299 300 300 300 301 301 302 303 305 297 302 302 301 296 296 294 293 293 294 297 299 300 301 300 299 300 301 300 303 304 302 298 295 295 292 286 284 288 288 283 289 292 292 293 292
299 299 299 299 300 300 300 300 302 302 305 302 301 303 298 291 298 296 297 298 296 297 295 300 301 300 303 307 305 302 301 302 302 299 301 294 291 285 281 282 276 291 296 294 292 292 293
299 299 299 299 300 300 299 302 302 301 305 302 305 304 299 291 298 299 299 297 299 299 299 300 304 307 308 304 296 292 289 291 295 298 299 300 290 284 280 280 287 291 292 290 289 289 294
299 299 299 299 299 300 299 298 298 299 301 303 302 306 304 294 295 302 299 299 296 296 296 301 308 309 308 299 290 286 284 290 290 294 299 296 293 287 282 278 276 288 293 296 295 284 295
299 299 299 299 300 300 300 299 299 300 302 303 301 305 301 299 300 303 299 297 301 297 295 301 303 302 306 289 286 285 285 294 286 286 284 284 283 281 276 277 282 293 296 296 283 284 296
299 299 299 299 300 300 300 300 300 300 305 303 299 306 301 299 301 306 305 298 301 300 294 299 299 299 295 288 289 289 285 289 288 292 288 286 283 279 281 278 279 298 296 289 291 296 297
299 299 299 299 300 300 300 301 302 304 305 304 298 305 307 298 300 306 307 308 305 305 303 300 300 300 300 294 295 292 288 286 287 284 295 287 289 286 288 286 295 298 297 298 299 297 297

GFSGBSN_sfc_thetae_057.txt.gz
Theta_e
316 316 316 317 318 319 320 321 321 322 320 320 319 319 319 319 319 318 316 315 315 316 316 316 317 317 309 300 301 311 326 324 318 309 305 302 301 299 295 296 295 293 298 300 307 307 305
315 315 315 316 316 316 317 319 319 320 320 319 318 318 318 318 318 317 316 315 314 315 316 316 316 317 306 294 307 318 313 312 309 306 303 304 303 303 298 297 296 303 305 305 305 306 306
314 315 315 315 315 315 316 317 317 317 320 320 319 318 317 317 317 316 316 314 314 314 315 315 316 313 305 297 307 308 311 308 311 307 302 304 305 302 302 299 302 301 299 301 301 303 302
314 314 315 314 314 314 315 316 316 317 317 320 320 318 317 316 316 315 314 313 313 314 315 315 315 307 298 310 311 313 310 310 311 310 306 307 307 304 302 302 300 296 295 292 301 303 303
313 314 313 313 314 314 314 315 316 316 317 317 319 318 317 315 314 313 313 313 313 315 315 315 306 303 300 315 308 313 313 309 309 309 307 310 306 301 301 297 291 291 288 291 296 304 302
313 313 313 313 312 313 314 314 315 316 316 316 318 318 317 316 314 313 312 313 313 313 312 314 311 296 300 303 309 310 310 310 306 307 305 304 300 296 295 291 285 289 289 291 290 299 302
312 313 313 312 312 314 314 314 313 315 315 315 317 318 317 316 314 312 309 305 302 303 304 301 299 297 301 307 312 306 308 306 305 304 297 300 295 292 295 296 299 296 294 292 294 298 299
311 311 313 312 312 314 314 314 313 314 315 314 315 317 317 316 314 312 306 300 302 304 297 305 306 304 308 310 305 307 308 301 299 295 299 296 294 299 300 300 298 296 294 293 295 297 298
309 310 311 311 311 312 314 314 312 313 314 313 314 315 316 315 312 308 304 304 310 308 296 302 307 306 307 310 305 305 305 301 297 295 296 292 296 302 300 297 296 294 294 293 293 295 296
307 307 310 310 310 311 312 313 312 313 313 313 313 314 314 312 307 306 305 311 310 307 290 295 304 306 309 308 299 307 306 302 298 295 296 295 299 298 296 296 297 291 298 297 295 291 285
306 306 305 309 310 310 309 312 312 312 313 313 312 314 313 312 304 305 311 311 309 307 276 295 303 310 308 300 299 301 305 301 297 298 297 294 297 296 295 296 298 294 298 297 296 291 289
304 305 306 305 308 308 308 308 311 311 312 312 312 312 313 310 307 307 310 311 311 291 279 295 303 301 298 297 298 300 301 302 301 298 297 294 301 299 297 300 300 300 297 295 293 291 284
304 305 305 305 307 307 308 308 310 310 310 312 311 312 312 313 303 310 310 308 293 285 295 295 296 297 296 294 295 297 296 293 292 289 289 294 296 299 302 295 298 296 290 282 282 281 282
305 304 304 305 306 307 308 307 308 309 309 310 310 309 312 313 309 308 310 302 285 291 293 301 296 295 292 295 295 296 293 290 293 293 289 288 286 295 299 296 294 294 291 283 279 279 281
305 304 304 304 305 307 306 307 307 309 308 309 309 304 308 313 312 307 305 291 287 293 298 294 294 291 290 295 295 294 292 291 293 294 289 288 289 299 301 300 298 294 290 293 286 285 281
306 305 304 304 304 306 306 306 306 307 308 309 302 300 303 314 313 306 298 292 294 300 301 300 290 292 289 291 292 292 291 295 294 296 296 293 287 296 300 301 300 296 298 288 287 280 279
306 305 304 303 303 304 305 305 306 307 308 308 299 295 305 313 311 299 290 291 296 302 302 299 296 293 293 291 292 291 292 295 296 296 296 295 291 290 297 294 293 292 291 290 290 285 280
305 304 303 303 303 304 305 305 305 306 307 305 296 290 309 311 296 293 291 295 299 298 301 300 300 299 296 294 292 292 293 295 299 298 294 296 292 286 292 297 299 294 293 292 283 284 284
305 304 303 303 302 303 304 304 305 305 307 301 293 297 309 307 291 289 294 295 298 297 298 297 298 300 299 294 290 294 295 299 301 298 296 297 290 284 287 292 295 293 294 294 291 287 283
305 304 303 303 302 303 303 303 303 304 306 301 294 291 299 302 301 294 291 292 293 300 298 298 298 300 298 295 297 293 294 301 302 300 301 300 292 289 285 289 293 291 292 292 291 282 284
305 304 303 302 302 303 302 303 303 304 305 300 295 291 295 291 294 296 293 293 292 293 298 298 295 296 296 292 293 293 298 299 301 299 298 297 290 290 291 292 292 291 292 292 290 289 285
304 303 302 301 302 302 303 303 303 304 305 297 292 295 297 292 296 296 293 291 292 295 295 293 293 298 297 294 296 292 298 296 296 297 295 296 288 288 288 291 291 289 292 291 291 290 290
304 303 301 301 302 302 302 302 302 302 301 296 296 300 297 294 293 293 292 292 293 296 298 298 296 295 293 298 302 301 301 301 299 297 294 293 290 285 283 287 287 283 288 291 291 292 291
303 302 301 301 302 301 301 301 301 301 300 298 296 301 297 289 293 292 294 296 293 295 294 298 298 295 299 306 304 301 299 300 300 298 298 292 288 284 281 282 275 289 294 293 291 290 291
302 301 301 301 301 301 301 301 301 301 301 295 299 299 298 288 294 296 294 295 295 297 296 297 298 300 306 304 295 291 287 290 292 297 297 297 288 282 280 281 285 290 290 290 289 287 292
301 301 301 300 300 300 300 300 300 301 300 298 297 303 299 294 293 298 295 296 294 293 294 296 303 307 305 298 289 286 285 290 290 292 296 294 291 286 279 278 277 289 293 294 293 283 294
300 300 300 300 299 299 300 300 300 301 301 298 299 304 299 294 298 300 296 295 298 296 293 294 301 301 303 287 286 285 286 293 286 286 285 284 284 283 276 277 283 291 295 294 283 285 294
299 299 299 299 299 299 299 300 300 301 302 298 298 304 300 297 299 302 303 298 298 299 291 296 298 297 293 288 289 286 284 288 287 290 287 287 284 279 279 275 280 295 293 287 290 294 296
299 299 299 299 298 299 299 299 299 300 301 300 297 305 306 298 298 302 303 304 303 303 300 298 297 298 298 293 290 288 286 284 286 284 293 287 289 286 287 286 294 296 294 295 296 296 296

GFSGBSN_sfc_thetae_060.txt.gz
Theta_e
315 315 315 315 316 316 316 318 318 319 319 321 320 320 320 320 320 318 317 315 316 316 315 316 316 317 309 297 298 305 323 325 315 308 302 301 300 298 294 294 294 291 298 303 306 306 305
313 314 315 315 315 314 314 316 317 317 317 319 320 319 319 318 318 318 317 315 315 314 315 316 316 317 305 292 303 314 308 308 309 305 302 301 301 301 297 296 295 303 301 303 303 304 306
314 314 314 314 315 315 314 315 315 316 317 317 318 319 318 318 318 317 316 315 314 314 315 315 316 312 303 296 304 307 311 308 308 306 301 303 304 300 301 297 302 301 298 300 300 302 301
314 313 313 314 313 314 313 314 314 315 316 316 317 318 318 317 316 316 315 314 313 314 314 315 315 307 296 307 308 311 310 310 309 309 304 305 305 302 300 300 298 296 293 291 297 301 301
314 314 313 313 312 313 313 312 313 314 315 316 316 316 317 316 315 314 313 313 313 315 315 314 305 301 297 311 305 308 311 308 307 307 306 308 304 299 299 294 289 290 286 289 293 303 299
310 313 313 313 313 312 313 313 313 313 314 314 315 316 317 316 315 313 312 312 313 312 312 313 310 298 299 300 306 309 310 309 304 304 304 302 298 294 293 290 284 287 287 292 290 297 299
308 309 311 312 312 312 312 313 313 312 313 314 315 315 316 317 316 313 309 304 299 301 305 300 300 297 298 307 310 305 306 305 304 302 295 299 294 290 292 293 295 295 294 292 293 298 294
308 309 308 309 312 312 312 312 313 312 313 314 314 314 315 317 316 313 308 299 300 303 297 303 305 303 305 308 303 306 306 299 298 293 297 295 292 296 297 298 296 295 294 292 295 296 295
307 307 308 307 309 311 311 311 311 312 312 313 313 313 314 315 313 309 303 303 309 308 296 298 304 303 304 307 302 302 304 299 295 293 295 291 295 300 298 296 294 293 292 291 292 294 294
307 307 307 308 308 308 311 310 310 311 312 312 312 312 312 313 308 306 303 310 310 307 288 292 300 303 307 307 300 308 304 301 296 293 294 293 297 297 295 294 295 289 296 296 294 290 285
307 306 306 307 307 307 309 309 309 310 312 311 311 312 312 312 306 304 309 310 310 304 276 294 302 309 306 300 298 299 303 300 295 295 295 292 294 294 293 294 297 293 297 295 295 291 287
307 307 306 306 306 306 306 309 308 309 311 311 311 311 311 311 309 308 310 310 309 289 278 291 301 300 298 296 297 298 299 301 300 297 295 293 298 297 296 298 298 298 295 292 291 289 283
307 307 306 306 305 305 306 307 308 308 309 310 310 311 311 313 307 309 310 306 294 283 294 292 296 297 294 292 293 295 294 293 291 288 288 292 294 296 299 294 296 294 289 282 281 280 281
307 307 307 306 305 305 305 306 308 307 308 309 309 309 309 311 312 309 310 300 285 290 291 298 296 295 292 292 292 294 291 290 291 291 287 287 285 294 297 295 292 292 290 283 279 278 281
307 307 307 306 305 305 305 306 307 307 307 308 308 302 303 307 313 309 303 290 286 291 296 294 293 289 289 293 292 292 290 289 292 293 288 286 287 296 299 299 296 292 288 291 285 284 280
307 307 307 306 305 304 304 305 307 307 307 307 303 298 298 308 314 306 295 291 294 297 300 299 289 291 286 289 290 290 289 293 292 295 294 292 285 294 298 299 298 294 296 287 285 280 279
306 306 307 306 305 304 304 305 306 306 306 307 301 293 298 308 311 301 289 290 297 301 301 297 295 292 291 290 291 289 290 293 295 294 294 293 289 288 295 293 292 291 290 289 289 284 280
306 306 306 306 305 304 304 304 305 306 305 303 298 286 302 310 295 297 293 292 298 298 300 298 298 297 294 292 290 290 291 294 297 296 292 295 289 284 290 294 296 293 292 290 283 283 283
306 306 306 306 305 304 303 304 305 305 305 298 293 291 307 306 288 291 296 294 296 296 296 295 295 298 298 292 288 291 293 297 297 296 294 295 288 282 285 289 294 292 293 292 289 285 283
305 305 305 306 305 304 303 303 304 305 305 300 293 284 296 299 296 292 292 292 291 299 297 297 296 297 296 293 294 291 293 298 300 298 300 298 291 286 283 286 290 289 291 292 290 282 284
303 305 305 305 305 304 303 303 304 304 305 300 293 287 294 289 290 292 294 294 291 291 297 297 294 295 294 290 291 291 296 298 299 299 297 295 288 289 289 290 291 290 290 289 288 288 285
303 304 305 305 304 303 303 303 303 304 304 298 289 289 295 291 293 292 294 292 291 293 294 293 292 294 295 291 293 292 297 295 294 295 294 294 288 288 287 289 290 288 291 290 290 289 288
304 303 304 305 304 303 303 303 303 304 303 292 295 295 295 292 293 290 291 292 292 295 296 297 296 294 293 295 298 300 300 299 298 294 292 291 289 285 284 286 287 283 288 290 291 291 290
303 303 303 305 303 303 302 302 302 303 302 296 295 295 292 287 291 290 291 294 293 295 293 297 298 294 297 302 302 300 298 298 297 295 296 290 287 284 281 281 275 289 292 292 291 290 290
303 303 303 304 303 302 302 302 302 302 303 297 296 295 294 286 292 293 292 293 295 296 295 297 298 300 302 302 294 290 287 289 291 295 295 294 287 283 281 280 284 288 290 289 288 287 291
302 302 304 303 302 302 301 301 301 302 303 299 297 297 296 292 290 295 293 294 292 291 292 295 300 303 303 294 290 285 284 288 288 290 295 292 290 286 279 278 277 287 292 292 291 283 292
301 303 303 302 301 301 301 301 302 302 303 298 296 298 295 291 297 297 292 292 296 293 289 292 297 297 300 284 282 283 285 292 286 286 286 284 283 282 276 277 283 292 292 293 283 286 292
303 302 301 301 301 301 301 301 301 301 302 296 295 300 296 293 298 301 300 296 296 296 289 293 297 295 289 286 286 284 282 288 287 291 289 288 285 281 279 277 281 293 292 288 290 291 293
301 301 301 301 301 301 300 300 301 301 300 297 291 298 303 298 297 301 301 302 302 301 298 297 294 296 296 292 288 286 284 284 287 284 293 287 291 287 289 288 294 294 292 293 294 294 295

GFSGBSN_sfc_thetae_063.txt.gz
Theta_e
314 314 314 315 315 314 314 314 315 316 317 317 317 320 321 321 320 319 317 316 317 316 316 316 316 317 311 300 299 312 325 327 318 312 306 304 303 303 300 300 299 296 300 307 307 309 309
314 314 314 314 314 314 314 315 314 314 315 316 316 317 319 320 319 319 318 316 316 315 315 315 316 316 307 294 306 312 311 311 312 308 307 306 305 306 302 301 300 306 305 306 308 308 308
313 315 314 314 313 314 314 314 313 313 314 315 316 316 316 318 319 318 317 316 315 315 315 315 315 313 304 299 308 309 312 311 310 309 305 307 308 306 305 301 308 305 303 304 306 308 306
310 311 314 313 313 312 312 313 313 313 313 314 315 315 315 316 317 317 316 315 314 314 315 315 315 310 298 308 310 310 312 312 313 311 308 309 309 306 305 305 301 302 299 296 303 306 305
308 309 311 311 312 313 312 312 312 313 313 313 314 314 314 314 315 316 315 314 314 315 315 315 309 304 298 311 304 309 313 310 310 310 310 309 309 304 303 300 296 296 294 294 297 306 304
307 307 310 311 311 312 312 312 311 312 313 312 313 314 314 314 315 315 313 313 314 313 313 313 310 301 303 302 307 311 313 312 309 309 307 306 304 301 299 298 291 293 292 295 296 300 304
308 307 307 309 311 311 312 311 311 311 312 312 312 314 314 313 315 314 311 308 299 302 307 303 301 300 299 308 311 309 310 308 308 306 301 303 299 296 298 298 297 296 296 295 298 301 299
310 309 307 307 309 309 310 312 310 311 311 312 312 313 313 313 315 313 310 304 301 305 298 305 305 304 306 309 304 307 309 303 302 297 301 300 297 300 299 299 299 298 296 296 298 300 299
310 309 309 308 307 308 308 310 311 310 310 312 311 312 313 312 314 310 308 305 309 311 299 302 303 302 304 307 302 303 305 303 299 296 298 296 298 301 300 299 297 297 295 295 295 298 298
309 309 309 309 308 308 308 309 310 310 310 310 311 310 311 312 309 309 305 311 311 311 292 292 298 303 306 306 300 308 306 304 299 297 297 297 299 298 298 297 298 294 299 298 296 295 291
308 308 308 308 308 308 307 307 308 310 309 309 310 310 310 312 307 304 308 312 311 307 279 294 301 310 307 301 301 303 306 304 298 297 299 296 297 297 296 298 299 297 299 298 297 295 293
307 307 308 308 308 307 307 306 307 308 309 309 310 310 310 309 310 310 312 313 311 291 280 292 301 300 300 301 299 300 302 305 303 300 299 297 302 300 300 300 300 300 299 296 295 294 290
307 307 307 308 307 307 307 306 306 307 308 308 309 310 309 312 306 312 312 307 293 285 294 291 296 298 297 295 295 297 297 297 295 292 293 296 297 301 302 298 300 298 294 288 287 288 287
307 307 307 308 307 307 307 306 306 306 307 308 308 308 308 309 313 311 311 297 285 291 291 298 297 297 293 294 294 295 294 294 295 295 291 291 289 297 301 299 297 296 295 290 282 284 287
307 307 307 307 307 307 307 306 305 306 306 307 308 305 304 306 311 310 301 288 288 292 295 294 294 293 292 293 294 295 293 294 296 296 293 290 290 299 301 301 300 296 293 296 289 288 287
307 307 307 307 307 307 307 306 305 305 307 306 300 299 301 306 311 305 295 290 294 297 300 299 291 293 291 291 291 293 291 295 295 297 300 296 290 297 300 302 300 298 299 292 291 284 282
306 307 307 306 306 307 306 306 305 305 306 306 298 293 300 307 308 298 289 290 295 300 301 297 296 295 292 290 292 291 292 295 298 296 298 296 294 292 298 297 296 296 295 293 293 290 286
306 306 306 306 306 306 306 306 305 305 306 303 296 286 300 305 290 293 290 294 297 298 301 298 299 297 295 293 292 292 292 296 298 298 295 299 294 289 293 298 299 298 296 295 291 288 288
305 306 306 306 306 306 306 305 305 304 305 299 290 291 301 300 285 287 293 294 297 296 297 296 296 298 301 295 290 293 294 299 297 298 297 298 292 287 289 294 298 296 296 295 293 291 288
304 305 306 306 306 306 306 305 304 304 305 299 291 285 293 295 293 290 289 292 292 298 297 298 296 298 298 296 297 293 294 299 299 299 299 300 293 291 287 290 294 293 294 294 295 289 290
304 304 305 306 306 306 306 305 304 304 305 299 292 287 292 285 287 289 291 292 291 291 297 298 295 295 296 293 294 293 297 300 301 300 299 300 292 292 292 292 294 294 294 293 293 294 291
304 304 304 305 305 305 305 304 304 304 304 296 288 289 291 293 290 288 291 290 291 293 295 293 293 295 296 294 295 294 297 299 298 298 298 297 293 292 291 293 292 292 293 293 294 293 293
304 304 304 304 305 305 305 304 303 303 303 294 296 296 292 291 290 287 287 290 292 295 296 298 296 295 294 296 300 301 303 302 301 299 296 295 292 290 288 290 291 287 292 293 294 295 295
303 304 304 304 304 305 305 303 303 303 302 298 296 295 290 286 290 288 289 293 292 294 293 296 299 295 299 304 304 302 301 300 299 298 299 293 292 289 287 285 282 294 295 296 295 296 296
302 303 303 303 303 304 304 303 302 303 302 297 297 295 292 285 291 291 291 291 295 296 295 296 298 301 303 301 295 291 290 292 294 297 296 297 291 287 286 286 289 291 293 294 293 294 297
302 303 303 303 302 304 303 302 302 303 303 298 295 298 296 289 289 294 292 292 291 292 293 296 302 306 303 295 290 286 286 290 290 292 295 293 293 292 284 284 283 292 295 296 297 289 297
302 302 303 302 301 303 302 302 302 303 303 298 296 299 296 291 295 296 292 291 296 293 291 294 297 298 302 288 287 286 286 293 289 288 288 288 287 287 283 287 289 294 296 297 289 293 297
301 302 302 301 302 303 302 302 302 302 303 299 296 299 295 293 294 299 300 295 296 295 290 294 295 296 292 288 288 288 286 290 291 293 290 290 288 286 285 285 285 296 293 292 298 296 298
301 302 302 302 303 302 301 301 301 302 303 301 294 300 300 293 296 301 302 303 303 301 297 299 296 296 296 293 291 290 288 287 291 288 294 290 294 291 292 293 299 297 300 299 298 299 298

GFSGBSN_sfc_thetae_066.txt.gz
Theta_e
314 315 314 314 314 315 314 315 315 314 314 314 315 316 318 319 321 320 319 318 318 318 317 317 317 317 315 306 305 317 328 327 321 315 311 308 306 308 304 306 306 303 306 310 309 311 312
311 313 314 315 314 314 313 314 315 314 314 314 315 315 316 317 318 319 319 318 317 317 317 317 316 316 311 300 310 318 317 317 315 314 311 311 310 311 307 306 305 310 309 309 311 311 313
309 311 311 312 314 314 313 312 313 313 313 313 314 314 315 316 316 317 318 317 316 316 316 316 316 315 307 305 312 318 316 315 317 314 310 312 312 310 310 306 312 311 307 310 311 312 309
308 308 309 311 312 313 313 313 312 312 313 313 313 313 313 314 314 315 316 316 316 316 316 316 315 314 303 312 315 312 315 316 317 316 314 314 314 312 310 310 307 305 305 299 308 310 310
309 309 308 309 310 311 312 312 312 312 312 312 312 312 313 313 313 314 315 315 315 316 315 315 314 310 302 313 309 312 313 311 314 316 316 312 313 310 309 304 301 302 297 298 300 309 307
310 310 309 310 309 310 311 312 312 312 311 311 312 312 312 313 313 313 314 314 317 313 315 315 314 305 308 305 310 314 317 313 312 312 310 310 310 306 306 302 293 296 297 298 299 304 306
310 310 311 310 310 309 309 311 312 311 311 311 312 312 312 313 313 314 315 318 310 306 310 306 305 305 305 311 315 313 316 313 312 310 305 309 303 300 301 303 302 301 299 298 301 305 303
308 310 310 310 310 309 308 309 310 311 311 311 311 311 311 312 313 314 314 311 310 309 300 308 307 308 311 311 306 312 315 307 306 303 306 304 301 305 305 304 302 301 299 299 302 304 303
308 309 309 310 310 310 309 309 309 310 311 310 310 311 311 312 313 313 314 313 313 313 301 304 308 305 306 310 304 307 311 308 304 302 303 301 302 305 304 303 301 301 299 299 298 303 304
308 307 308 309 310 310 310 310 309 309 310 310 309 310 310 311 309 315 312 315 317 316 298 297 300 305 307 308 303 311 313 308 304 301 303 302 306 302 302 300 302 298 303 301 300 299 295
307 307 308 308 309 309 309 309 309 308 309 310 309 309 310 310 309 310 313 319 316 313 284 298 301 311 308 302 303 305 313 307 302 302 303 300 301 301 300 301 304 299 303 302 301 300 299
307 307 308 308 308 308 308 308 308 308 308 309 309 309 309 309 310 314 317 319 313 295 284 294 303 302 301 302 302 306 306 309 309 303 304 303 306 305 303 304 305 305 303 301 302 300 293
307 307 307 307 308 308 308 308 308 307 307 308 309 308 308 310 305 317 318 311 295 287 296 293 298 301 300 298 300 302 301 300 298 295 296 300 301 305 305 302 304 303 300 293 291 291 291
306 307 307 307 307 308 308 308 307 307 306 307 308 307 308 310 311 314 312 298 286 290 293 299 300 299 296 298 299 300 299 297 302 300 297 294 292 301 305 303 300 301 301 294 285 287 291
307 307 307 307 307 308 308 308 307 307 306 306 307 306 304 308 312 310 302 289 289 294 297 295 297 296 294 297 298 299 299 298 301 302 295 295 294 302 304 305 305 300 297 301 294 294 293
306 306 307 307 307 307 307 307 307 307 306 306 304 300 300 308 311 304 294 290 294 299 300 300 292 298 293 293 295 297 297 300 300 303 305 300 294 300 304 306 304 303 304 295 297 286 285
306 306 306 306 307 306 307 307 307 307 306 306 301 292 303 309 310 295 286 291 296 302 303 299 296 296 295 294 295 296 296 298 302 302 304 302 299 297 302 300 299 300 299 299 299 296 289
305 305 306 306 306 307 306 307 307 306 305 304 297 286 306 309 289 291 288 295 298 299 304 301 300 299 298 295 295 295 296 299 303 304 299 303 300 294 296 303 304 304 301 301 294 292 295
305 305 305 305 306 306 306 306 306 306 305 302 291 292 307 305 283 284 293 294 297 298 298 300 298 300 302 299 293 297 298 303 303 303 301 303 297 292 293 297 302 299 301 301 300 298 294
306 305 305 305 306 306 306 306 306 306 305 302 292 285 293 295 297 290 289 290 292 299 299 301 299 301 298 297 301 295 297 300 303 303 303 304 299 295 291 294 298 296 298 300 299 294 294
305 306 305 305 306 306 306 306 306 305 305 300 292 289 294 284 288 291 291 292 290 291 298 301 299 298 298 295 296 296 297 300 300 300 303 304 296 298 298 298 298 297 297 298 297 297 294
304 304 304 305 304 305 305 306 306 305 305 296 288 291 296 292 293 291 290 290 290 293 296 295 296 298 299 296 297 295 298 300 300 302 302 304 296 298 295 298 297 295 298 298 299 299 299
303 304 303 304 304 305 305 305 305 305 303 294 298 299 296 292 291 289 290 289 291 295 298 299 299 297 296 298 302 302 303 303 302 300 301 301 298 296 292 296 296 291 296 298 300 301 301
302 303 303 303 304 304 304 304 305 304 302 301 298 298 293 288 291 289 290 291 291 294 295 299 301 298 301 305 304 303 302 301 302 301 303 300 299 298 293 291 286 297 301 303 301 302 303
302 302 303 303 304 304 304 303 304 303 303 301 300 299 295 290 292 291 291 290 293 296 297 298 302 304 306 302 295 290 292 295 298 301 302 304 300 295 292 291 295 297 296 299 299 299 305
302 302 302 303 303 303 303 304 304 303 303 301 303 304 300 293 292 294 292 293 292 294 296 298 304 308 305 298 296 288 283 292 293 295 300 299 300 298 292 289 287 297 302 305 303 294 305
302 302 302 303 303 303 303 304 303 303 303 301 302 306 301 293 296 297 293 291 296 296 297 298 301 302 305 296 292 290 288 294 291 291 292 294 294 293 293 293 296 301 300 303 293 297 306
301 300 301 302 303 303 303 303 303 303 303 301 300 306 302 296 298 300 300 297 296 299 295 299 298 300 299 294 293 293 292 293 293 297 295 294 293 292 293 291 289 300 298 297 305 307 307
302 302 302 302 302 302 302 303 303 302 302 301 296 304 306 299 297 303 304 305 303 304 301 303 299 300 301 297 298 299 294 294 294 289 299 292 298 298 297 298 305 304 306 307 307 308 306

GFSGBSN_sfc_thetae_069.txt.gz
Theta_e
311 311 312 314 315 315 313 315 315 314 314 314 314 315 314 315 317 318 318 319 319 319 319 319 319 318 316 310 310 321 328 329 320 318 314 311 308 307 305 307 307 306 308 310 311 311 312
310 310 310 311 312 314 314 314 314 313 313 313 313 314 314 314 316 317 317 317 318 318 318 318 318 316 312 303 314 316 319 323 320 317 313 312 311 312 309 307 306 311 310 310 311 311 312
310 309 309 311 311 311 312 314 313 313 313 313 313 313 313 314 314 315 316 316 317 317 318 318 317 316 310 308 317 318 318 318 319 316 312 315 315 312 312 307 311 310 306 309 309 311 309
310 310 310 310 310 310 311 312 313 313 313 312 313 313 312 313 313 314 314 315 316 317 317 317 316 316 308 317 318 314 317 319 320 319 316 317 317 314 311 312 308 305 306 300 305 310 310
312 311 310 311 310 310 310 310 312 313 313 312 312 312 312 311 312 313 313 314 316 318 317 316 316 314 306 314 310 313 314 313 318 318 319 317 316 311 311 304 301 303 297 300 303 309 308
309 310 312 312 311 311 310 310 310 312 312 312 312 311 312 311 312 312 312 314 317 316 316 318 316 308 310 307 312 313 314 314 314 315 313 312 310 306 307 303 295 296 298 299 299 306 307
308 308 309 311 312 312 311 311 310 311 312 312 312 311 311 312 312 312 314 318 312 312 314 306 307 304 306 311 316 312 314 312 313 312 305 309 304 301 304 306 304 302 301 300 303 306 303
307 307 308 308 309 311 310 310 310 309 310 312 312 311 311 311 312 313 316 310 310 313 303 309 309 309 313 313 307 310 316 308 307 304 307 306 301 307 307 304 302 302 300 300 304 305 304
308 308 307 307 308 308 310 311 310 310 309 310 311 311 310 311 312 312 313 313 319 317 305 303 306 306 307 310 306 308 312 309 305 303 304 302 305 308 305 303 301 302 301 301 300 304 305
307 307 307 307 307 308 309 311 311 310 309 309 310 310 309 310 306 311 311 318 320 320 298 297 304 307 307 308 303 311 313 309 306 302 304 303 307 305 304 302 304 299 305 303 302 300 293
307 307 307 308 308 308 308 309 310 310 309 309 310 310 309 308 307 309 315 322 322 316 282 300 303 312 308 304 304 305 314 308 303 303 304 300 303 303 301 302 305 301 305 303 303 301 300
306 307 307 308 308 308 308 308 309 309 309 308 308 309 309 307 309 309 317 320 318 296 283 296 304 301 302 303 303 306 307 311 309 304 304 303 308 306 305 306 306 306 303 304 304 302 294
306 306 307 307 307 308 308 308 308 308 308 308 308 308 308 308 303 313 315 311 294 286 296 294 299 302 301 299 300 303 302 301 299 296 297 301 302 306 307 303 306 305 301 294 292 292 292
306 306 306 307 307 307 307 308 308 308 308 308 307 308 307 306 311 312 307 298 286 292 293 301 300 302 297 300 298 301 300 299 303 301 298 295 293 302 306 304 302 302 302 295 287 289 292
306 306 306 306 307 307 307 308 308 308 307 307 307 306 304 309 312 310 297 286 288 293 297 296 299 298 296 299 298 299 299 299 301 303 297 296 296 305 306 306 306 302 299 304 297 297 293
306 306 306 306 307 307 307 307 307 308 307 307 302 302 301 310 312 306 291 288 293 297 298 299 293 299 295 296 295 296 298 301 301 304 306 301 295 302 304 306 306 304 307 297 298 288 287
306 306 306 306 306 306 306 307 307 307 307 306 300 294 303 310 309 297 285 291 295 299 300 298 297 295 298 297 297 295 297 301 303 303 305 304 300 299 303 300 299 300 300 301 301 297 291
305 305 306 306 306 306 306 307 307 307 307 304 297 288 304 311 289 291 287 293 297 297 301 301 302 301 298 299 297 295 295 300 304 305 300 304 301 295 298 304 305 305 301 302 295 293 297
305 305 305 306 306 306 306 306 307 307 306 300 292 293 306 306 285 287 293 293 296 296 297 299 299 301 303 301 295 298 298 303 304 304 302 304 298 293 295 299 303 301 303 303 303 301 295
304 305 305 306 306 306 306 306 306 306 307 301 292 286 294 297 297 292 290 290 291 297 297 299 300 302 301 300 303 297 298 301 306 305 304 305 300 296 292 295 300 297 299 302 301 297 296
304 305 305 305 306 306 306 306 306 306 306 300 292 290 295 285 288 293 293 292 290 290 296 299 297 300 299 296 298 298 299 301 302 303 305 304 297 298 299 300 300 299 298 299 298 299 296
305 305 305 305 306 306 306 306 306 306 306 297 288 292 294 294 294 292 292 290 290 292 293 293 295 298 300 297 299 297 299 299 299 303 303 305 297 299 296 299 299 297 298 299 299 299 299
304 304 304 304 304 305 306 305 305 306 305 295 297 301 297 292 292 290 292 292 291 293 296 297 297 297 298 301 305 304 303 301 302 303 302 302 300 297 293 298 298 294 297 298 299 301 301
303 303 304 304 304 304 305 305 305 305 305 300 301 299 294 289 291 292 292 293 292 293 293 297 299 298 302 309 306 305 302 300 300 301 304 301 300 299 295 293 287 298 304 303 301 302 304
302 302 303 303 304 304 304 304 305 305 305 300 303 300 295 290 293 292 293 293 295 295 294 296 300 303 308 304 298 293 292 293 297 300 302 304 301 298 293 293 295 298 300 300 299 299 304
303 302 302 302 302 303 303 303 304 304 305 301 302 307 300 294 292 295 293 294 292 292 293 297 303 307 306 300 295 288 285 289 291 295 302 302 303 299 296 289 287 297 302 306 306 296 306
302 302 302 302 302 302 303 303 303 303 305 301 300 308 302 294 297 297 293 294 297 295 294 296 301 303 306 298 293 291 289 294 288 290 292 295 296 294 294 293 296 302 305 307 295 297 307
301 302 302 302 302 302 303 303 303 303 304 301 300 307 303 296 297 300 300 297 297 297 293 298 298 299 300 295 293 294 294 293 292 294 295 295 293 294 296 293 290 306 302 298 306 310 310
300 300 301 302 302 302 302 303 303 303 304 302 298 306 307 300 298 305 305 306 304 302 300 299 300 300 301 297 299 298 297 298 294 289 298 292 300 297 298 299 308 307 307 309 310 310 311

GFSGBSN_sfc_thetae_072.txt.gz
Theta_e
310 310 310 311 312 313 315 315 315 314 313 313 313 313 313 313 313 314 315 316 317 318 320 320 320 320 317 310 310 320 330 327 319 313 311 311 308 307 302 305 307 305 306 308 309 309 308
310 310 310 310 310 311 312 313 314 314 313 313 313 312 313 314 314 314 314 315 315 316 318 319 320 317 315 304 318 318 318 323 318 315 313 312 309 310 307 306 305 307 309 308 309 310 310
311 311 311 311 311 309 310 312 312 313 314 313 312 312 313 313 313 313 313 314 314 315 318 319 319 318 312 308 318 319 317 317 320 317 312 313 313 310 310 307 311 308 303 306 308 308 306
311 312 311 312 312 311 311 311 311 311 313 314 313 312 311 312 312 312 312 313 313 315 317 319 318 316 305 316 319 317 317 314 319 318 315 316 316 311 309 311 308 304 303 298 306 307 308
310 310 311 313 312 312 311 310 311 310 311 313 313 312 311 311 311 311 311 312 313 315 317 319 315 314 304 316 313 315 315 311 316 316 316 316 314 309 309 303 300 301 296 299 302 308 308
309 309 309 311 311 312 312 311 311 311 311 312 313 312 311 311 311 311 311 311 314 317 318 319 316 305 309 304 312 314 314 312 312 313 311 310 308 303 304 301 293 296 298 300 299 305 306
308 308 308 309 310 310 311 312 311 311 310 311 312 312 312 311 311 311 310 312 309 311 314 307 306 304 306 313 314 311 313 309 310 310 303 307 301 297 301 304 304 302 300 298 301 306 304
307 307 307 308 308 308 308 310 311 311 311 310 311 311 312 311 311 311 310 306 307 312 302 308 310 310 311 313 307 310 314 304 305 301 305 303 298 303 306 306 302 301 299 298 303 306 303
308 307 307 307 307 308 308 309 309 311 310 310 310 311 311 310 310 308 305 307 316 316 302 301 304 303 305 308 306 307 310 305 302 301 303 300 303 307 305 303 300 300 299 300 300 304 305
307 307 307 306 306 307 308 309 309 310 310 310 309 310 310 309 304 309 306 314 316 319 296 294 300 304 306 306 301 310 313 307 303 300 302 302 306 305 303 301 303 298 304 303 301 299 294
306 307 307 307 307 308 308 308 309 309 310 310 309 310 310 308 306 305 312 313 319 315 281 298 301 313 308 301 303 303 312 308 301 301 302 300 302 301 301 301 304 300 305 303 302 299 298
306 306 307 307 307 307 307 308 308 309 309 309 309 309 309 306 306 307 313 313 314 293 281 295 304 302 301 302 301 305 305 309 307 302 304 302 307 304 303 306 305 306 303 302 302 300 292
305 306 306 306 306 307 307 308 308 308 308 309 309 308 308 306 301 311 313 305 291 284 295 293 298 301 300 299 299 301 300 300 298 293 296 300 301 305 306 301 305 303 300 292 291 291 291
305 305 306 306 306 307 307 307 307 307 307 308 308 307 307 305 309 311 306 295 283 289 291 300 299 301 297 300 300 299 298 296 302 299 297 294 292 300 305 302 300 301 300 294 285 289 292
305 305 306 306 306 306 307 307 307 307 307 308 307 306 305 307 309 309 297 284 286 290 295 294 298 296 297 300 299 299 298 297 300 301 295 295 294 303 305 305 304 301 297 303 297 298 294
305 305 306 306 306 306 306 307 307 307 307 307 303 300 301 310 310 303 290 284 290 296 296 296 291 297 295 297 296 296 296 300 299 302 304 300 295 302 303 305 305 302 305 296 298 289 286
305 305 306 306 306 306 306 306 307 307 307 307 300 293 302 309 309 295 284 286 291 296 299 294 292 294 294 297 298 295 295 300 302 302 303 302 300 298 302 299 298 299 298 301 300 296 289
304 304 305 305 305 306 306 306 306 307 307 304 297 287 302 308 290 290 286 291 294 294 297 296 298 297 296 297 298 296 295 298 305 303 298 303 300 295 297 303 304 302 300 301 295 293 297
304 304 304 305 305 305 306 306 306 306 306 301 292 292 303 304 284 285 291 291 293 293 294 295 295 298 301 299 295 299 299 304 304 302 299 303 298 292 294 299 303 299 300 302 302 300 295
303 303 304 304 305 305 306 306 306 306 306 302 291 285 293 297 296 290 288 289 289 295 294 296 296 298 297 297 300 298 299 302 305 303 302 304 300 296 292 295 299 296 299 301 301 295 296
303 303 304 304 305 305 305 306 306 306 306 302 291 289 294 285 288 291 292 290 289 289 294 296 294 295 294 292 295 296 300 300 301 303 303 303 297 299 299 299 299 298 298 299 297 299 295
303 304 304 304 304 305 305 306 306 305 306 299 286 291 295 293 292 290 291 290 289 291 291 291 292 295 296 293 295 295 298 300 298 303 301 302 295 298 296 299 299 296 299 299 299 298 298
304 304 304 304 305 305 305 305 305 305 305 297 296 299 295 292 291 288 289 290 291 293 294 295 294 295 295 297 300 303 304 303 302 300 301 299 297 294 291 298 296 290 297 298 299 300 299
303 303 304 304 304 304 305 305 305 305 305 301 299 297 292 288 291 290 291 292 292 293 292 295 297 295 301 306 307 303 301 301 301 301 302 299 298 295 291 292 285 297 303 302 300 300 302
302 302 302 303 303 303 304 304 305 305 305 301 302 297 295 290 292 291 293 292 294 295 294 294 297 300 303 302 296 292 292 294 296 300 299 301 299 291 290 290 295 297 300 300 299 298 304
302 302 302 302 302 302 303 303 304 305 305 303 300 304 299 293 292 294 292 294 292 292 293 296 300 303 303 299 294 287 285 290 290 294 300 299 301 295 292 288 285 297 303 306 305 293 305
302 302 303 303 302 302 302 303 303 304 304 303 300 305 299 293 296 297 293 293 296 294 293 296 297 298 305 295 290 287 288 293 288 289 290 292 294 291 290 289 295 302 304 306 292 295 306
302 302 302 303 303 302 302 303 303 304 303 303 299 305 299 295 297 300 299 296 297 297 293 297 295 296 297 292 291 292 291 293 291 294 294 293 291 291 292 289 288 306 304 296 302 310 310
302 302 302 301 302 302 302 302 303 303 303 302 296 303 306 298 298 304 302 304 301 302 299 300 296 297 298 296 296 296 294 296 293 287 297 287 295 295 296 297 308 309 307 309 310 310 311

GFSGBSN_sfc_thetae_075.txt.gz
Theta_e
310 310 310 310 310 311 312 313 314 315 314 314 313 313 313 313 314 314 314 313 314 315 316 318 320 320 314 308 308 318 329 326 315 309 307 306 304 303 298 299 300 301 302 304 306 306 306
312 312 312 311 310 310 310 311 313 313 314 314 313 313 312 312 313 313 313 313 312 314 315 316 318 318 311 301 316 316 320 319 314 310 307 307 307 307 302 302 300 303 303 303 305 305 307
311 313 313 312 312 311 310 311 310 312 312 313 314 313 312 312 312 312 313 313 312 312 314 316 318 317 309 305 313 313 313 312 317 314 309 310 311 305 304 302 306 304 299 300 303 303 302
310 310 311 312 313 312 312 312 311 311 311 312 313 313 312 312 311 311 311 311 311 312 313 315 318 313 303 314 313 314 313 312 312 316 314 313 312 306 305 306 304 300 297 292 299 304 305
310 310 310 311 311 311 312 312 312 311 311 311 312 312 312 311 310 310 310 311 311 312 314 315 313 308 302 316 309 311 312 309 311 311 312 314 309 304 304 298 294 296 291 293 297 304 303
309 309 309 310 311 311 311 311 312 312 311 311 311 312 312 312 311 310 309 310 311 312 314 317 315 303 308 305 309 311 312 311 307 309 308 306 302 298 296 293 288 292 293 297 295 301 303
309 308 308 308 309 308 309 310 310 311 311 311 311 311 311 311 311 310 308 304 303 303 308 306 305 302 304 311 313 307 310 307 304 303 299 302 295 293 294 298 299 299 298 293 296 301 299
308 307 307 307 307 308 308 308 309 309 310 311 311 310 311 311 311 310 306 299 304 305 298 309 310 309 310 312 305 307 310 301 299 294 301 299 294 300 302 301 300 300 295 293 297 303 300
308 307 307 307 307 307 307 308 309 309 309 310 310 310 310 310 310 305 300 301 308 305 297 301 305 302 304 306 303 303 307 303 297 294 296 296 299 303 301 299 299 297 295 295 296 300 299
307 307 306 306 306 306 307 307 308 309 309 309 310 310 309 309 303 302 301 310 310 311 292 293 298 300 303 302 299 307 308 303 298 294 297 297 302 301 300 299 300 294 301 301 299 294 288
306 306 306 306 306 307 307 307 308 308 309 309 309 310 309 309 301 298 305 307 309 310 275 293 297 307 303 298 300 301 307 304 296 296 297 295 298 299 298 300 302 297 303 301 299 294 292
306 305 305 306 306 306 307 307 307 308 308 308 308 309 309 303 302 303 306 308 306 290 279 292 301 300 298 298 298 301 300 304 304 298 298 297 302 301 300 303 303 304 300 298 297 293 286
305 305 305 305 306 306 306 307 307 307 308 308 308 309 307 305 294 305 307 302 287 281 292 289 295 299 298 295 295 297 295 295 293 290 291 296 297 301 303 298 301 299 294 286 284 283 284
305 305 305 305 305 306 306 307 307 307 307 308 308 308 306 305 303 303 302 293 280 286 287 296 295 296 294 297 295 295 294 291 297 295 291 289 288 297 302 299 297 295 295 287 282 282 288
304 304 305 305 305 306 306 306 307 307 307 307 307 303 302 304 303 300 295 283 282 286 292 290 291 288 292 296 296 294 293 293 296 298 290 289 290 300 301 302 301 297 292 299 293 293 288
304 304 304 305 305 305 306 306 306 307 307 307 301 299 298 305 304 299 289 283 286 292 292 292 286 290 286 292 293 293 293 297 296 299 301 296 291 299 300 301 301 298 301 291 292 284 283
304 304 304 304 305 305 305 306 306 307 307 307 300 293 300 306 304 291 282 284 288 293 293 290 288 288 290 290 292 292 293 297 298 298 301 298 294 294 299 296 295 296 294 296 296 292 283
303 303 303 304 304 305 305 306 306 307 307 304 297 286 301 304 289 288 283 287 291 291 293 292 291 290 290 291 290 290 294 295 300 300 296 297 296 290 293 300 302 300 296 296 289 289 290
302 303 303 304 304 304 305 306 306 306 306 300 290 291 301 300 283 284 288 288 289 289 290 290 289 292 293 291 289 294 298 301 300 299 296 298 293 287 290 295 299 296 297 298 297 295 289
302 302 303 303 304 305 305 305 306 306 307 301 289 284 292 295 293 288 285 286 286 292 290 292 291 292 290 290 295 291 293 302 301 300 302 301 296 291 286 291 297 293 296 297 295 287 289
302 303 303 303 303 304 304 305 305 306 306 301 290 286 291 284 287 288 288 287 286 286 291 292 289 289 289 287 291 290 296 298 301 301 300 299 291 294 295 297 298 296 296 295 293 295 292
302 302 302 303 303 304 304 304 305 305 306 298 286 288 292 289 289 288 288 287 286 288 289 288 287 289 290 287 292 289 294 296 295 298 296 298 291 294 292 296 296 295 296 296 296 297 295
302 303 303 303 303 304 304 304 305 305 305 296 296 296 293 289 288 285 286 287 288 291 292 292 291 289 287 290 298 300 302 300 299 297 295 296 293 291 287 294 294 286 292 296 296 298 296
303 303 303 303 304 304 304 304 304 305 305 300 297 296 289 285 287 287 289 289 288 291 289 292 293 290 293 297 305 302 300 300 298 296 299 295 295 292 286 288 282 293 299 298 297 299 298
302 302 303 303 303 304 304 304 304 304 305 301 300 295 291 284 290 289 289 289 290 292 291 292 294 296 296 295 293 289 289 290 293 297 297 298 295 288 286 286 291 295 297 296 295 294 300
302 302 302 302 302 302 303 303 304 304 305 303 301 301 295 288 287 293 290 291 288 287 289 292 297 297 295 290 289 282 281 288 288 293 298 298 297 290 287 283 281 293 300 302 301 288 300
301 302 302 302 302 302 302 302 303 304 304 303 300 302 296 289 293 294 290 289 293 291 288 291 293 292 296 285 282 281 283 291 285 285 286 286 288 286 283 284 289 299 302 302 288 288 302
301 302 302 302 302 302 302 302 302 303 304 302 300 303 297 292 294 296 298 293 293 293 288 291 291 291 288 283 284 284 281 288 288 291 290 288 286 286 287 285 284 302 300 294 297 301 304
302 302 302 302 302 302 302 302 302 303 303 303 296 303 303 296 294 302 302 301 299 298 295 294 292 291 292 288 288 288 283 284 286 281 295 288 293 290 293 289 300 304 302 305 304 304 304

GFSGBSN_sfc_thetae_078.txt.gz
Theta_e
312 311 311 311 311 311 310 311 313 313 313 314 314 314 314 314 313 313 313 313 313 313 313 313 316 316 313 306 306 314 327 324 313 308 304 303 301 300 297 297 297 296 299 302 303 305 302
313 313 313 312 311 311 311 310 310 311 312 313 313 313 314 313 313 313 312 312 312 313 313 313 314 316 309 298 311 314 319 316 312 306 304 305 303 304 301 299 297 301 301 301 302 303 302
311 311 312 312 312 312 312 312 311 312 311 311 312 312 312 313 313 312 312 311 311 311 312 312 313 314 306 302 311 308 309 309 314 311 306 307 306 304 301 299 303 302 297 298 298 300 300
310 311 311 311 312 312 312 313 313 312 312 312 311 311 311 312 312 311 311 310 310 311 312 313 313 312 301 313 312 311 312 310 311 312 312 312 310 305 301 303 301 298 295 290 298 299 302
310 310 310 311 311 311 311 311 312 312 312 312 312 311 312 311 311 311 310 310 310 311 312 313 309 308 300 315 309 311 310 307 309 310 310 314 308 301 302 295 292 293 289 291 295 300 301
309 309 309 309 310 310 310 310 310 311 311 312 312 311 311 311 310 310 310 309 309 310 310 313 314 301 305 301 307 308 308 309 306 306 304 304 300 296 294 291 286 289 290 294 293 297 300
309 309 309 308 308 308 308 308 309 310 310 310 311 311 311 310 310 309 307 302 301 301 304 303 305 301 302 307 312 307 308 307 304 301 296 300 293 291 293 295 296 295 294 293 296 299 299
308 308 308 308 307 307 308 307 308 309 310 310 310 311 310 310 310 309 304 297 300 302 294 302 304 307 310 311 304 307 308 300 298 293 299 297 293 297 299 298 297 296 294 293 297 300 298
307 308 308 307 307 307 306 307 308 308 308 309 309 310 310 309 309 303 299 299 306 307 294 298 303 303 305 307 303 304 305 300 296 293 294 293 297 301 299 297 296 296 293 294 293 297 296
307 307 306 306 306 306 306 306 306 307 307 308 308 309 309 308 301 301 298 305 305 307 288 291 297 299 302 302 297 305 305 302 296 293 294 293 299 299 298 296 297 292 299 298 297 293 287
306 306 306 305 305 306 306 306 306 306 307 308 308 309 309 308 298 296 302 304 307 305 271 290 295 304 302 295 297 299 305 302 295 294 294 292 296 296 295 297 300 295 301 299 298 293 289
305 305 305 305 305 305 306 306 306 307 307 308 308 308 309 303 299 300 302 303 307 288 275 289 297 295 294 296 297 299 299 302 302 296 295 294 299 298 299 301 301 302 298 296 295 292 285
304 303 304 304 305 305 305 306 306 306 307 307 308 308 306 304 293 299 301 300 288 280 292 287 294 294 295 292 294 295 294 293 291 289 289 292 294 297 299 296 298 298 292 284 283 282 283
304 304 304 303 304 305 305 305 306 306 306 307 307 307 304 303 300 299 300 292 280 286 287 293 291 291 288 292 293 294 292 289 294 293 290 287 285 294 299 296 295 294 293 285 281 281 285
303 303 303 304 304 305 305 305 306 306 306 307 307 299 297 300 302 298 292 281 281 285 289 289 290 287 288 292 292 292 291 290 292 294 289 288 288 297 299 300 299 294 290 297 290 290 285
302 303 304 304 304 304 304 305 305 306 306 306 300 298 297 301 303 295 287 282 284 290 291 290 283 288 285 287 288 289 289 295 293 296 298 293 287 296 298 299 299 297 299 290 290 283 282
302 302 303 304 304 304 304 305 305 306 306 306 299 292 299 304 303 292 280 283 286 290 291 288 286 285 286 286 289 289 289 293 296 296 297 296 291 291 296 293 292 294 293 294 294 291 283
302 302 303 303 303 303 304 304 305 305 305 303 296 286 301 303 288 288 282 284 290 288 292 290 289 287 286 288 287 287 287 293 300 299 292 296 293 288 291 297 298 298 296 295 287 287 288
302 302 302 302 303 303 303 304 304 305 305 300 291 290 301 299 282 284 288 287 287 287 288 289 288 290 291 288 284 291 292 298 298 299 295 295 291 284 288 293 296 294 295 296 296 293 288
301 302 302 302 303 303 303 304 304 305 305 301 287 284 291 294 291 287 285 285 285 290 287 288 288 290 288 286 290 288 292 296 300 300 301 300 293 290 285 289 293 292 295 297 295 287 288
301 302 302 302 302 303 303 304 304 305 305 301 287 285 291 283 286 287 287 287 285 284 290 291 287 286 285 283 286 286 292 295 297 300 300 298 289 292 293 295 296 294 294 295 294 293 289
302 302 302 303 303 303 303 304 304 305 305 296 285 287 291 286 289 287 287 286 285 286 286 285 285 288 288 284 286 285 292 293 293 297 296 297 288 291 289 295 295 293 295 296 295 294 293
301 302 302 302 302 303 303 303 303 304 303 295 295 293 292 288 287 286 285 285 287 288 290 290 289 288 286 288 292 293 297 299 298 294 292 293 291 288 284 293 293 286 292 296 295 296 295
302 302 302 303 303 303 303 303 303 304 303 298 297 295 288 284 285 285 287 289 288 288 287 291 292 288 292 295 296 299 299 298 297 296 296 291 290 288 283 287 281 291 298 299 297 297 297
302 302 303 303 303 303 303 303 303 304 304 300 300 295 290 284 288 287 288 288 289 290 289 289 292 296 296 291 288 286 286 289 291 295 294 296 292 284 283 284 289 293 296 295 295 293 298
301 301 302 302 302 302 303 303 303 304 304 302 299 301 294 287 286 291 288 289 286 286 287 289 295 298 294 288 286 280 277 285 285 290 298 297 295 288 283 282 278 290 298 301 300 288 299
301 301 302 302 302 302 302 302 303 303 304 302 299 302 296 288 291 292 289 288 291 289 285 288 290 290 293 284 281 278 280 288 282 283 285 286 287 284 282 283 287 297 300 301 289 288 299
301 301 301 302 302 302 302 302 302 303 304 301 299 303 296 291 292 294 296 292 291 291 285 289 288 289 286 281 282 280 278 285 287 289 288 286 285 285 285 283 282 300 300 293 296 299 302
301 301 301 302 302 302 302 302 302 302 303 303 295 303 302 294 293 298 298 300 298 297 292 291 289 290 290 285 283 283 280 281 285 281 292 285 292 288 289 288 299 300 301 303 302 302 303

GFSGBSN_sfc_thetae_084.txt.gz
Theta_e
312 312 312 312 313 313 312 312 311 311 311 311 311 310 310 311 311 311 312 313 313 312 312 311 312 312 309 299 300 309 325 321 311 304 300 299 298 297 294 294 294 292 295 297 298 299 298
311 311 311 311 311 311 311 312 312 312 312 311 312 311 310 310 310 310 311 311 311 311 311 311 311 312 304 290 303 307 308 312 306 301 300 300 298 300 297 296 295 296 296 297 298 297 298
311 311 310 311 311 310 310 310 310 310 310 311 312 312 311 310 310 310 310 310 310 310 310 310 311 308 301 294 303 305 307 305 304 305 301 302 302 299 299 296 299 297 293 295 295 294 297
311 309 310 311 311 310 310 309 309 309 309 309 309 310 311 311 311 310 310 309 309 309 310 310 310 306 296 309 308 308 307 306 308 306 305 306 305 300 298 299 298 293 292 287 292 295 297
310 311 309 311 310 309 309 309 309 309 308 309 309 310 310 310 310 310 309 309 309 310 310 310 305 302 293 311 306 307 309 305 305 306 306 310 305 299 298 293 289 290 285 286 292 296 295
308 309 310 310 310 310 309 309 309 309 308 308 308 309 310 309 310 310 309 308 308 309 308 309 309 294 295 295 306 308 308 307 302 303 302 301 299 294 292 289 283 286 287 289 289 293 294
308 308 307 308 309 310 309 308 309 308 308 307 308 308 309 309 309 309 305 300 295 294 298 296 296 297 300 309 311 306 305 303 301 298 293 296 291 289 292 292 292 291 290 288 291 294 293
307 307 308 306 308 309 309 308 308 308 308 307 307 307 308 308 308 309 300 296 297 298 291 298 299 299 303 306 298 300 307 298 296 292 295 292 289 295 296 295 293 292 290 289 292 295 294
305 305 306 308 308 307 308 308 308 308 307 307 306 306 307 308 308 300 295 298 302 301 293 295 299 299 300 301 296 296 301 299 295 292 293 291 293 298 295 293 292 291 290 289 289 293 293
305 305 305 306 307 307 307 307 306 307 306 307 307 307 308 308 298 297 293 300 301 300 286 287 294 296 300 300 294 301 302 299 295 291 292 291 296 295 293 293 293 288 294 293 292 289 285
304 304 305 305 306 306 306 306 306 305 305 306 307 306 307 307 298 294 295 301 301 302 273 287 294 302 299 294 293 298 303 299 291 292 292 289 291 292 291 293 295 292 296 294 293 289 287
304 304 304 305 305 305 305 305 304 304 304 305 305 306 307 301 297 298 300 300 300 285 274 286 295 294 293 295 294 297 297 298 298 293 291 291 295 294 293 297 297 299 294 293 291 289 282
302 302 303 304 304 304 304 304 304 304 305 305 306 306 304 303 293 299 299 295 285 276 288 286 288 290 290 291 292 293 292 290 288 285 286 290 291 293 297 292 295 295 289 282 281 281 281
302 303 303 303 303 303 303 304 305 304 304 305 305 305 302 302 300 300 295 286 278 284 285 290 288 289 287 288 291 293 289 286 290 290 285 282 281 290 294 293 291 291 290 282 280 279 282
301 301 301 302 303 303 304 303 303 303 304 304 304 296 297 298 300 298 288 275 279 283 287 285 286 284 285 286 288 290 290 289 291 291 286 285 284 294 295 296 296 290 288 293 285 285 283
299 302 302 302 302 302 302 302 303 302 303 304 294 294 293 299 301 295 285 278 279 288 288 287 281 284 279 282 282 284 287 292 292 296 297 289 285 293 294 294 294 292 295 287 286 280 280
300 301 301 301 302 302 302 302 302 303 303 304 295 289 297 300 298 290 278 278 284 288 287 285 284 282 282 282 283 283 284 290 294 294 296 294 287 287 292 290 288 290 289 289 290 286 281
300 300 301 301 301 301 301 301 302 302 303 299 293 284 296 300 286 286 281 283 288 286 289 286 287 285 282 283 282 282 284 288 294 296 291 295 290 283 287 293 295 292 290 291 286 283 284
300 300 300 300 300 300 301 302 302 302 302 292 288 288 297 296 280 281 285 285 286 284 285 286 285 287 287 283 279 283 284 292 296 296 292 293 289 283 284 289 293 289 291 292 291 289 285
299 299 299 300 300 300 301 301 301 302 302 295 288 282 289 292 287 282 281 282 282 288 285 286 286 286 285 282 286 283 284 289 292 290 300 296 289 287 283 286 291 288 290 292 291 285 286
299 299 300 301 300 301 301 301 302 302 302 295 289 284 288 278 284 284 283 283 281 283 287 286 283 283 282 279 280 280 284 285 288 292 295 294 285 288 290 291 291 291 291 291 290 290 286
299 300 300 300 301 301 301 302 302 301 302 292 285 285 288 288 285 285 285 282 282 284 285 283 282 286 284 281 282 281 284 285 285 292 291 292 284 286 286 288 290 289 292 292 292 291 290
300 300 300 300 301 301 301 301 301 301 300 291 292 293 289 286 284 284 283 284 284 286 288 289 287 286 284 286 288 289 289 289 288 286 287 289 287 284 281 286 288 284 288 292 292 292 292
300 300 300 301 301 301 301 302 301 301 301 295 295 292 287 282 284 283 286 287 285 287 285 289 290 287 290 294 294 292 289 289 288 288 289 286 286 284 282 285 280 289 294 295 293 294 294
300 301 301 301 301 301 301 301 302 302 302 297 297 293 288 282 285 285 286 287 288 289 288 288 290 293 295 292 287 283 281 283 285 287 287 291 287 283 281 282 286 289 293 292 291 292 296
300 300 301 301 302 302 302 301 302 302 302 299 298 298 293 285 283 289 286 288 285 285 286 288 294 296 294 287 284 279 275 280 280 285 290 291 290 285 284 280 278 288 293 298 297 287 297
301 301 301 300 301 301 301 301 302 302 303 300 298 299 294 287 289 290 286 286 290 288 286 288 290 289 292 284 280 279 279 285 279 278 283 284 285 282 283 282 285 294 297 298 285 286 298
301 301 300 301 301 301 301 301 301 302 302 300 297 300 294 288 291 293 293 289 290 290 284 289 288 287 286 282 281 281 278 281 281 283 283 282 282 282 285 282 280 296 295 291 295 298 299
300 300 300 300 301 301 301 302 302 302 302 302 294 300 300 292 292 296 297 297 296 295 291 292 289 288 287 284 281 281 277 277 281 277 286 281 286 283 286 286 295 296 296 298 301 301 300

GFSGBSN_sfc_thetae_087.txt.gz
Theta_e
311 311 312 311 311 311 311 312 312 312 312 312 312 312 311 311 311 310 311 311 311 310 310 310 311 312 309 297 297 309 319 322 314 308 304 303 302 302 299 299 299 297 299 300 301 300 302
311 311 311 311 311 310 310 310 310 310 311 311 311 312 311 311 310 311 311 311 310 310 310 309 310 311 305 288 302 310 309 312 308 304 303 303 302 304 301 300 298 301 299 300 302 302 302
311 311 311 311 310 310 309 310 309 309 309 309 310 310 310 309 309 310 311 311 310 310 310 310 310 307 300 296 305 307 308 306 308 307 303 304 305 303 303 300 302 301 298 300 301 300 301
310 311 311 311 311 310 310 309 309 309 309 309 309 309 310 310 310 310 310 310 310 310 311 311 309 305 294 307 310 308 309 307 309 308 306 309 308 304 302 303 301 298 297 294 297 300 301
309 309 309 310 311 311 310 309 309 308 308 308 308 309 309 309 309 309 309 309 310 310 310 310 304 301 292 307 304 309 309 304 306 306 306 310 307 303 302 297 294 295 291 292 295 300 301
308 309 309 309 309 310 310 310 309 308 308 307 307 308 309 309 309 308 308 308 308 309 309 308 307 295 296 294 308 310 310 309 304 303 304 303 303 299 297 295 287 290 291 292 293 298 298
306 306 307 308 308 309 308 309 310 308 308 307 307 307 308 308 308 308 306 301 297 295 298 296 296 295 298 306 310 308 308 305 304 300 295 300 295 293 296 297 295 294 293 292 296 298 297
304 305 305 306 307 308 307 308 309 308 307 307 307 306 307 308 308 308 302 298 295 296 290 298 297 297 300 302 296 301 308 300 298 293 297 295 292 297 298 298 297 295 293 293 296 297 297
304 305 305 305 305 306 307 307 308 308 307 307 306 306 306 307 307 301 297 298 301 300 292 294 298 297 298 300 295 296 300 301 297 293 294 292 295 298 297 295 294 294 293 293 293 296 297
304 304 305 305 305 305 306 306 306 306 307 306 307 307 306 307 299 300 295 301 302 301 287 288 294 297 300 300 294 302 301 297 297 293 294 293 297 296 295 294 296 291 296 296 294 293 288
304 304 304 303 303 305 305 306 305 305 305 304 305 306 306 307 299 295 298 302 302 300 275 288 293 303 300 296 295 298 302 298 291 294 294 292 293 294 293 294 297 294 298 296 295 293 292
303 303 303 303 303 304 304 304 305 304 304 303 305 305 306 301 298 300 301 301 301 287 275 286 295 294 293 295 295 297 299 301 299 292 294 294 297 296 296 297 298 299 296 295 294 293 287
302 301 302 302 302 302 303 304 304 304 304 304 305 305 303 304 294 301 301 297 286 278 288 286 287 290 290 289 294 295 293 291 289 285 286 291 292 296 298 294 297 297 293 286 285 285 285
301 302 301 301 301 302 303 303 304 304 304 304 304 304 301 302 302 302 297 289 277 282 285 290 288 289 287 287 290 293 290 288 293 291 288 284 282 292 296 295 293 294 294 287 281 283 287
301 301 301 301 301 302 302 303 303 304 304 303 302 297 297 298 301 300 290 278 279 283 287 285 286 285 285 286 287 288 291 290 293 295 287 287 284 294 295 297 298 293 289 296 288 289 288
300 300 301 301 301 301 302 302 302 302 302 302 295 293 294 300 301 296 285 278 280 287 287 287 281 284 280 283 283 284 287 293 292 295 298 292 285 293 295 296 297 296 298 289 290 282 281
299 300 300 300 301 301 301 301 302 302 302 302 293 288 295 301 299 290 278 279 283 288 289 284 284 283 283 282 284 283 286 291 293 293 298 294 290 289 293 291 290 292 291 293 293 290 285
298 299 299 300 301 301 301 301 301 301 303 297 291 282 296 300 284 286 280 282 287 285 289 287 288 285 283 284 282 282 283 287 291 297 290 295 292 287 289 296 297 294 292 292 287 286 289
298 298 299 300 300 300 300 300 301 302 301 293 287 287 297 296 279 279 284 284 286 284 284 286 285 287 287 284 279 283 285 290 293 292 288 291 288 281 286 291 294 292 293 294 293 292 287
298 299 299 299 300 300 300 300 301 301 301 296 287 281 287 291 289 283 281 282 282 288 286 286 285 287 286 284 286 284 284 288 291 289 293 296 289 283 280 287 290 287 290 293 292 288 288
298 299 299 299 299 299 299 300 300 301 301 295 287 283 286 280 283 284 284 283 281 281 287 287 283 284 284 281 282 282 284 286 290 293 292 294 285 288 289 290 290 290 289 290 290 292 288
298 298 298 298 299 299 299 300 301 301 301 291 282 283 287 286 285 284 284 282 281 282 285 284 282 285 285 281 283 281 285 286 285 291 292 293 285 287 284 289 290 287 290 291 292 293 293
298 298 299 300 300 299 300 301 301 301 300 290 291 292 288 284 283 283 282 283 283 285 287 288 287 285 284 286 289 290 290 290 289 287 286 286 285 283 281 287 288 283 289 291 293 295 294
298 299 300 300 300 300 301 301 301 301 300 293 291 290 284 280 281 282 283 286 285 286 284 289 290 287 291 295 294 293 291 290 289 289 290 286 285 284 280 284 276 288 295 296 294 295 297
299 300 300 300 300 301 301 301 301 301 301 295 295 289 286 279 283 283 285 285 287 288 287 287 291 294 296 291 287 283 283 284 286 288 288 289 286 281 279 280 285 287 294 293 292 292 299
299 299 300 300 300 300 301 301 300 301 302 297 295 295 290 283 280 286 285 287 285 285 286 288 294 297 294 289 285 279 277 281 281 285 289 288 288 284 282 278 277 288 296 299 299 289 299
299 300 300 301 301 301 301 301 301 301 302 298 295 297 291 284 289 289 285 285 290 288 286 288 289 289 292 285 281 280 278 285 280 280 283 283 283 280 280 278 284 295 297 300 287 289 297
300 300 300 300 301 300 300 300 300 302 301 300 296 299 292 286 288 292 292 289 290 289 285 289 288 288 286 282 282 282 281 284 283 285 285 284 282 282 282 279 279 297 297 291 295 298 298
300 300 301 301 300 300 300 300 300 300 301 301 294 299 299 290 290 295 296 297 296 295 291 291 289 288 289 286 285 286 282 283 284 280 287 283 288 287 288 288 296 298 298 301 301 299 299

GFSGBSN_sfc_thetae_090.txt.gz
Theta_e
312 311 311 311 311 311 310 310 310 310 310 311 310 310 310 310 310 310 311 311 311 311 311 311 311 310 309 302 299 310 321 324 322 316 311 310 308 307 303 305 306 303 304 306 306 306 306
311 312 311 311 310 310 310 309 309 310 310 310 310 310 309 309 310 310 310 310 311 311 311 311 311 309 305 295 305 310 312 315 313 314 312 310 307 309 305 304 303 305 305 305 306 306 307
310 311 311 312 311 311 310 310 309 310 309 310 310 310 310 309 309 309 309 310 309 310 311 312 312 309 302 298 307 312 311 310 314 310 308 311 311 306 306 303 307 305 301 303 304 306 305
310 310 310 310 310 311 311 310 310 309 309 309 309 309 309 309 309 309 309 309 308 310 311 311 311 308 299 306 310 308 308 306 308 310 310 311 311 308 306 307 304 301 302 298 302 303 305
308 309 309 310 310 311 311 311 311 309 308 308 308 309 309 309 308 309 308 308 309 309 310 310 307 304 296 307 303 309 309 304 307 306 311 312 311 305 305 300 298 300 296 298 300 304 303
306 306 307 307 308 309 310 310 311 310 309 308 307 308 309 308 308 308 308 308 310 309 311 311 308 299 301 296 307 312 315 313 308 304 304 306 305 302 301 298 291 296 296 297 297 302 303
306 306 305 306 307 307 307 309 309 310 309 308 307 307 307 308 307 308 307 308 301 301 301 298 298 298 299 305 309 309 312 310 307 302 295 303 298 296 298 299 300 299 298 296 300 302 300
306 306 304 305 305 305 306 307 308 309 308 307 307 307 307 307 307 307 307 301 297 299 292 300 300 299 302 304 297 302 310 304 302 297 299 299 295 300 301 301 299 298 296 296 300 302 300
306 305 304 306 307 306 306 306 307 307 307 307 306 306 306 307 306 306 302 301 305 304 293 296 300 299 300 303 296 297 302 305 301 298 296 296 298 301 299 298 296 297 296 297 296 300 302
305 305 304 304 304 305 304 305 306 306 307 306 305 305 306 306 302 303 301 305 306 306 289 292 296 300 303 301 296 303 304 300 301 296 298 296 300 298 297 296 297 293 300 298 297 296 292
304 304 304 304 304 305 305 303 304 305 305 305 304 304 305 304 301 299 301 306 307 303 278 291 296 307 303 298 299 300 305 299 293 297 298 295 296 296 295 296 297 295 300 298 298 297 296
302 303 304 303 304 303 304 304 304 304 305 305 305 304 304 302 304 303 307 307 305 288 277 288 297 295 295 297 297 300 299 302 299 294 297 298 300 299 298 300 300 301 299 298 298 297 289
302 302 303 302 302 302 302 303 303 304 305 305 305 304 303 303 298 307 307 300 286 279 289 287 290 292 292 292 295 296 295 295 292 286 287 292 294 298 300 296 299 299 295 289 288 288 287
301 301 301 302 301 302 302 303 303 304 304 304 305 303 303 302 305 306 302 290 279 283 286 292 290 291 289 289 291 294 293 291 296 294 291 286 284 292 298 296 295 295 295 291 284 287 290
300 301 301 301 301 302 301 302 303 303 303 304 302 302 300 302 305 305 294 281 281 284 288 288 289 286 288 288 288 292 293 292 293 295 289 289 286 296 296 298 298 295 293 299 293 293 290
300 300 300 300 300 301 302 301 301 302 303 303 300 298 296 304 307 300 288 281 284 289 289 289 283 286 285 285 285 287 291 295 293 294 300 293 287 295 297 299 298 296 299 291 293 284 284
299 299 299 300 300 301 301 301 302 302 302 302 298 291 299 305 305 292 281 282 284 289 290 286 286 284 285 284 285 284 287 293 293 294 297 295 293 292 296 294 294 294 293 295 296 293 287
298 299 299 299 299 300 301 301 301 301 302 300 294 285 300 304 287 288 282 285 288 287 290 288 288 286 285 285 283 283 283 287 293 292 288 292 293 288 291 298 300 298 295 296 290 290 293
298 299 299 299 299 300 300 301 300 302 301 298 290 290 300 300 282 282 285 286 287 286 286 286 286 288 288 284 281 284 286 293 294 293 290 292 290 285 287 293 297 293 295 296 296 295 290
298 299 299 299 299 299 300 300 300 301 301 299 290 283 290 291 291 286 283 283 284 289 287 288 286 289 286 284 287 283 286 292 294 293 293 294 289 285 282 286 292 289 292 295 294 290 291
298 298 299 299 299 300 300 300 300 300 301 297 287 286 289 282 285 286 287 284 282 283 289 289 286 285 285 282 285 285 287 290 292 295 295 292 285 288 289 290 290 290 290 292 291 293 290
298 298 298 299 299 299 299 300 300 300 300 293 287 287 290 287 288 286 286 284 283 285 286 285 285 286 287 284 286 284 287 288 288 292 292 294 287 288 286 290 290 288 290 291 292 294 294
297 298 298 298 298 299 299 299 300 300 300 290 292 296 291 286 286 284 285 285 285 288 288 289 289 288 286 288 291 292 293 293 292 290 288 288 288 284 282 288 288 284 290 291 292 295 296
297 298 298 299 299 299 300 300 300 300 300 296 296 294 288 282 284 284 285 286 286 287 286 290 291 288 292 297 296 296 294 293 293 292 293 288 286 285 283 284 276 288 295 296 294 297 299
298 298 299 299 300 300 300 300 300 300 301 298 298 293 287 281 285 285 286 286 288 290 288 289 291 295 297 293 287 284 285 286 289 291 292 293 289 283 281 282 285 288 293 292 294 294 301
299 298 299 300 300 300 300 300 300 301 301 299 299 298 293 285 283 287 285 288 286 286 287 289 295 297 295 290 286 280 280 284 284 287 293 292 291 286 283 279 277 291 296 302 301 290 301
298 298 299 300 300 300 301 300 301 301 301 300 296 301 294 285 289 290 285 285 290 289 287 290 291 292 294 286 283 282 282 287 282 283 283 284 284 281 282 280 285 292 295 301 287 291 300
299 299 299 300 301 301 301 301 301 301 301 299 295 299 295 288 290 292 292 290 290 291 287 290 289 290 288 284 284 285 284 286 284 287 287 285 283 283 284 281 279 296 297 291 297 301 301
299 299 300 301 301 301 301 301 301 301 301 301 293 298 297 291 291 296 295 298 297 296 293 293 290 290 290 287 289 289 286 288 286 282 291 285 290 289 289 289 296 299 297 300 302 301 301

GFSGBSN_sfc_thetae_093.txt.gz
Theta_e
311 312 312 312 311 311 311 311 310 310 310 310 310 310 310 310 310 310 311 311 310 310 310 311 312 312 310 303 305 314 321 323 321 318 314 311 309 308 304 306 307 305 306 308 309 309 308
309 311 312 312 312 311 310 310 310 310 310 310 310 310 309 309 309 309 310 310 310 310 309 310 312 312 308 297 310 309 311 311 313 316 315 313 311 313 308 307 306 308 308 307 309 308 308
311 311 311 311 311 311 311 310 309 311 310 310 310 310 309 309 308 308 309 309 309 309 309 311 313 312 305 302 309 311 312 310 313 312 312 315 315 309 309 305 309 307 303 306 307 308 307
308 309 310 310 310 311 311 311 310 310 310 310 309 309 310 309 309 309 309 308 309 309 311 312 312 311 301 309 311 308 310 308 311 313 312 315 315 311 308 309 307 303 304 299 306 308 308
307 307 307 308 309 310 310 311 311 310 311 310 309 309 309 309 308 308 308 307 308 311 311 311 311 308 300 307 304 308 310 304 306 307 308 309 311 307 307 302 299 301 296 299 303 308 306
306 306 307 307 306 307 308 309 310 310 310 311 308 309 309 308 308 308 307 307 309 309 311 313 311 302 305 299 306 310 316 313 307 306 302 304 304 300 301 300 292 294 296 300 300 306 305
306 307 306 307 306 305 306 307 309 309 309 310 309 309 308 308 307 307 305 308 303 304 307 300 301 301 302 306 309 305 312 313 312 306 296 301 297 296 299 301 301 300 299 299 303 306 302
306 306 307 306 305 306 307 306 308 308 308 308 307 306 306 306 306 306 306 303 300 302 293 301 300 300 303 304 298 303 311 305 305 299 300 297 294 300 303 302 301 300 298 299 302 305 303
305 304 305 306 305 305 306 307 306 307 307 308 307 306 305 306 306 305 304 303 309 307 295 296 301 301 303 304 298 299 304 305 302 299 299 296 298 303 300 300 298 299 297 298 298 303 303
304 305 305 305 304 305 305 305 305 305 306 307 307 305 304 305 301 305 302 308 309 308 291 293 298 301 303 303 298 305 304 302 300 298 299 299 302 300 299 298 300 296 301 299 299 298 294
304 305 304 304 304 305 305 305 305 304 304 306 307 305 304 302 300 299 304 307 308 304 279 294 297 309 306 300 302 301 306 300 295 297 298 296 298 297 297 298 301 298 301 299 299 298 297
303 303 303 304 304 304 304 303 303 304 304 306 306 304 303 302 303 304 307 308 305 288 279 291 298 297 298 301 300 302 301 304 301 295 298 299 304 301 300 301 301 302 299 299 299 298 291
302 302 303 302 302 303 302 303 303 304 304 305 305 304 303 304 299 308 307 302 286 280 290 289 292 296 295 295 297 298 296 295 293 288 289 295 297 301 302 297 302 300 296 289 286 289 289
302 300 300 300 301 301 302 302 302 304 304 304 304 303 304 303 305 305 302 291 279 286 288 295 293 294 292 294 295 296 295 293 298 295 292 287 286 296 300 299 296 297 296 290 283 286 291
300 300 300 301 301 301 301 301 301 302 304 303 303 302 302 303 306 304 295 282 282 286 290 289 292 290 291 292 292 296 295 295 297 297 292 290 288 297 298 299 299 296 293 299 293 295 291
300 300 300 300 300 301 300 301 301 302 302 303 299 298 298 305 307 299 290 283 286 290 292 290 286 289 288 290 289 290 294 297 294 296 301 296 290 296 296 298 299 296 300 292 294 286 284
300 300 300 300 300 300 300 299 300 302 302 302 299 292 300 306 304 293 284 285 287 291 290 289 288 287 289 288 289 288 290 295 296 295 300 296 295 294 297 295 293 294 293 295 296 294 288
299 299 299 299 299 299 300 300 300 301 302 299 295 286 303 304 289 289 286 288 291 288 291 291 291 290 289 288 286 286 286 290 294 294 291 295 295 291 293 299 300 299 296 295 290 290 293
299 299 299 299 299 300 300 300 300 301 301 300 290 291 303 302 283 284 288 288 289 288 288 288 288 290 291 288 284 286 287 293 296 294 292 294 291 287 288 294 298 296 298 298 298 297 292
299 299 299 299 300 300 300 300 300 300 301 300 292 285 292 295 293 288 286 285 285 290 288 289 288 290 289 287 289 285 286 291 296 295 295 295 291 289 285 288 292 291 295 297 295 291 292
298 299 299 299 299 300 300 300 300 299 301 298 290 287 291 284 287 288 288 287 284 284 289 290 287 287 286 283 284 284 287 289 293 295 295 294 286 289 289 290 291 291 291 293 292 293 291
298 298 299 299 299 299 300 299 300 300 300 294 287 288 291 289 289 287 287 285 285 286 287 286 286 288 289 285 287 286 288 289 289 293 293 295 288 289 286 290 290 288 290 291 292 293 294
298 298 298 298 299 299 299 300 300 300 299 292 294 295 291 287 287 286 286 286 286 289 289 290 289 288 288 289 292 294 294 294 293 291 290 290 289 286 283 289 289 286 290 291 292 293 294
298 298 298 298 298 299 299 299 300 300 299 296 294 295 289 283 285 285 287 287 287 288 287 290 291 289 293 298 297 297 295 293 293 292 293 289 289 288 284 286 277 289 295 295 292 295 297
297 298 298 298 298 299 299 299 299 300 300 300 298 294 290 284 286 286 287 287 289 290 289 290 292 295 297 295 289 286 287 287 290 292 292 293 288 284 282 283 287 289 293 295 292 292 302
297 297 298 298 299 299 300 300 300 300 301 300 299 300 294 287 285 288 286 288 286 286 288 291 295 298 297 290 287 281 281 285 285 288 294 292 291 287 284 280 279 292 296 298 299 290 301
297 297 298 299 299 300 300 300 300 301 301 301 297 301 294 287 291 290 286 286 290 289 288 291 293 293 296 288 283 283 283 289 284 284 285 286 286 283 284 282 286 294 297 298 288 291 300
298 299 299 299 299 300 300 300 301 301 301 300 298 302 295 289 291 293 293 290 290 289 286 290 291 292 289 284 285 286 286 288 287 289 288 286 284 283 285 281 280 297 298 292 298 301 302
298 298 299 299 299 300 300 301 301 301 301 301 293 301 303 292 292 297 297 297 297 296 292 293 292 290 293 289 290 290 287 290 288 283 294 285 290 288 289 288 297 301 300 302 302 301 302

GFSGBSN_sfc_thetae_096.txt.gz
Theta_e
310 310 312 312 312 312 311 310 311 311 310 310 310 309 309 309 309 309 310 310 310 309 309 310 310 312 310 301 302 312 326 324 319 317 313 311 308 308 303 305 306 304 305 307 308 308 308
310 311 311 311 311 311 311 311 311 311 311 311 311 311 310 308 309 309 309 309 309 310 309 309 311 313 307 296 310 311 310 310 310 313 312 312 309 310 307 306 304 307 307 306 308 307 308
309 308 309 310 310 310 311 311 310 311 312 312 311 311 310 309 308 308 309 308 308 309 309 310 312 311 303 299 310 311 311 310 310 310 308 313 313 309 310 305 310 307 302 304 306 306 306
308 307 307 307 308 308 308 309 310 310 311 312 311 310 310 309 309 308 308 307 307 308 309 312 313 309 299 309 312 308 309 307 309 311 311 312 314 311 308 309 306 302 302 297 304 306 307
307 307 306 307 308 308 308 309 309 308 309 310 311 310 310 309 308 308 307 307 307 308 311 313 308 307 299 312 305 308 308 303 305 307 309 310 309 306 306 301 298 300 294 297 299 307 306
308 307 307 307 307 307 307 307 309 309 309 309 310 310 310 309 308 307 306 306 307 309 310 312 310 302 305 301 305 308 310 313 306 303 302 301 299 297 299 297 291 294 295 297 297 302 305
307 307 307 307 308 307 306 307 309 308 308 308 308 309 309 308 308 307 304 302 303 302 307 302 304 302 304 306 306 305 308 308 310 304 296 299 292 291 295 299 298 299 298 297 301 305 304
305 306 306 306 306 307 306 306 307 307 306 307 308 308 308 307 307 306 302 300 301 302 293 299 299 299 301 302 297 301 307 302 304 299 302 296 291 296 298 299 299 298 296 296 301 304 303
306 305 306 306 305 305 306 305 307 307 307 306 307 307 307 307 306 303 303 302 308 306 293 294 298 298 300 303 297 298 303 301 300 299 299 294 296 299 297 296 296 298 297 297 297 301 303
304 304 303 304 305 305 305 305 306 306 306 306 306 306 307 306 300 302 301 307 307 307 288 290 296 300 303 303 297 305 305 300 298 295 298 297 301 299 297 296 296 293 301 300 299 297 291
302 302 303 304 304 304 303 304 304 304 305 305 306 307 306 304 299 297 302 307 307 304 276 295 298 307 305 299 301 301 306 301 294 296 297 295 297 296 295 296 300 296 301 299 300 296 295
302 302 303 303 303 303 303 303 303 303 303 304 304 305 305 302 302 303 305 307 304 286 276 289 298 297 298 300 300 303 302 302 301 294 295 295 301 299 299 300 300 301 299 299 298 296 288
301 301 302 301 301 301 302 301 301 302 303 304 304 304 303 303 296 305 307 300 284 278 291 288 292 296 296 296 297 297 297 296 292 287 288 292 293 299 301 297 300 298 295 288 286 287 286
301 301 301 301 301 301 302 302 302 302 302 302 304 303 303 302 304 305 301 289 278 285 287 293 293 294 291 294 295 296 295 293 297 295 290 286 285 292 299 297 295 295 295 289 282 285 289
300 300 301 301 302 301 301 301 301 300 300 301 302 301 301 303 306 303 292 281 281 285 290 289 290 288 289 293 293 295 295 294 296 297 290 289 289 297 298 300 299 295 292 298 292 293 288
300 300 300 301 301 301 300 300 301 301 301 300 298 297 297 306 307 299 285 282 285 290 291 290 285 289 286 290 290 291 293 297 295 297 299 296 289 295 297 299 299 296 299 291 292 284 282
299 300 300 300 300 300 300 300 300 300 300 301 295 290 299 307 303 292 281 283 287 291 292 287 287 286 288 288 289 289 291 296 298 296 297 297 293 293 294 292 291 292 291 293 293 292 285
299 299 300 300 300 300 300 300 300 300 300 298 292 287 303 303 288 288 283 287 291 290 292 289 289 289 288 289 288 288 288 292 295 294 290 295 291 289 292 298 300 298 293 293 287 287 292
299 299 299 299 300 300 300 300 300 300 299 298 289 290 303 301 283 284 288 287 289 288 288 287 286 289 290 287 285 288 289 294 296 294 291 293 290 285 288 293 298 294 297 296 295 294 289
299 299 299 300 300 300 300 300 300 300 299 298 290 284 291 293 292 287 285 286 285 290 289 289 288 289 287 287 289 287 287 291 295 294 297 295 289 287 285 287 292 291 294 296 295 290 290
299 299 299 299 299 300 300 300 300 300 299 296 290 286 290 285 286 287 287 287 285 284 289 289 286 286 286 283 285 285 288 289 291 295 293 293 284 287 288 290 290 289 290 292 291 293 289
299 299 299 299 299 299 300 300 300 300 299 292 287 287 289 287 289 286 287 285 284 287 287 286 285 287 287 284 285 283 287 288 288 291 291 294 286 288 285 288 288 287 289 290 291 291 291
298 298 298 298 298 298 299 299 300 300 299 291 294 294 290 286 286 285 285 286 285 288 289 291 289 288 286 288 292 292 294 294 293 291 290 290 288 286 282 288 287 284 288 289 290 291 291
298 298 298 298 299 299 299 299 300 300 299 297 294 293 287 282 284 284 286 287 287 288 286 290 291 288 292 298 298 296 294 293 292 291 293 289 288 288 283 285 277 289 294 294 292 293 294
297 298 298 298 298 298 299 299 299 299 299 298 297 293 288 282 285 285 286 286 289 290 289 289 292 295 297 294 288 285 285 286 288 290 290 292 288 284 281 281 285 288 292 293 293 293 300
297 297 298 298 298 298 299 299 299 299 299 299 297 299 292 285 284 288 286 288 285 286 288 290 295 298 297 290 286 280 279 283 283 286 292 291 292 287 284 279 278 290 295 297 297 288 299
297 297 297 297 298 299 299 300 300 300 300 299 295 300 293 286 289 289 286 286 289 288 286 290 291 292 296 287 282 281 281 288 283 283 284 285 286 282 283 282 286 294 296 298 285 289 299
296 297 297 298 298 299 299 300 300 300 300 299 295 300 294 288 290 292 292 289 289 289 285 290 290 291 289 284 283 284 284 286 286 288 286 285 283 283 284 281 279 297 296 291 296 300 300
297 298 298 298 299 299 299 300 300 300 301 300 293 300 300 291 290 296 296 297 295 294 291 292 289 285 292 288 288 289 286 290 287 282 293 285 289 287 287 287 297 299 300 302 302 299 300

GFSGBSN_sfc_thetae_099.txt.gz
Theta_e
311 311 312 312 311 311 311 312 312 312 312 312 312 311 309 309 309 309 310 309 309 309 309 309 309 311 308 299 299 311 326 326 321 315 309 306 304 302 299 301 301 299 301 303 304 303 302
310 309 309 310 310 310 311 311 311 311 311 312 312 311 311 310 309 309 309 309 308 308 309 308 309 312 305 293 306 307 311 313 311 309 308 307 305 306 303 302 299 302 302 302 301 301 301
308 308 308 307 308 308 308 309 309 310 311 311 311 311 311 311 310 310 309 309 308 308 308 308 309 310 302 296 304 304 305 305 306 305 302 306 308 304 303 301 305 303 298 301 302 300 300
308 308 307 307 308 309 308 307 307 308 309 310 309 310 310 310 310 309 308 307 307 308 308 308 312 306 296 307 305 306 307 303 305 305 304 307 307 305 303 304 303 298 297 291 298 301 303
308 308 307 307 308 309 309 308 308 307 307 309 310 309 310 310 309 308 307 307 307 308 309 311 305 302 297 312 305 308 308 302 302 302 303 307 304 300 301 295 292 293 289 291 295 302 301
306 307 307 307 307 307 308 308 308 308 309 309 308 309 310 309 308 307 306 306 305 307 306 307 308 298 304 300 304 304 305 306 304 302 299 298 294 291 293 291 286 288 290 293 293 299 301
306 306 306 306 306 306 307 307 307 307 307 307 306 307 309 309 308 307 303 296 296 295 301 299 301 298 301 307 309 300 304 303 301 303 291 294 287 285 287 293 295 294 293 292 295 300 299
305 307 306 306 306 306 306 306 307 307 307 306 307 306 308 308 308 307 301 292 298 297 290 298 298 297 301 305 297 299 301 294 296 296 298 291 286 291 293 293 294 294 292 291 295 299 299
305 305 305 305 305 305 305 305 305 306 306 306 306 306 306 307 307 300 295 297 304 302 288 292 296 295 296 297 292 293 297 295 293 294 296 292 294 296 293 291 291 291 291 291 292 297 300
304 303 303 303 304 304 305 305 304 304 305 305 306 306 306 306 298 296 293 302 305 302 283 287 292 295 296 298 295 300 299 296 293 290 294 295 299 296 292 290 292 288 294 295 295 294 288
303 303 303 303 303 303 304 304 304 304 304 303 305 305 305 304 296 292 297 302 304 298 272 290 293 303 299 296 298 298 302 297 290 291 293 291 294 293 293 294 294 291 295 295 295 293 290
301 302 302 302 303 303 302 303 302 302 303 303 303 303 305 299 297 298 301 300 297 281 273 287 297 295 294 296 297 299 298 299 298 292 292 291 296 294 293 297 297 298 295 295 295 291 285
301 301 301 302 302 302 302 302 302 302 302 302 302 303 301 300 292 301 302 294 279 274 287 284 287 295 294 294 295 296 295 290 287 284 284 288 289 293 296 291 295 294 290 283 283 281 281
300 301 301 301 301 302 302 302 302 302 301 302 302 302 300 300 300 299 297 285 274 281 281 289 290 291 290 293 293 294 292 289 293 291 285 282 281 289 294 291 291 292 291 284 279 280 284
300 301 301 301 301 301 301 301 301 302 301 301 301 294 294 297 301 297 289 276 277 282 286 286 287 286 287 291 290 292 291 290 293 293 287 286 286 297 294 294 295 292 288 294 289 290 285
299 300 300 300 300 301 301 301 301 301 301 301 291 291 292 299 301 296 285 279 282 288 288 287 281 287 283 285 288 288 289 295 293 296 296 293 287 295 297 295 294 294 297 288 290 281 279
299 299 300 300 300 300 300 300 300 301 300 301 290 287 293 299 299 289 278 279 283 288 289 286 284 283 285 285 287 288 288 292 293 292 292 292 290 291 295 290 290 291 290 291 292 288 281
299 299 300 300 300 300 300 300 300 300 300 296 291 280 296 301 286 285 279 284 288 286 290 288 287 285 284 285 286 286 286 290 294 294 289 291 289 287 290 295 297 295 291 290 285 283 287
299 299 299 299 300 300 300 300 300 300 300 294 287 284 295 292 280 278 284 285 286 285 286 287 286 287 287 284 281 287 287 295 295 293 289 289 286 283 287 290 294 293 295 296 291 289 285
299 299 299 300 300 300 300 300 300 300 300 293 288 280 285 288 289 285 283 284 284 290 287 288 287 287 285 283 286 285 287 292 294 294 297 294 286 283 280 285 289 286 289 294 291 284 285
298 299 299 299 299 299 299 300 300 300 300 293 288 280 287 281 283 284 285 285 283 283 289 288 285 284 283 280 282 282 286 287 290 295 292 289 283 286 287 288 287 286 286 289 288 290 288
298 299 299 299 299 299 299 299 300 300 300 291 284 280 285 283 286 284 285 283 283 284 285 285 284 286 285 281 282 281 284 284 286 290 288 290 284 287 285 289 288 285 287 287 288 289 288
298 298 298 298 298 298 299 299 300 300 298 289 290 290 286 282 281 279 280 284 284 286 288 289 288 286 284 287 290 290 291 289 290 288 287 288 285 283 281 287 286 281 286 287 288 289 288
297 298 298 298 298 298 299 299 300 300 299 291 289 288 283 277 280 281 284 285 285 286 285 288 289 287 290 295 296 294 291 291 289 289 290 287 285 285 281 284 275 287 293 292 289 292 293
296 297 298 298 298 298 299 299 299 300 300 292 291 290 285 276 282 283 284 285 287 288 286 287 290 293 294 291 284 282 281 282 285 288 287 289 287 281 279 278 284 287 291 292 291 291 296
295 296 297 298 298 298 299 299 299 299 299 293 291 293 290 282 279 285 284 285 282 283 284 287 292 294 295 288 284 277 274 280 280 284 289 288 288 283 281 277 274 289 294 296 294 287 297
296 296 297 297 297 298 298 298 299 299 299 294 290 294 291 285 285 287 282 283 287 286 283 287 288 288 291 278 278 278 277 285 280 280 280 281 282 280 280 280 284 293 295 297 283 286 297
295 296 297 297 297 298 298 298 299 299 300 297 292 294 290 285 285 288 288 285 286 286 282 285 283 286 286 282 280 280 277 283 284 286 284 281 280 279 281 277 277 296 295 290 294 295 295
295 296 296 296 297 298 298 299 299 299 299 299 291 296 296 288 286 292 293 293 292 291 287 288 287 286 287 284 282 284 280 284 285 280 288 282 286 284 284 283 293 297 297 300 298 296 295

GFSGBSN_sfc_thetae_102.txt.gz
Theta_e
311 310 309 310 310 310 310 311 311 311 312 312 312 311 310 310 309 310 310 310 310 309 308 308 309 310 307 298 297 307 324 325 322 314 308 306 299 297 295 297 299 297 299 301 301 301 301
308 309 308 307 307 308 309 308 308 309 310 311 311 311 311 309 309 309 310 309 309 308 309 307 308 309 303 291 302 305 304 306 314 311 308 306 303 304 301 299 297 301 300 300 300 299 299
308 308 308 307 307 307 308 307 307 307 308 309 309 310 310 309 310 310 310 309 308 308 308 307 308 306 300 294 299 301 303 302 303 304 300 303 307 302 302 298 302 301 296 297 298 298 298
308 309 308 308 307 308 308 308 307 307 308 308 308 308 309 310 310 310 309 308 307 307 308 307 308 306 294 306 304 304 303 303 304 303 302 302 303 300 300 302 301 297 295 289 297 298 300
306 307 308 307 307 307 308 309 308 307 307 307 308 308 308 309 309 309 308 307 307 308 307 308 303 300 293 311 305 307 306 302 302 301 299 304 301 298 299 294 291 291 289 290 293 299 297
305 306 306 307 307 307 306 307 308 307 307 306 307 307 307 307 308 308 307 306 306 307 305 306 306 296 300 298 304 305 303 306 301 302 296 295 293 289 291 291 285 288 288 291 290 295 297
305 305 307 306 306 306 307 307 307 307 306 307 306 306 307 307 307 307 303 294 294 293 296 295 298 297 299 304 309 302 302 299 298 297 292 292 286 284 286 293 295 294 291 290 291 297 294
305 305 305 305 305 305 305 305 306 306 305 305 306 305 306 307 306 307 297 291 295 297 288 297 297 297 300 302 296 299 302 293 292 289 294 289 285 290 291 291 291 292 290 290 294 296 295
304 304 303 304 304 304 305 305 305 305 305 304 304 305 305 306 305 297 293 293 301 301 289 291 294 293 294 296 291 292 296 292 289 288 292 291 292 293 290 289 288 288 289 289 289 293 295
304 304 304 303 304 304 304 304 304 304 304 304 304 304 305 305 296 294 290 298 301 301 281 285 290 292 295 295 290 296 296 292 290 286 289 293 298 296 291 288 289 284 291 291 290 289 284
302 302 302 303 303 303 303 303 303 304 303 303 303 303 304 304 293 291 294 300 300 298 269 286 290 297 295 291 294 296 296 292 287 289 290 288 293 294 292 292 291 287 292 291 290 288 286
301 300 302 302 302 302 302 302 302 303 303 303 303 303 303 298 293 295 298 298 296 280 270 283 293 292 289 291 294 297 294 295 294 289 289 289 293 292 293 296 295 294 290 290 290 288 283
300 300 301 301 301 302 302 302 302 302 303 302 302 302 301 300 289 296 297 293 278 272 284 281 285 288 289 290 291 293 291 288 285 282 283 287 288 292 293 288 291 291 287 281 280 279 280
300 300 300 301 301 301 302 302 302 301 302 302 302 302 298 298 296 296 294 285 273 278 279 286 286 287 285 292 292 292 290 285 289 287 283 281 279 287 291 289 287 288 287 281 277 278 281
301 300 300 301 300 301 301 301 301 301 301 301 301 292 291 294 297 296 288 275 276 280 285 283 285 283 284 287 289 290 290 289 290 290 284 284 282 293 291 292 291 288 286 291 285 287 282
300 299 299 300 300 300 300 300 301 301 301 301 294 291 289 294 296 292 284 278 280 285 285 285 279 284 280 282 284 287 286 292 290 292 293 290 285 293 296 295 292 291 294 285 285 278 277
299 299 300 299 300 300 300 300 300 300 301 301 288 284 289 296 295 286 278 278 283 287 287 283 281 281 283 282 283 286 285 290 293 291 293 289 289 288 293 289 286 287 288 288 289 285 280
299 299 299 299 300 300 300 300 300 300 301 295 289 280 291 297 284 283 281 283 287 285 288 285 286 285 283 283 282 285 285 287 294 292 288 290 287 284 290 294 296 293 290 291 284 282 285
298 299 300 299 299 300 300 300 300 300 300 288 285 282 291 291 275 281 283 284 286 285 286 284 284 286 287 283 280 285 287 292 294 291 287 289 285 280 286 291 293 289 291 294 291 288 284
298 299 299 299 299 300 300 300 300 300 300 292 286 278 281 290 288 283 283 282 282 289 287 288 286 287 283 281 285 282 285 290 292 292 292 292 286 281 279 285 289 284 286 291 290 283 284
298 298 299 299 300 299 299 299 299 300 299 291 286 280 282 272 278 283 284 283 282 282 287 288 285 285 282 278 279 279 283 285 288 293 293 289 283 285 285 287 288 286 286 286 287 287 283
298 298 298 299 299 299 299 299 299 299 299 287 283 283 283 281 284 281 282 282 282 283 285 284 283 285 285 281 282 281 285 285 284 290 288 291 284 285 282 287 288 286 287 287 288 288 287
297 298 298 299 299 298 299 299 299 299 297 288 290 288 285 281 279 276 279 282 282 285 286 288 287 285 283 286 288 289 289 288 287 287 285 287 285 282 279 286 286 280 285 287 287 289 289
296 297 297 298 298 298 298 299 299 299 297 289 287 289 284 276 279 280 282 283 283 285 284 287 287 285 290 294 292 290 289 289 288 287 289 284 284 281 278 282 274 286 292 291 292 293 293
296 297 297 298 298 298 299 299 299 299 299 289 288 288 284 274 280 281 282 283 284 285 285 285 288 290 293 290 282 281 280 281 283 286 285 287 283 277 276 276 282 286 291 290 290 290 295
297 296 296 296 297 298 299 298 299 299 299 291 288 290 289 282 278 284 282 283 280 280 282 285 291 292 292 284 279 277 273 279 278 282 287 285 285 279 278 275 272 286 292 295 293 285 296
296 296 296 296 297 298 298 298 298 298 299 292 288 291 289 283 283 284 280 281 285 284 280 284 285 285 291 280 278 276 276 284 278 279 279 278 278 277 276 275 282 291 294 295 282 284 296
295 296 295 296 297 297 298 297 298 298 299 294 289 291 289 283 284 287 287 283 283 283 280 284 282 285 283 281 280 279 277 282 281 285 284 279 275 273 277 274 275 293 294 287 292 294 295
295 295 295 296 297 297 297 297 298 298 298 298 290 295 293 287 283 290 291 291 290 289 285 286 284 284 287 282 283 283 280 283 283 279 286 280 283 281 282 282 291 294 295 300 298 294 293

GFSGBSN_sfc_thetae_105.txt.gz
Theta_e
309 309 308 308 307 308 309 309 308 308 308 308 309 309 309 309 309 309 310 310 310 309 308 308 308 308 305 295 293 302 319 321 318 309 303 303 297 295 291 293 296 295 297 299 300 299 298
308 307 307 307 307 307 308 308 307 307 308 308 308 308 308 308 308 308 310 310 310 309 309 308 307 308 301 288 299 301 300 301 309 309 306 304 301 300 296 295 295 298 299 299 300 300 299
308 307 307 307 307 308 309 308 307 307 307 307 308 308 308 307 307 307 309 309 309 309 309 308 308 304 298 292 298 301 303 300 299 307 304 304 306 301 300 297 301 299 294 296 296 297 297
306 307 308 308 307 307 307 307 308 307 307 307 307 308 308 308 307 308 308 308 308 308 309 308 307 303 292 305 303 304 301 300 302 302 301 301 301 298 297 299 298 295 294 289 296 297 298
305 305 306 306 307 307 307 307 307 307 307 307 307 307 308 307 307 307 307 307 307 308 310 306 301 299 290 307 303 307 304 300 301 300 299 302 298 294 295 292 288 290 286 288 292 298 296
305 305 307 306 306 306 306 306 307 306 306 306 306 306 307 307 307 306 306 306 306 307 305 305 305 294 297 295 303 306 303 304 300 298 297 293 291 288 288 288 283 286 287 290 290 294 295
304 304 305 306 305 305 305 305 305 305 305 305 305 305 305 306 306 306 302 294 292 292 294 290 292 295 297 302 304 303 304 301 296 294 289 290 284 283 287 290 292 291 289 288 290 296 293
303 303 303 304 304 304 304 305 305 305 305 305 305 305 305 305 305 306 295 290 293 294 287 295 295 295 297 299 292 295 300 293 291 286 291 289 284 287 289 289 290 290 289 288 291 294 294
304 303 303 303 303 303 303 304 303 304 304 304 304 304 304 304 304 297 291 292 298 299 288 290 294 293 293 295 290 290 296 292 288 286 288 286 290 294 289 287 286 285 286 287 289 293 292
302 302 302 302 303 303 303 303 303 303 304 304 303 303 304 304 294 292 289 297 299 300 281 284 288 291 292 294 288 293 295 291 287 285 286 288 292 292 288 286 286 282 288 288 288 287 282
300 300 300 301 302 301 302 302 302 303 303 303 303 303 303 303 294 290 293 298 299 297 268 285 288 295 292 289 290 292 293 290 285 285 287 284 291 290 289 291 288 285 290 287 287 284 281
299 299 300 300 301 301 301 302 302 302 302 302 303 302 302 297 291 293 296 296 293 279 270 281 288 287 288 289 290 293 289 291 290 285 287 286 291 293 293 295 293 292 288 287 286 284 278
300 299 299 300 300 301 301 302 302 302 301 301 302 302 300 298 289 293 295 289 276 271 282 279 281 285 286 287 289 288 288 285 282 279 280 284 286 288 291 286 289 289 285 278 278 278 278
300 300 299 300 301 301 300 301 301 301 302 301 302 301 297 297 294 294 291 284 268 277 278 283 283 284 284 286 287 288 287 283 287 285 280 278 277 286 289 288 284 285 285 280 276 277 280
299 301 299 299 300 300 300 300 300 301 301 301 301 291 289 291 294 293 286 268 274 279 283 281 283 281 281 285 285 286 287 286 288 288 282 280 280 288 289 291 290 286 283 289 283 284 281
299 300 299 300 299 300 300 300 300 300 301 301 294 287 287 293 295 291 283 277 279 285 284 284 277 281 277 281 281 282 286 288 289 292 292 287 282 290 293 290 289 288 291 283 284 278 277
299 299 298 300 299 299 300 300 300 300 300 300 287 282 288 294 294 287 273 278 282 286 286 282 280 279 280 281 282 281 285 287 291 290 292 287 285 286 291 288 285 284 285 287 287 283 280
299 298 299 299 299 300 300 300 300 300 300 294 287 272 288 293 279 282 279 283 287 285 287 285 285 283 282 283 281 281 285 286 293 292 287 287 284 280 286 293 293 290 286 287 282 281 283
299 298 298 300 299 299 300 300 300 300 299 287 283 284 289 290 276 275 284 283 285 284 285 284 283 286 286 283 279 282 284 291 292 290 287 288 283 278 283 287 291 287 288 291 289 287 283
300 299 298 300 299 299 300 300 300 300 299 289 284 277 279 290 287 280 280 281 281 287 286 287 286 287 284 281 285 281 282 288 290 290 292 291 285 281 277 280 289 285 285 290 288 282 283
299 298 298 298 299 299 300 300 299 299 299 290 284 280 282 271 278 281 283 282 280 280 286 287 284 284 283 279 280 281 285 286 289 293 290 287 281 283 285 287 288 287 285 286 287 286 282
299 299 299 299 299 299 299 299 299 299 299 288 281 280 286 281 282 280 280 278 280 281 283 283 282 284 284 280 282 280 284 283 283 287 286 290 282 284 282 287 287 286 287 287 288 289 289
298 298 298 298 299 299 299 299 299 299 297 287 288 289 285 280 279 276 278 281 280 283 286 287 285 283 282 284 287 288 287 287 286 284 283 286 284 282 277 284 283 280 285 287 287 290 291
298 298 297 298 298 299 299 299 299 299 296 287 286 287 283 277 279 279 281 281 282 282 282 286 286 283 287 292 291 289 287 287 287 286 287 283 283 283 280 281 273 285 292 292 291 292 292
298 297 297 298 298 298 299 300 299 299 299 288 287 288 284 274 280 280 281 280 282 283 283 284 287 289 290 288 281 280 279 280 282 285 284 286 283 279 278 278 281 285 290 288 289 289 295
297 296 296 297 297 298 298 299 298 299 299 290 287 290 288 281 278 283 281 281 279 279 281 283 289 290 290 283 277 273 273 278 278 281 285 284 283 281 278 274 270 282 290 293 294 284 296
297 296 297 297 297 297 298 298 298 298 298 292 288 290 287 281 283 283 279 279 283 281 279 282 284 284 287 278 276 275 275 282 274 277 280 277 278 277 276 273 279 288 292 294 282 285 296
297 297 296 297 296 297 297 298 298 298 298 292 287 291 288 283 282 286 286 282 281 282 277 281 280 281 281 278 280 279 275 279 279 282 282 279 275 271 275 273 273 291 292 285 290 294 296
297 296 296 297 296 296 297 298 298 298 298 297 288 292 292 287 282 289 289 290 288 287 283 283 281 280 286 281 281 280 277 282 282 277 285 280 282 279 280 279 287 292 293 297 296 293 293

GFSGBSN_sfc_thetae_108.txt.gz
Theta_e
308 308 307 307 307 307 308 308 307 307 308 308 308 308 309 308 307 307 308 308 308 307 308 309 309 308 302 292 289 298 313 307 315 309 302 300 295 294 290 292 294 293 294 296 297 297 296
307 307 306 306 307 307 308 308 307 307 307 307 307 307 308 307 307 307 307 308 308 308 308 309 309 307 299 286 295 298 301 301 301 307 304 302 299 297 293 292 293 295 296 297 297 297 298
307 308 307 306 306 307 307 307 308 308 307 307 307 307 307 307 306 306 307 308 307 308 308 309 309 303 296 290 297 301 301 299 297 299 295 303 304 299 298 295 299 297 293 295 295 296 296
305 306 306 307 306 306 306 306 307 307 307 307 307 307 307 307 307 307 307 306 306 308 309 310 307 300 289 302 302 302 302 300 302 300 298 301 301 298 297 297 294 293 292 287 294 296 297
304 304 305 305 307 306 306 306 306 306 306 306 306 306 306 306 307 307 306 306 307 308 307 307 299 296 287 303 300 305 304 300 302 299 298 302 296 292 292 289 286 288 284 286 290 296 296
304 304 305 306 305 305 305 305 305 305 305 305 305 305 305 305 306 306 305 305 306 304 303 304 304 292 294 294 302 302 302 303 298 297 295 291 289 286 286 286 280 283 285 288 287 292 294
303 304 304 304 304 304 303 304 304 304 305 305 305 305 305 305 305 306 299 293 290 288 292 287 289 290 292 296 300 297 301 297 296 292 287 289 283 282 285 287 288 288 287 286 287 293 291
302 302 303 302 302 302 303 303 303 303 304 304 304 304 304 304 304 302 294 289 291 292 286 293 293 293 295 296 290 293 297 289 291 285 289 287 283 286 287 287 288 288 286 286 289 293 293
302 304 302 302 302 302 303 303 302 302 304 303 303 303 303 303 303 295 290 291 297 297 285 288 292 291 292 294 289 289 294 291 288 286 286 284 287 293 289 285 285 286 286 286 287 289 291
302 301 301 301 302 301 302 302 302 302 303 303 303 303 302 302 293 292 287 295 296 295 279 282 288 290 292 293 287 293 294 291 287 285 285 285 290 289 287 286 286 282 287 288 286 284 279
300 299 299 300 300 300 301 301 302 302 302 302 302 302 302 301 291 288 292 296 295 292 266 283 286 293 291 287 288 289 291 289 283 282 285 284 285 285 285 287 287 284 288 286 285 282 279
299 299 299 299 299 300 301 301 302 302 302 301 301 302 302 296 291 292 294 294 290 275 267 279 286 284 284 286 289 291 288 290 288 283 283 284 288 289 288 290 290 289 286 285 284 282 276
299 299 299 298 298 300 300 301 301 301 301 301 301 301 298 298 287 292 293 287 273 269 281 278 281 283 282 283 287 288 286 283 280 277 276 281 283 286 290 286 290 288 284 278 276 275 276
299 301 299 298 300 300 299 300 300 300 300 301 301 300 295 295 292 292 289 276 263 275 276 284 283 281 280 283 285 285 287 283 286 284 278 275 274 283 287 286 284 286 286 279 276 276 278
299 300 300 299 299 299 299 299 299 300 300 301 300 289 288 290 292 291 280 265 272 277 282 280 281 278 280 282 282 284 283 285 289 290 281 278 278 285 287 288 288 284 282 287 281 282 279
299 299 300 299 299 298 299 299 299 299 300 300 288 285 285 291 293 288 278 276 277 284 284 283 276 280 276 278 280 281 282 286 286 290 291 286 281 289 289 288 288 286 289 281 281 276 275
299 299 298 298 299 298 298 299 299 300 299 299 285 280 287 292 291 282 272 276 280 285 285 282 279 278 279 279 282 280 281 286 288 287 291 286 284 285 289 285 282 282 282 284 284 281 277
299 299 298 299 299 299 299 299 299 300 299 293 283 272 290 291 277 281 277 282 287 284 287 284 284 283 281 282 281 281 280 283 289 289 286 288 283 280 284 291 291 287 284 285 280 279 281
300 299 298 298 299 299 299 299 299 299 299 286 280 281 288 290 274 273 281 283 285 283 284 284 283 285 286 282 279 282 283 288 289 289 285 287 282 278 280 286 289 285 286 289 286 284 281
301 300 299 298 299 300 299 299 299 299 299 287 281 273 278 289 287 280 274 278 280 286 285 285 285 286 283 281 284 281 283 288 290 290 293 290 285 280 277 280 285 283 285 285 285 280 281
300 300 300 299 298 299 299 299 299 299 300 289 281 274 282 274 276 280 279 281 279 278 285 286 283 283 282 279 280 281 284 286 288 292 291 288 281 283 284 286 287 287 286 285 285 284 281
301 300 299 298 298 299 299 299 299 299 299 286 280 277 284 281 281 280 278 278 279 279 281 281 281 282 283 280 281 280 283 283 283 287 286 289 279 284 280 284 283 284 286 285 287 287 287
300 299 299 299 299 299 299 299 299 299 296 288 284 285 282 279 279 275 277 280 279 281 283 285 284 282 281 283 285 286 287 287 286 284 283 284 282 279 277 282 282 278 284 286 287 289 288
299 299 298 299 298 298 298 299 299 299 296 286 285 285 281 274 279 279 280 280 280 281 279 283 285 282 286 289 289 288 286 286 286 285 287 282 281 281 279 281 272 284 291 289 289 291 290
299 299 298 298 297 298 298 299 299 299 298 287 286 286 283 274 280 280 280 280 281 281 281 283 285 287 288 286 281 279 279 280 282 284 283 284 282 277 277 277 280 283 289 288 287 288 293
299 298 298 298 298 298 298 298 299 299 299 291 288 289 287 278 277 282 280 281 278 278 280 282 287 288 287 281 275 273 272 278 278 280 284 283 283 279 278 275 272 282 288 292 293 283 296
299 298 298 297 297 297 297 298 298 299 298 291 289 290 288 279 281 283 279 279 281 280 278 281 282 283 285 276 275 274 275 280 273 275 279 278 277 276 276 275 280 286 290 292 281 283 295
299 298 298 298 297 298 297 297 298 298 298 292 288 291 289 282 281 284 285 282 281 280 276 280 278 280 280 275 276 278 277 279 278 279 279 279 276 272 275 272 273 288 290 285 290 293 296
298 298 297 297 297 297 297 297 297 298 298 294 284 291 293 287 282 286 287 288 286 286 281 282 280 278 282 278 279 280 277 281 279 275 285 276 283 280 280 278 286 290 291 295 296 293 293

GFSGBSN_sfc_thetae_111.txt.gz
Theta_e
309 308 307 307 306 307 308 307 307 307 308 307 307 307 307 307 307 307 307 308 307 307 307 308 309 309 303 291 291 299 309 307 310 314 307 302 299 300 295 296 298 296 298 299 301 301 301
308 307 306 306 306 308 308 307 309 308 307 307 307 307 307 307 307 306 306 307 308 307 307 309 310 307 299 285 297 301 301 300 300 307 306 303 300 301 297 296 296 298 298 299 300 300 300
308 308 307 307 306 306 306 306 306 307 307 306 306 306 306 306 306 306 306 307 307 308 308 310 310 304 296 290 302 303 302 299 300 299 297 300 302 302 301 297 301 299 295 298 299 300 300
306 306 306 306 306 306 307 307 307 306 306 306 306 305 305 306 306 306 306 307 306 307 308 309 309 301 289 300 303 304 305 305 305 303 299 299 300 298 300 301 296 294 295 290 297 299 300
305 304 305 305 306 305 305 305 305 305 305 305 304 305 305 305 306 306 306 305 306 308 307 307 301 296 289 303 300 305 306 302 303 301 300 302 300 297 296 292 289 291 286 289 293 299 299
305 305 305 306 305 304 303 304 305 304 305 304 304 304 305 305 305 305 304 303 304 303 302 305 303 293 296 293 298 300 301 304 298 299 296 296 294 291 291 290 282 285 287 289 290 297 298
304 304 304 304 303 302 302 302 303 303 304 303 304 304 304 304 304 303 297 294 291 290 293 288 289 289 290 296 299 296 300 297 297 295 291 292 288 285 288 291 291 290 289 289 293 297 296
303 302 303 302 302 301 301 301 302 302 303 303 303 304 303 303 303 301 296 290 291 292 285 292 292 292 295 296 289 294 298 290 289 285 291 289 285 291 290 290 289 289 287 287 291 295 295
303 304 303 302 301 301 300 301 301 302 303 303 303 303 303 302 301 295 292 292 297 295 285 287 292 291 293 295 289 291 294 291 287 284 286 287 289 293 289 287 286 287 286 287 287 292 295
303 302 301 301 301 300 300 300 301 301 302 302 302 302 302 302 293 293 290 296 296 295 279 281 287 291 291 292 288 294 295 292 288 285 285 286 291 290 289 287 288 284 289 288 288 287 283
302 301 299 300 300 299 300 301 301 302 301 301 302 302 302 300 293 289 293 296 297 293 269 282 286 295 292 287 288 290 296 291 285 285 286 284 287 287 287 289 290 287 290 289 289 287 286
301 300 299 300 299 299 300 301 301 301 301 301 301 301 301 296 293 293 295 295 292 276 268 278 286 284 284 286 288 292 293 295 291 286 286 285 289 290 289 291 291 291 289 288 287 286 279
300 299 300 299 299 300 299 300 301 300 300 300 301 301 298 298 289 294 295 289 275 270 280 278 280 283 283 283 285 285 284 286 284 279 280 283 283 287 293 288 291 289 286 280 279 279 279
300 299 300 299 300 301 299 299 299 299 300 301 301 298 295 295 294 295 290 279 268 275 276 283 282 283 280 284 282 283 284 282 289 285 281 279 278 283 288 289 287 287 287 281 274 277 280
300 299 300 300 299 299 298 298 299 299 300 300 298 291 290 292 294 293 284 271 273 276 281 280 281 278 279 282 282 283 283 283 285 285 282 282 279 286 287 290 293 288 284 291 284 285 283
300 299 300 300 299 299 298 298 298 299 299 300 290 287 287 293 295 290 280 277 277 283 284 283 276 279 276 279 279 282 282 285 285 287 287 286 281 290 290 289 290 290 293 284 285 278 277
300 300 299 299 299 299 298 299 298 299 299 298 287 283 291 294 294 284 275 277 281 285 285 282 280 279 280 279 282 281 281 284 287 286 289 286 284 286 290 285 283 285 286 288 288 286 280
300 300 299 299 298 299 298 300 298 299 299 293 285 276 292 294 280 282 278 281 286 284 287 285 285 282 281 282 281 281 280 283 289 288 283 288 285 281 285 292 294 289 286 288 284 282 285
302 300 300 299 298 300 299 299 299 299 298 288 282 282 290 292 274 276 281 282 285 284 284 284 283 285 286 282 279 283 283 289 290 288 285 287 284 279 282 288 290 287 288 289 288 288 284
301 301 300 299 298 299 300 299 299 300 299 289 282 274 281 288 287 280 278 278 280 285 284 286 285 286 283 281 284 281 283 287 289 289 293 289 285 282 278 281 286 284 287 289 288 283 284
302 301 301 299 299 299 300 299 300 300 299 289 281 277 282 275 279 281 281 280 278 279 283 285 283 283 281 279 280 281 283 284 287 290 289 288 281 283 284 285 287 287 286 287 285 287 283
302 301 299 300 299 298 299 299 300 300 299 287 280 280 283 281 282 280 280 278 278 279 281 280 282 282 283 280 281 279 282 282 282 287 285 287 282 284 281 285 284 283 287 287 287 289 289
301 301 301 301 299 298 298 299 299 299 296 289 286 287 283 279 280 278 278 280 279 281 283 284 283 281 282 283 285 286 287 286 286 284 283 283 282 281 278 284 283 280 285 287 287 289 290
302 301 301 300 298 298 299 299 299 299 295 288 286 286 280 275 279 279 280 281 280 280 279 282 284 283 287 290 290 290 287 286 286 286 287 283 282 282 279 282 273 284 292 291 288 289 293
301 301 300 299 298 299 299 299 299 299 297 289 287 286 283 277 281 280 280 280 281 282 281 282 285 288 290 288 284 281 281 282 284 285 285 286 283 280 277 278 281 286 288 288 287 289 294
301 300 300 299 300 299 299 299 299 299 299 291 288 290 288 279 278 282 280 281 279 279 281 283 288 290 289 284 280 276 274 278 278 281 286 285 285 281 279 275 273 283 289 292 293 286 297
300 300 299 299 299 298 298 298 298 299 299 292 291 292 289 282 283 284 281 280 283 282 280 282 283 284 287 280 279 278 277 282 277 277 279 281 281 278 278 276 281 288 290 295 283 286 297
300 300 299 299 299 298 298 298 298 298 298 293 291 292 290 283 283 285 286 283 283 283 279 282 281 283 282 278 278 278 278 280 279 281 280 280 279 277 279 276 274 290 292 287 292 296 298
300 299 299 299 298 298 298 298 298 298 298 294 287 291 295 287 283 287 288 289 289 288 284 284 281 282 284 281 281 281 278 281 279 276 284 279 283 280 281 281 288 294 294 297 297 296 296

GFSGBSN_sfc_thetae_114.txt.gz
Theta_e
311 310 308 307 307 307 308 307 307 307 308 307 307 307 307 307 307 307 307 307 307 308 308 309 309 310 306 296 296 303 313 310 309 314 308 304 302 303 300 302 304 301 303 305 305 305 305
309 309 308 307 307 307 306 306 307 307 307 306 306 306 306 307 307 307 307 308 308 307 308 309 310 308 303 292 300 304 303 303 303 301 304 307 303 304 301 301 300 303 303 304 305 304 305
309 308 308 308 307 306 305 306 306 307 306 306 306 306 306 306 307 306 306 308 308 307 309 310 310 307 300 296 303 307 309 309 309 307 301 304 307 303 304 300 304 302 298 301 302 303 303
308 309 309 308 306 306 306 306 306 306 305 305 305 305 305 306 306 305 307 307 306 308 308 310 310 305 296 302 307 309 310 307 308 309 306 305 303 299 298 302 301 298 299 295 302 303 304
307 306 307 307 307 305 304 305 305 304 305 304 304 305 305 305 305 306 306 305 308 308 309 309 306 301 295 307 299 302 303 299 300 305 306 305 301 297 298 294 293 295 290 293 296 303 303
306 306 307 307 306 304 303 304 304 303 304 303 304 304 304 304 304 305 304 303 303 304 304 306 306 295 298 293 299 301 303 301 298 300 299 298 298 294 293 292 286 290 290 292 292 298 300
306 305 306 306 304 303 302 302 302 302 302 303 304 304 304 304 304 303 303 302 297 298 296 291 292 291 294 299 302 299 301 299 298 296 291 296 290 288 291 293 292 292 292 291 295 298 298
306 305 305 304 303 302 301 301 301 301 301 303 303 303 303 303 303 302 302 296 293 294 288 294 295 295 297 298 292 297 300 294 293 289 291 290 287 293 294 293 291 291 290 290 293 296 296
305 304 305 304 303 302 301 300 301 301 302 302 302 303 303 302 300 301 298 296 301 299 289 290 294 294 294 295 291 293 296 294 291 288 289 286 290 294 292 292 289 290 289 290 290 294 296
304 304 304 303 302 302 301 301 301 301 301 301 302 302 302 302 298 299 295 300 301 301 286 285 289 292 294 294 289 297 298 296 292 288 289 289 292 289 289 290 291 287 293 292 290 289 286
304 303 302 302 302 301 301 301 301 302 301 301 301 301 301 300 299 296 297 302 302 300 276 285 287 296 295 291 292 293 299 295 289 289 290 287 289 288 287 288 293 289 294 292 291 290 290
303 302 301 301 301 301 301 302 301 300 300 300 301 301 300 300 302 299 302 302 300 283 275 281 287 287 288 290 291 293 292 297 297 291 290 289 294 292 291 292 292 294 292 292 292 290 284
302 301 301 301 300 301 300 301 301 300 299 300 301 300 299 302 296 302 302 296 283 278 283 281 282 286 286 286 287 288 289 289 286 282 283 288 288 292 292 289 293 292 289 282 280 281 281
302 301 300 301 300 301 300 300 299 299 299 300 300 297 297 300 302 302 298 289 274 278 280 285 285 286 282 285 286 287 287 284 288 285 282 282 280 289 292 289 287 289 289 282 276 279 283
301 300 301 300 300 301 300 300 299 299 299 300 297 300 300 300 302 303 293 283 278 280 281 283 285 281 282 285 285 286 286 284 286 287 280 279 283 292 293 292 291 288 286 291 285 287 284
302 301 301 301 300 300 299 299 299 299 299 299 298 298 297 301 303 298 291 280 282 285 286 285 279 282 280 282 283 284 284 288 286 288 289 285 279 290 293 292 292 290 292 284 285 278 278
302 301 300 301 300 300 299 300 299 299 299 297 297 292 298 304 302 294 285 282 284 288 288 284 282 281 283 282 284 283 284 288 288 288 290 286 285 287 291 286 286 288 288 288 288 287 281
302 301 301 300 300 300 299 300 299 300 299 297 294 287 299 301 289 289 285 284 286 286 289 287 287 285 283 284 283 283 284 286 291 290 285 287 284 283 286 294 295 291 290 290 284 283 286
302 301 301 300 300 299 300 300 299 300 299 297 290 289 299 297 283 283 285 284 286 285 285 286 285 287 288 285 281 284 286 290 291 289 287 288 284 280 283 290 291 288 290 292 292 291 286
303 302 302 300 299 300 300 300 300 300 299 297 290 283 288 291 292 281 280 282 282 286 285 287 286 288 286 284 287 283 285 288 291 289 292 291 285 282 277 282 289 285 286 291 289 286 286
302 302 301 301 299 300 300 300 300 300 299 296 291 285 288 283 284 285 285 283 281 279 285 286 285 285 283 280 283 283 286 287 289 290 289 288 281 285 285 286 287 288 288 288 288 289 286
302 302 301 301 300 300 301 300 300 300 299 295 286 286 288 285 286 284 283 282 281 282 282 282 283 285 285 283 284 282 284 285 284 287 286 289 281 285 282 285 288 285 289 290 290 290 291
303 302 302 300 299 300 301 301 300 300 299 293 293 293 290 284 284 283 283 282 282 283 284 286 286 284 283 286 289 289 290 289 289 286 284 285 283 281 279 285 285 283 288 289 290 292 293
302 302 302 300 301 301 300 300 301 300 298 295 293 292 286 281 283 282 282 283 283 284 282 285 287 284 288 293 292 293 292 291 291 290 290 285 284 283 280 283 275 286 293 293 290 292 295
302 302 301 301 301 300 300 300 300 300 298 295 295 292 288 282 283 283 283 283 284 285 284 284 287 290 293 290 286 283 284 285 286 288 289 290 286 281 278 280 282 286 288 290 289 290 296
301 302 302 301 300 300 300 300 300 300 299 296 296 298 292 285 283 285 283 284 282 283 284 285 290 293 292 288 284 278 277 280 280 283 289 288 289 284 281 276 275 285 290 294 294 286 298
301 301 301 301 300 300 300 300 300 299 299 298 295 299 292 285 287 287 284 284 287 285 283 285 286 286 291 285 281 279 278 284 279 279 281 283 284 281 281 278 281 289 293 297 285 287 298
301 301 300 300 300 300 299 299 299 299 299 298 295 299 293 287 288 288 288 285 286 285 281 285 285 286 287 282 282 281 280 282 281 283 282 281 281 282 282 278 276 293 293 288 293 299 298
298 300 300 299 300 299 299 299 298 299 299 298 293 297 297 289 289 292 293 293 292 290 287 287 285 284 287 284 285 285 281 283 282 278 287 281 284 283 284 284 292 295 293 297 299 297 298

GFSGBSN_sfc_thetae_117.txt.gz
Theta_e
314 312 310 309 308 308 308 308 307 307 307 307 307 307 307 308 308 308 308 309 308 308 309 310 310 311 311 302 299 306 314 314 306 306 307 306 303 303 302 304 305 303 305 307 309 308 307
312 311 309 309 308 309 307 306 306 306 306 306 306 306 307 307 307 307 307 308 308 307 309 310 311 311 308 296 305 308 310 310 308 307 303 302 304 305 302 301 302 305 305 306 308 307 308
311 310 309 308 308 307 306 306 306 306 305 305 306 305 306 306 306 306 306 308 307 307 310 311 311 310 304 300 308 314 310 308 312 309 306 308 304 303 304 300 305 303 300 302 304 305 305
310 309 309 309 307 307 307 306 305 305 304 305 305 305 305 306 305 305 306 307 307 308 309 311 311 309 300 305 309 306 306 304 306 307 307 309 308 302 299 302 299 297 300 296 302 305 305
310 310 310 308 307 307 305 305 304 304 304 304 304 305 305 305 305 306 306 306 307 308 309 310 310 305 298 308 302 305 306 302 303 305 305 307 305 300 298 293 292 294 290 293 297 304 304
309 308 308 308 307 306 304 305 303 303 303 303 304 304 305 304 305 306 305 305 304 306 308 308 308 297 299 296 301 304 306 303 301 301 300 300 299 296 296 291 285 287 290 293 294 299 301
308 307 308 308 306 304 304 304 302 302 302 302 304 304 304 304 304 305 305 305 300 301 300 294 294 294 296 300 304 301 303 301 301 299 293 297 292 290 293 294 293 291 290 289 294 300 298
307 307 308 307 305 304 303 302 302 301 301 303 303 303 303 303 303 304 306 298 295 298 293 297 298 297 299 300 294 297 302 295 294 291 295 292 289 293 295 295 293 292 289 290 294 296 296
307 306 306 306 304 303 303 302 301 301 302 302 302 303 303 302 302 304 301 298 303 302 295 292 296 295 295 298 293 294 298 296 293 290 291 289 292 295 292 291 291 291 290 290 290 293 296
307 306 306 305 304 303 302 302 301 301 301 301 302 302 302 302 299 302 299 302 304 305 291 287 291 295 295 297 292 299 300 295 293 289 290 290 293 291 290 289 291 288 294 292 290 289 286
305 305 305 304 303 303 301 302 302 302 301 301 301 302 302 301 301 299 300 304 305 304 281 288 289 298 296 292 293 294 300 296 290 291 292 288 290 288 289 290 292 288 294 293 292 290 289
305 305 304 303 303 301 301 302 302 301 300 300 301 301 302 303 304 302 305 305 303 289 278 285 289 289 290 292 292 294 294 298 298 291 292 290 295 293 291 292 293 294 291 292 293 291 283
304 303 302 302 302 301 301 302 301 300 300 300 301 301 301 304 300 305 306 300 288 282 286 284 285 288 288 288 289 290 289 289 287 282 283 288 289 293 294 289 292 292 288 282 281 282 282
303 302 302 302 301 301 301 301 300 299 299 300 301 299 301 303 306 306 303 294 280 282 283 288 287 288 285 287 288 288 288 286 289 288 284 281 280 287 291 289 288 289 288 283 277 279 283
303 302 301 302 301 301 301 300 300 299 299 300 299 304 305 305 307 305 296 286 284 284 285 285 287 283 284 287 287 287 287 287 288 289 281 281 281 290 292 294 292 288 286 291 286 288 284
303 302 301 301 301 302 301 300 300 299 299 300 301 300 301 305 307 302 293 283 285 287 288 287 281 284 282 284 285 285 285 289 288 290 291 286 279 289 291 295 295 291 292 285 287 279 278
303 302 301 302 301 301 300 300 300 300 299 300 299 295 301 306 305 297 288 286 286 290 289 286 284 284 285 284 285 285 284 289 290 289 290 288 285 284 288 288 287 288 287 288 288 287 281
303 303 302 302 301 301 300 300 300 300 300 296 299 291 301 303 292 293 288 287 286 288 291 289 289 287 286 286 284 285 285 287 292 291 285 288 285 281 283 291 295 295 289 289 283 283 286
303 303 302 302 302 301 300 300 300 300 300 300 293 294 301 299 287 287 288 286 288 287 287 287 287 288 290 286 282 286 287 291 292 290 287 288 284 278 283 287 290 289 291 290 290 290 285
303 302 302 302 301 300 300 301 300 300 300 298 295 288 292 294 295 289 285 285 285 289 287 288 288 289 288 285 288 285 286 290 292 291 291 291 285 281 277 282 285 283 288 291 290 286 286
303 302 302 302 301 300 301 300 300 301 300 298 295 289 292 284 288 288 288 286 284 283 288 289 286 287 286 282 284 284 287 288 290 291 290 289 282 284 285 286 287 288 289 289 289 289 286
303 303 302 302 301 301 301 301 301 301 300 296 289 290 291 291 290 288 285 284 284 285 285 285 285 286 287 283 284 283 287 287 285 290 288 290 283 285 283 288 288 287 290 290 289 290 291
303 302 302 302 301 301 301 301 301 302 299 294 296 297 292 288 287 286 286 285 284 286 287 288 287 286 285 287 290 291 291 290 290 288 287 287 285 284 279 286 285 284 288 290 291 293 292
303 303 302 302 301 301 301 301 301 302 299 297 297 296 290 285 286 285 284 285 285 286 285 287 288 286 289 294 293 293 293 292 293 291 292 287 285 285 280 283 276 287 293 294 292 293 295
302 302 302 302 301 299 301 301 301 301 300 297 298 294 290 285 286 285 285 285 287 288 286 286 289 291 294 291 286 284 285 286 288 290 290 292 287 283 279 280 284 287 290 290 289 291 298
302 302 302 302 301 300 301 301 300 301 300 298 297 298 293 287 286 287 286 287 285 285 286 288 292 294 293 288 285 279 277 282 281 284 291 291 291 285 282 277 275 286 291 295 295 287 296
301 302 302 302 301 301 301 300 300 300 300 298 296 300 293 287 290 289 286 286 289 287 285 287 288 289 292 286 282 280 280 284 280 280 282 284 285 282 283 281 283 291 293 297 284 285 296
301 301 301 301 300 301 300 300 300 300 300 299 297 300 294 288 291 291 291 288 288 288 284 288 287 289 287 283 283 283 282 284 283 285 283 281 281 282 284 280 278 294 292 286 291 297 294
300 301 301 301 300 300 300 300 300 300 300 300 295 300 299 292 290 297 296 296 293 292 289 291 287 285 289 286 287 285 282 285 283 279 289 281 284 282 283 284 291 292 290 294 295 293 292

GFSGBSN_sfc_thetae_120.txt.gz
Theta_e
315 315 314 312 310 309 309 308 308 307 308 307 307 307 307 308 308 308 307 308 307 307 308 311 312 313 311 305 299 307 320 317 308 305 302 300 299 301 297 300 303 301 302 305 307 308 308
316 315 312 310 309 309 310 309 308 307 306 306 307 306 307 307 307 307 307 308 308 307 308 311 312 312 310 298 306 313 310 308 310 308 306 306 301 300 298 299 298 301 301 303 305 306 307
315 313 311 310 309 310 309 307 306 306 306 306 306 306 306 307 306 306 306 307 307 307 310 311 312 310 306 300 309 308 307 305 305 305 302 305 307 303 299 296 302 301 297 300 301 303 303
314 312 311 310 309 308 307 307 307 305 305 306 305 305 306 306 305 306 306 307 307 308 311 311 312 312 301 306 308 306 307 304 306 306 304 304 306 303 300 300 297 294 294 290 297 301 303
313 312 310 309 309 307 308 306 305 304 305 304 304 305 305 305 306 306 307 307 307 309 310 310 310 306 298 307 302 305 306 301 302 305 305 304 304 299 299 293 289 291 287 289 292 299 299
312 310 310 309 308 308 307 305 305 304 304 304 304 305 305 305 305 306 306 307 309 307 308 309 307 298 300 297 300 303 305 303 300 301 300 300 298 294 294 291 283 286 287 290 290 295 297
311 311 311 310 308 307 306 305 304 302 303 303 304 304 304 304 304 305 305 304 298 301 300 294 295 295 297 301 302 300 303 300 300 297 292 296 291 288 291 293 293 291 290 288 292 295 294
310 309 309 308 308 307 305 305 303 302 303 303 303 303 304 304 304 305 305 298 296 298 293 298 298 298 300 300 294 298 302 295 294 290 293 291 288 293 294 293 291 290 289 289 293 294 293
309 308 308 309 307 306 304 304 303 302 302 303 302 303 303 303 304 303 300 298 303 303 295 294 297 296 295 298 294 294 299 296 291 289 290 287 290 293 291 290 289 289 288 288 289 292 294
307 307 307 308 306 304 304 303 302 302 302 302 302 302 302 303 300 303 300 302 305 305 292 290 293 296 296 297 293 299 300 295 292 289 291 290 293 291 290 288 289 285 291 290 289 288 283
307 307 307 307 306 304 303 302 302 302 302 302 302 302 302 302 302 300 301 304 304 304 281 289 291 299 296 293 293 294 300 296 289 290 290 287 288 287 287 287 290 287 292 290 289 287 288
307 306 306 306 305 303 302 302 302 302 301 301 301 302 302 304 305 303 305 305 303 290 280 286 291 290 290 292 292 295 294 297 296 292 291 289 293 291 289 291 292 292 290 288 289 287 281
305 305 305 304 304 302 302 302 302 301 301 300 301 302 300 303 301 306 307 302 288 282 288 285 286 289 289 288 289 290 289 289 287 282 282 286 288 291 293 287 290 289 286 278 278 279 279
305 304 304 303 303 302 301 302 302 301 300 300 301 301 304 303 307 307 304 294 281 285 284 289 287 288 286 288 288 288 288 285 289 288 283 280 279 287 291 287 286 287 285 279 273 276 280
304 303 303 302 302 301 301 301 301 300 299 300 301 302 304 305 307 306 297 286 285 286 287 285 287 285 285 287 287 287 286 286 288 289 281 280 280 289 291 291 290 288 283 288 283 285 281
304 303 302 302 301 300 302 301 300 299 299 299 298 300 301 305 307 302 293 287 286 289 288 288 282 285 282 285 284 285 285 288 287 291 291 285 279 287 289 291 293 291 292 283 283 275 275
303 302 301 302 302 302 302 301 300 299 299 299 297 294 301 305 304 297 288 288 288 291 290 287 285 284 285 284 285 284 284 288 290 289 290 289 284 282 287 285 284 287 286 288 286 284 278
304 303 303 302 301 301 301 300 300 300 299 296 298 291 302 304 292 293 289 289 287 290 291 289 289 287 286 286 284 284 284 287 291 291 285 289 285 278 282 289 292 290 286 287 281 280 284
303 303 302 302 302 301 300 300 300 300 300 298 292 294 301 300 287 288 290 288 288 288 288 288 287 288 289 286 282 285 286 291 291 289 287 288 282 277 279 285 288 285 287 289 289 289 283
303 303 303 301 302 301 301 300 301 300 300 298 295 288 292 293 293 290 288 287 286 289 288 289 287 289 287 285 288 284 285 289 291 290 291 291 285 280 276 280 285 282 286 288 289 283 284
303 303 303 302 302 301 301 300 301 300 300 296 295 290 293 286 288 289 290 287 285 284 288 289 287 286 285 283 284 283 286 287 289 292 290 289 281 284 284 285 286 286 287 289 287 288 284
304 303 302 302 302 302 301 301 301 300 300 295 290 290 292 289 291 288 287 286 285 286 286 285 285 286 287 284 284 282 285 285 285 288 287 289 282 285 283 286 286 284 288 289 289 289 289
303 303 302 302 302 302 301 302 301 301 300 293 296 296 292 289 288 287 287 286 286 288 288 288 287 285 284 286 289 289 290 289 288 286 286 287 285 283 279 284 284 282 285 287 288 292 293
303 303 303 303 302 302 301 302 302 302 300 297 297 295 289 284 286 286 287 288 287 287 285 288 289 286 289 293 292 291 290 290 290 290 292 287 286 284 280 283 275 286 292 291 289 289 292
303 303 303 302 302 301 301 301 302 302 302 296 298 294 290 285 288 287 287 287 287 288 286 287 288 291 294 290 284 282 283 285 287 290 290 291 287 282 279 279 282 286 289 288 287 288 291
303 303 303 302 302 301 300 301 301 301 301 298 298 299 293 287 286 289 287 287 284 285 286 288 292 294 292 286 283 278 276 280 280 284 291 290 290 284 282 277 275 284 290 294 295 284 292
302 303 302 302 302 301 300 300 301 301 300 298 297 301 294 288 290 290 286 286 289 287 284 288 289 288 292 285 281 279 279 284 279 279 281 283 284 281 281 280 283 287 291 295 279 282 292
301 302 302 302 302 301 300 300 301 301 300 298 297 301 295 289 290 292 291 288 289 288 284 288 287 288 286 282 282 282 281 283 282 284 283 281 280 280 281 279 277 288 289 283 287 291 290
297 301 301 301 301 301 300 301 301 300 300 300 295 300 300 293 291 296 296 297 294 293 289 290 287 287 288 284 286 285 282 284 282 278 288 281 284 282 283 282 287 288 286 288 290 289 289

GFSGBSN_sfc_thetae_123.txt.gz
Theta_e
318 318 317 316 314 312 311 310 308 309 308 308 307 307 307 308 308 308 307 307 308 308 308 310 312 314 308 303 295 304 319 315 311 304 301 300 296 292 289 292 294 293 295 299 301 302 301
318 317 316 316 313 311 310 310 309 309 308 307 307 307 307 307 307 307 307 307 308 308 309 311 312 314 305 295 303 305 304 303 302 300 299 299 298 300 296 291 291 295 296 296 297 298 299
318 316 316 314 312 310 310 310 308 307 306 306 306 306 306 307 307 307 307 307 308 308 309 311 313 309 304 297 302 301 303 301 301 300 297 299 298 297 297 293 296 294 289 292 294 296 296
317 316 316 313 312 311 311 308 308 307 306 306 306 305 306 306 306 306 307 308 308 308 309 313 312 308 298 305 302 302 301 301 302 301 300 300 299 295 296 297 294 289 287 283 291 293 296
317 316 315 312 311 311 309 308 307 306 305 305 304 305 306 306 306 307 307 307 308 308 309 311 305 304 295 308 298 300 300 299 300 300 300 304 297 293 294 287 284 284 279 282 287 293 293
317 315 314 311 310 309 308 308 306 305 304 304 304 305 305 305 306 306 306 307 308 308 306 306 306 296 298 296 298 299 299 300 296 297 295 295 292 288 287 283 279 280 281 285 285 289 291
316 315 313 311 310 309 308 307 306 304 303 304 304 304 304 304 305 306 303 298 294 297 298 291 293 294 296 299 300 296 299 297 296 293 286 290 284 281 285 287 288 286 285 284 288 291 290
315 314 312 311 310 309 308 307 305 303 303 303 303 303 303 304 304 305 301 293 294 294 289 297 298 298 300 298 292 295 300 292 290 285 289 285 282 288 291 290 288 286 284 283 287 290 289
313 312 311 311 310 309 307 306 304 303 302 303 303 303 303 303 304 300 294 294 299 300 289 294 296 295 295 295 291 291 296 293 288 285 286 284 287 292 289 287 286 286 284 284 284 287 289
311 310 311 309 308 308 307 305 304 303 302 303 302 303 302 304 300 298 294 299 300 300 285 287 291 295 295 294 291 295 297 292 289 285 287 286 291 288 286 285 286 281 288 287 285 284 278
310 309 307 307 308 306 305 304 303 303 302 302 302 302 302 302 295 295 298 300 298 298 276 290 290 296 294 290 291 292 295 292 286 286 287 285 286 285 283 285 288 285 289 287 286 283 282
307 307 307 308 307 305 305 304 303 302 303 301 301 302 302 302 298 298 301 300 297 285 276 285 290 289 288 291 291 292 292 294 293 289 289 287 290 287 286 289 288 289 287 286 285 283 276
307 306 306 306 306 305 304 303 302 303 301 300 301 301 300 300 296 301 301 296 283 278 289 284 286 288 287 287 288 289 287 285 282 279 280 284 285 288 290 284 287 286 283 275 274 274 274
306 306 306 306 305 304 303 302 302 302 300 299 301 302 300 302 302 301 298 288 278 285 285 289 287 286 284 287 286 287 285 281 287 284 280 278 276 284 288 285 284 283 283 277 271 272 275
305 305 305 304 303 302 302 303 302 300 299 299 300 297 298 301 302 300 291 278 281 285 287 285 285 283 284 287 286 285 283 282 285 286 277 278 278 286 288 288 287 284 282 288 281 281 276
305 304 304 303 302 301 301 301 301 300 299 299 294 296 297 301 302 297 287 285 285 289 288 287 282 285 280 283 282 282 282 287 286 289 289 284 276 284 287 289 290 287 290 282 281 272 271
304 303 303 302 302 301 301 301 300 299 299 299 292 290 298 301 299 291 281 284 288 290 289 285 284 283 284 282 283 281 282 286 289 288 288 284 280 280 284 283 281 284 283 284 285 282 274
303 303 302 302 302 301 302 301 300 299 299 295 292 285 298 299 287 288 284 290 289 289 291 288 288 287 284 285 282 282 281 285 291 289 283 285 279 276 278 285 289 288 284 284 279 278 280
303 303 303 302 302 302 301 300 300 299 300 294 289 290 297 296 281 282 288 288 288 287 288 288 287 289 288 284 280 284 284 289 289 288 285 284 277 273 277 282 287 283 285 286 287 286 280
303 303 303 302 302 301 301 300 300 299 300 294 290 284 288 289 289 287 285 285 284 289 287 288 287 287 285 283 286 283 284 288 289 289 293 289 281 279 273 276 282 280 284 286 286 281 282
303 303 303 302 302 301 301 300 300 300 300 293 290 286 290 281 284 285 286 287 285 284 288 288 285 285 283 280 282 282 284 284 287 290 287 284 275 279 281 284 284 283 284 286 284 287 282
302 302 302 302 303 302 301 301 301 300 300 291 286 285 289 286 289 286 286 285 285 286 286 285 283 285 284 280 282 279 282 282 281 285 283 284 277 282 280 284 284 283 286 286 287 287 288
303 302 303 302 303 302 301 301 302 301 299 289 291 292 288 287 284 282 283 285 285 287 287 288 286 283 282 284 285 285 286 285 285 282 281 281 280 279 276 283 282 280 284 285 285 287 287
303 303 303 302 302 302 302 302 301 301 300 293 293 291 285 281 283 283 287 288 287 287 284 287 287 283 287 290 289 288 287 286 286 285 286 281 280 281 278 280 272 284 289 288 287 286 287
303 303 303 302 302 302 301 302 302 301 301 294 294 291 286 280 284 285 286 286 286 286 284 285 287 289 290 287 280 279 279 281 284 288 288 288 284 279 277 277 281 282 284 285 284 285 288
303 303 303 302 302 302 301 302 302 302 301 295 293 294 288 280 281 287 284 285 280 279 281 286 290 291 288 282 278 275 273 278 278 283 290 289 287 280 279 276 274 279 285 289 290 280 288
302 303 303 302 302 302 301 301 302 301 301 296 293 295 289 280 285 287 282 282 286 282 279 283 287 286 287 277 276 275 275 283 276 277 279 279 279 278 278 277 280 283 287 289 277 278 287
302 302 302 302 302 301 301 301 301 301 301 295 292 295 290 284 286 290 291 286 285 284 279 284 283 284 280 276 276 275 276 280 279 282 281 278 277 274 279 276 272 285 285 279 284 288 288
299 302 302 302 302 301 301 300 300 301 301 299 290 296 297 287 286 292 292 293 291 290 285 284 283 284 285 279 282 280 277 276 278 272 283 278 280 278 280 279 286 286 284 286 287 286 287